[[{"header":{"parameterUnit":"m.s-1","parameterCategory":1,"la1":30.6,"la2":29.2853,"lo1":-89.7004,"lo2":-87.6739,"dy":0.0162,"dx":0.0183,"nx":112,"ny":82,"refTime":"2024-10-10T18:00:00:Z","depth":0,"parameterNumber":2,"parameterNumberName":"U-component_of_WINDS"},"data":[0.0,0.0,0.0,0.0,0.0,0.0,0.0,0.0,0.0,0.0,0.0,0.0,0.0,0.0,0.0,0.0,0.0,0.0,0.0,0.0,0.0,0.0,0.0,0.0,0.0,0.0,0.0,0.0,0.0,0.0,0.0,0.0,0.0,0.0,0.0,0.0,0.0,0.0,0.0,0.0,0.0,0.0,0.0,0.0,0.0,0.0,0.0,0.0,0.0,0.0,0.0,0.0,0.0,0.0,0.0,0.0,0.0,0.0,0.0,0.0,0.0,0.0,0.0,0.0,0.0,0.0,0.0,0.0,0.0,0.0,0.0,0.0,0.0,0.0,0.0,0.0,0.0,0.0,0.0,0.0,0.0,0.0,0.0,0.0,0.0,0.0,0.0,0.0,0.0,0.0,0.4759,0.5033,0.5548,0.5794,0.561,0.5436,0.5104,0.4546,0.0,0.0,0.0,0.0,0.0,0.0,0.0,0.0,0.0,0.0,0.0,0.0,0.0,0.0,0.0,0.0,0.0,0.0,0.0,0.0,0.0,0.0,0.0,0.0,0.0,0.0,0.0,0.0,0.0,0.0,0.0,0.0,0.0,0.0,0.0,0.0,0.0,0.0,0.0,0.0,0.0,0.0,0.0,0.0,0.0,0.0,0.0,0.0,0.0,0.0,0.0,0.0,0.0,0.0,0.0,0.0,0.0,0.0,0.0,0.0,0.0,0.0,0.0,0.0,0.0,0.0,0.0,0.0,0.0,0.0,0.0,0.0,0.0,0.0,0.0,0.0,0.0,0.0,0.0,0.0,0.0,0.0,0.0,0.0,0.0,0.0,0.0,0.0,0.0,0.0,0.0,0.0,0.0,0.0,0.0,0.0,0.0,0.0,0.0,0.0,0.0,0.0,0.0,0.0,0.4582,0.5435,0.5583,0.5682,0.5759,0.5267,0.4813,0.4539,0.0,0.0,0.0,0.0,0.0,0.0,0.0,0.0,0.0,0.0,0.0,0.0,0.0,0.0,0.0,0.0,0.0,0.0,0.0,0.0,0.0,0.0,0.0,0.0,0.0,0.0,0.0,0.0,0.0,0.0,0.0,0.0,0.0,0.0,0.0,0.0,0.0,0.0,0.0,0.0,0.0,0.0,0.0,0.0,0.0,0.0,0.0,0.0,0.0,0.0,0.0,0.0,0.0,0.0,0.0,0.0,0.0,0.0,0.0,0.0,0.0,0.0,0.0,0.0,0.0,0.0,0.0,0.0,0.0,0.0,0.0,0.0,0.0,0.0,0.0,0.0,0.0,0.0,0.0,0.0,0.0,0.0,0.0,0.0,0.0,0.0,0.0,0.0,0.0,0.0,0.0,0.0,0.0,0.0,0.0,0.0,0.0,0.0,0.0,0.0,0.0,0.0,0.0,0.4604,0.4772,0.5511,0.5515,0.5528,0.5674,0.5528,0.5133,0.4536,0.4561,0.0,0.0,0.0,0.0,0.0,0.0,0.0,0.0,0.0,0.0,0.0,0.0,0.0,0.0,0.0,0.0,0.0,0.0,0.0,0.0,0.0,0.0,0.0,0.0,0.0,0.0,0.0,0.0,0.0,0.0,0.0,0.0,0.0,0.0,0.0,0.0,0.0,0.0,0.0,0.0,0.0,0.0,0.0,0.0,0.0,0.0,0.0,0.0,0.0,0.0,0.0,0.0,0.0,0.0,0.0,0.0,0.0,0.0,0.0,0.0,0.0,0.0,0.0,0.0,0.0,0.0,0.0,0.0,0.0,0.0,0.0,0.0,0.0,0.0,0.0,0.0,0.0,0.0,0.0,0.0,0.0,0.0,0.0,0.0,0.0,0.0,0.0,0.0,0.0,0.0,0.0,0.0,0.0,0.0,0.0,0.0,0.0,0.0,0.0,0.0,0.0,0.0,0.4958,0.4999,0.56,0.5552,0.5464,0.5579,0.5579,0.5323,0.4702,0.4864,0.0,0.0,0.0,0.0,0.0,0.0,0.0,0.0,0.0,0.0,0.0,0.0,0.0,0.0,0.0,0.0,0.0,0.0,0.0,0.0,0.0,0.0,0.0,0.0,0.0,0.0,0.0,0.0,0.0,0.0,0.0,0.0,0.0,0.0,0.0,0.0,0.0,0.0,0.0,0.0,0.0,0.0,0.0,0.0,0.0,0.0,0.0,0.0,0.0,0.0,0.0,0.0,0.0,0.0,0.0,0.0,0.0,0.0,0.0,0.0,0.0,0.0,0.0,0.0,0.0,0.0,0.0,0.0,0.0,0.0,0.0,0.0,0.0,0.0,0.0,0.0,0.0,0.0,0.0,0.0,0.0,0.0,0.0,0.0,0.0,0.0,0.0,0.0,0.0,0.0,0.0,0.0,0.0,0.0,0.0,0.0,0.0,0.0,0.0,0.0,0.0,0.0,0.4963,0.5288,0.5751,0.5645,0.5579,0.5589,0.5237,0.5041,0.514,0.5304,0.0,0.0,0.0,0.0,0.0,0.0,0.0,0.0,0.0,0.0,0.0,0.0,0.0,0.0,0.0,0.0,0.0,0.0,0.0,0.0,0.0,0.0,0.0,0.0,0.0,0.0,0.0,0.0,0.0,0.0,0.0,0.0,0.0,0.0,0.0,0.0,0.0,0.0,0.0,0.0,0.0,0.0,0.0,0.0,0.0,0.0,0.0,0.0,0.0,0.0,0.0,0.0,0.0,0.0,0.0,0.0,0.0,0.0,0.0,0.0,0.0,0.0,0.0,0.0,0.0,0.0,0.0,0.0,0.0,0.0,0.0,0.0,0.0,0.0,0.0,0.0,0.0,0.0,0.0,0.0,0.0,0.0,0.0,0.0,0.0,0.0,0.0,0.0,0.0,0.0,0.0,0.0,0.0,0.0,0.0,0.0,0.0,0.0,0.0,0.0,0.0,0.0,0.5723,0.592,0.6328,0.6706,0.6839,0.671,0.6679,0.64,0.5854,0.0,0.0,0.0,0.0,0.0,0.0,0.0,0.0,0.0,0.0,0.0,0.0,0.0,0.0,0.0,0.0,0.0,0.0,0.0,0.0,0.0,0.0,0.0,0.0,0.0,0.0,0.0,0.0,0.0,0.0,0.0,0.0,0.0,0.0,0.0,0.0,0.0,0.0,0.0,0.0,0.0,0.0,0.0,0.0,0.0,0.0,0.0,0.0,0.0,0.0,0.0,0.0,0.0,0.0,0.0,0.0,0.0,0.0,0.0,0.0,0.0,0.0,0.0,0.0,0.0,0.0,0.0,0.0,0.0,0.0,0.0,0.0,0.0,0.0,0.0,0.0,0.0,0.0,0.0,0.0,0.0,0.0,0.0,0.0,0.0,0.0,0.0,0.0,0.0,0.0,0.0,0.0,0.0,0.0,0.0,0.0,0.0,0.0,0.0,0.0,0.0,0.0,0.6138,0.6383,0.6657,0.7015,0.7386,0.7577,0.7386,0.7379,0.7104,0.6445,0.0,0.0,0.0,0.0,0.0,0.0,0.0,0.0,0.0,0.0,0.0,0.0,0.0,0.0,0.0,0.0,0.0,0.0,0.0,0.0,0.0,0.0,0.0,0.0,0.0,0.0,0.0,0.0,0.0,0.0,0.0,0.0,0.0,0.0,0.0,0.0,0.0,0.0,0.0,0.0,0.0,0.0,0.0,0.0,0.0,0.0,0.0,0.0,0.0,0.0,0.0,0.0,0.0,0.0,0.0,0.0,0.0,0.0,0.0,0.0,0.0,0.0,0.0,0.0,0.0,0.0,0.0,0.0,0.0,0.0,0.0,0.0,0.0,0.0,0.0,0.0,0.0,0.0,0.0,0.0,0.0,0.0,0.0,0.0,0.0,0.0,0.0,0.0,0.0,0.0,0.0,0.0,0.0,0.0,0.0,0.0,0.0,0.0,0.0,0.0,0.0,0.0,0.6553,0.6924,0.7341,0.7683,0.7517,0.7386,0.7386,0.7065,0.6829,0.0,0.0,0.0,0.0,0.0,0.0,0.0,0.0,0.0,0.0,0.0,0.0,0.0,0.0,0.0,0.0,0.0,0.0,0.0,0.0,0.0,0.0,0.0,0.0,0.0,0.0,0.0,0.0,0.0,0.0,0.0,0.0,0.0,0.0,0.0,0.0,0.0,0.0,0.0,0.0,0.0,0.0,0.0,0.0,0.0,0.0,0.0,0.0,0.0,0.0,0.0,0.0,0.0,0.0,0.0,0.0,0.0,0.0,0.0,0.0,0.0,0.0,0.0,0.0,0.0,0.0,0.0,0.0,0.0,0.0,0.0,0.0,0.0,0.0,0.0,0.0,0.0,0.0,0.0,0.0,0.0,0.0,0.0,0.0,0.0,0.0,0.0,0.0,0.0,0.0,0.0,0.0,0.0,0.0,0.0,0.0,0.0,0.0,0.0,0.0,0.0,0.0,0.0,0.6352,0.687,0.7409,0.7887,0.7912,0.8037,0.8166,0.7928,0.7556,0.6933,0.0,0.0,0.0,0.0,0.0,0.0,0.0,0.0,0.0,0.0,0.0,0.0,0.0,0.0,0.0,0.0,0.0,0.0,0.0,0.0,0.0,0.0,0.0,0.0,0.0,0.0,0.0,0.0,0.0,0.0,0.0,0.0,0.0,0.0,0.0,0.0,0.0,0.0,0.0,0.0,0.0,0.0,0.0,0.0,0.0,0.0,0.0,0.0,0.0,0.0,0.0,0.0,0.0,0.0,0.0,0.0,0.0,0.0,0.0,0.0,0.0,0.0,0.0,0.0,0.0,0.0,0.0,0.0,0.0,0.0,0.0,0.0,0.0,0.0,0.0,0.0,0.0,0.0,0.0,0.0,0.0,0.0,0.0,0.0,0.0,0.0,0.0,0.0,0.0,0.0,0.0,0.0,0.0,0.0,0.0,0.0,0.0,0.0,0.0,0.0,0.0,0.0,0.7015,0.7838,0.8455,0.8742,0.8882,0.8947,0.9075,0.8786,0.8311,0.7675,0.0,0.0,0.0,0.0,0.0,0.0,0.0,0.0,0.0,0.0,0.0,0.0,0.0,0.0,0.0,0.0,0.0,0.0,0.0,0.0,0.0,0.0,0.0,0.0,0.0,0.0,0.0,0.0,0.0,0.0,0.0,0.0,0.0,0.0,0.0,0.0,0.0,0.0,0.0,0.0,0.0,0.0,0.0,0.0,0.0,0.0,0.0,0.0,0.0,0.0,0.0,0.0,0.0,0.0,0.0,0.0,0.0,0.0,0.0,0.0,0.0,0.0,0.0,0.0,0.0,0.0,0.0,0.0,0.0,0.0,0.0,0.0,0.0,0.0,0.0,0.0,0.0,0.0,0.0,0.0,0.0,0.0,0.0,0.0,0.0,0.0,0.0,0.0,0.0,0.0,0.0,0.0,0.0,0.0,0.0,0.0,0.0,0.0,0.0,0.0,0.0,0.0,0.8146,0.9135,0.9856,0.9919,0.9919,0.9856,0.9919,0.9484,0.9048,0.8745,0.0,0.0,0.0,0.0,0.0,0.0,0.0,0.0,0.0,0.0,0.0,0.0,0.0,0.0,0.0,0.0,0.0,0.0,0.0,0.0,0.0,0.0,0.0,0.0,0.0,0.0,0.0,0.0,0.0,0.0,0.0,0.0,0.0,0.0,0.0,0.0,0.0,0.0,0.0,0.0,0.0,0.0,0.0,0.0,0.0,0.0,0.0,0.0,0.0,0.0,0.0,0.0,0.0,0.0,0.0,0.0,0.0,0.0,0.0,0.0,0.5089,0.4511,0.0,0.0,0.0,0.0,0.0,0.0,0.0,0.0,0.0,0.0,0.0,0.0,0.0,0.0,0.0,0.0,0.0,0.0,0.0,0.0,0.0,0.0,0.0,0.0,0.0,0.0,0.0,0.0,0.0,0.0,0.0,0.0,0.0,0.0,0.0,0.0,0.0,0.0,0.0,0.0,0.7833,0.8448,0.9005,0.9402,0.9075,0.8941,0.9192,0.916,0.8777,0.8078,0.7934,0.0,0.0,0.0,0.0,0.0,0.0,0.0,0.0,0.0,0.0,0.0,0.0,0.0,0.0,0.0,0.0,0.0,0.0,0.0,0.0,0.0,0.0,0.0,0.0,0.0,0.0,0.0,0.0,0.0,0.0,0.0,0.0,0.0,0.0,0.0,0.0,0.0,0.0,0.0,0.0,0.0,0.0,0.0,0.0,0.0,0.0,0.0,0.0,0.0,0.0,0.0,0.0,0.0,0.0,0.0,0.0,0.0,0.0,0.0,0.6663,0.6239,0.0,0.0,0.0,0.0,0.0,0.0,0.0,0.0,0.0,0.0,0.0,0.0,0.0,0.0,0.0,0.0,0.0,0.0,0.0,0.0,0.0,0.0,0.0,0.0,0.0,0.0,0.0,0.0,0.0,0.0,0.0,0.0,0.0,0.0,0.0,0.0,0.0,0.0,0.0,0.0,0.8417,0.9216,0.9825,1.0296,0.9921,0.9776,0.9965,0.9731,0.9373,0.8909,0.8459,0.0,0.0,0.0,0.0,0.0,0.0,0.0,0.0,0.0,0.0,0.0,0.0,0.0,0.0,0.0,0.0,0.0,0.0,0.0,0.0,0.0,0.0,0.0,0.0,0.0,0.0,0.0,0.0,0.0,0.0,0.0,0.0,0.0,0.0,0.0,0.0,0.0,0.0,0.0,0.0,0.0,0.0,0.0,0.0,0.0,0.0,0.0,0.0,0.0,0.0,0.0,0.0,0.0,0.7787,0.8353,0.9314,0.8323,0.8357,0.9259,0.8403,0.8471,0.9022,0.8068,0.0,0.0,0.0,0.0,0.0,0.0,0.0,0.0,0.0,0.0,0.0,0.0,0.0,0.0,0.0,0.0,0.0,0.0,0.0,0.0,0.0,0.0,0.8949,0.9946,1.0478,1.0356,0.8828,0.0,0.0,0.0,0.0,0.0,0.0,0.0,0.0,0.0,0.0,0.0,0.9395,1.0421,1.1156,1.1403,1.1209,1.1069,1.1069,1.0575,1.0247,1.02,0.917,0.8507,0.0,0.0,0.0,0.0,0.0,0.0,0.0,0.0,0.0,0.0,0.0,0.0,0.0,0.0,0.0,0.0,0.0,0.0,0.0,0.0,0.0,0.0,0.0,0.0,0.0,0.0,0.0,0.0,0.0,0.0,0.0,0.0,0.524,0.5476,0.0,0.0,0.0,0.0,0.0,0.0,0.0,0.0,0.0,0.0,0.0,0.0,0.0,0.8471,0.881,0.874,0.8544,0.8293,0.7927,0.7642,0.7571,0.7394,0.7778,0.8572,0.9418,0.0,0.8016,0.797,0.0,0.0,0.0,0.0,0.0,0.0,0.0,0.0,0.0,0.0,0.0,0.0,0.0,0.0,0.0,0.0,0.0,0.0,0.0,0.0,0.0,0.0,1.0716,1.0856,1.1195,1.1376,1.0735,0.9781,0.8898,0.832,0.824,0.8154,0.0,0.0,0.0,0.0,0.0,0.0,1.0112,1.085,1.1383,1.1423,1.1396,1.1369,1.1369,1.1069,1.0768,1.0521,1.0114,0.9595,0.909,0.8415,0.0,0.0,0.0,0.0,0.0,0.0,0.0,0.0,0.0,0.0,0.0,0.0,0.0,0.0,0.0,0.0,0.0,0.0,0.0,0.0,0.0,0.0,0.0,0.0,0.0,0.0,0.0,0.0,0.0,0.5116,0.5114,0.5947,0.5373,0.4895,0.0,0.0,0.0,0.0,0.0,0.0,0.0,0.0,0.0,0.8081,0.7812,0.7923,0.8305,0.8124,0.8321,0.8772,0.8548,0.8967,0.9891,0.9326,0.9947,1.1348,1.0859,1.0541,1.0371,1.0073,0.9777,0.9532,0.0,0.0,0.0,0.0,1.0242,1.0478,1.0903,1.1036,1.0949,1.0875,0.0,0.0,0.0,0.0,0.0,0.0,0.0,1.0219,1.0419,1.0962,1.1518,1.1991,1.2378,1.2594,1.2123,1.1577,1.0842,0.9484,0.9246,0.9042,0.8306,0.8151,0.0,0.0,0.0,1.001,1.0692,1.1348,1.1737,1.1897,1.177,1.167,1.167,1.1403,1.1109,1.0822,1.0528,1.0174,0.9753,0.911,0.8599,0.0,0.0,0.0,0.0,0.0,0.0,0.0,0.0,0.0,0.0,0.0,0.0,0.0,0.0,0.0,0.0,0.0,0.0,0.0,0.0,0.0,0.0,0.0,0.0,0.0,0.0,0.0,0.0,0.5604,0.5456,0.6238,0.5912,0.5672,0.0,0.0,0.0,0.0,0.0,0.0,0.8533,0.8135,0.8132,0.8607,0.8065,0.8091,0.8821,0.8495,0.8804,0.978,0.952,1.0033,1.1242,1.0543,1.1066,1.2464,1.1329,1.1283,1.1842,1.1648,1.1534,1.1411,1.0922,1.0836,1.101,1.143,1.155,1.1605,1.2405,1.2589,1.2371,1.2084,1.1891,1.159,1.0641,0.0,0.0,0.0,0.0,1.0948,1.1333,1.1706,1.2253,1.2909,1.3277,1.3412,1.301,1.2866,1.2392,1.0646,1.0273,1.0017,0.9266,0.9079,0.0,0.9479,0.9951,1.0528,1.1312,1.1726,1.2064,1.2278,1.2104,1.1984,1.1984,1.171,1.1443,1.1229,1.0942,1.0648,1.0354,0.9853,0.9406,0.9038,0.0,0.0,0.0,0.0,0.0,0.0,0.0,0.0,0.0,0.0,0.0,0.0,0.0,0.0,0.0,0.0,0.0,0.0,0.0,0.0,0.0,0.0,0.0,0.0,0.0,0.0,0.0,0.0,0.0,0.6268,0.6954,0.0,0.0,0.0,0.0,0.8159,0.8717,0.9148,0.9324,1.0051,1.0429,1.0282,1.0504,1.1342,1.2767,1.1935,1.1577,1.1871,1.0958,1.0057,0.9254,0.9161,0.9254,0.9347,1.0172,1.0414,1.043,1.137,1.1157,1.0301,1.091,1.0672,0.9995,1.118,1.1585,1.1744,1.2765,1.2986,1.2812,1.3353,1.3146,1.2694,1.2271,1.1784,0.0,0.0,1.1755,1.171,1.2106,1.2693,1.315,1.3432,1.3501,1.3453,1.3247,1.3186,1.2826,1.1597,1.1288,1.1169,1.0575,0.0,1.0575,1.0862,1.1162,1.1476,1.1804,1.2098,1.2285,1.2305,1.2285,1.2278,1.2278,1.2011,1.1837,1.1824,1.1543,1.1249,1.0962,1.0655,1.0221,0.9653,0.8778,0.0,0.0,0.0,0.0,0.0,0.0,0.0,0.0,0.0,0.0,0.0,0.0,0.0,0.0,0.0,0.0,0.0,0.0,0.0,0.0,0.0,0.0,0.0,0.0,0.0,0.0,0.0,0.0,0.6678,0.6831,0.0,0.7805,0.7118,0.7459,0.9428,0.9674,1.0122,1.0936,1.1634,1.2141,1.2215,1.1222,1.0938,1.1472,1.056,1.0102,1.0102,0.9828,0.9647,0.974,0.974,1.0107,1.0653,1.1022,1.1161,1.1338,1.1722,1.1559,1.108,1.133,1.177,1.2181,1.262,1.3182,1.378,1.3946,1.3981,1.3895,1.3921,1.3781,1.3587,1.348,1.3307,1.32,1.3494,1.3375,1.3335,1.3717,1.3802,1.3894,1.4173,1.4085,1.3895,1.3794,1.3774,1.3594,1.2973,1.2538,1.2151,1.175,1.1683,1.1717,1.1817,1.2084,1.2385,1.2692,1.2819,1.2806,1.2605,1.2585,1.2512,1.2318,1.2204,1.1984,1.1603,1.1483,1.1209,1.0735,1.0678,1.0342,0.9693,0.9192,0.845,0.0,0.0,0.0,0.0,0.0,0.0,0.0,0.0,0.0,0.0,0.0,0.0,0.0,0.0,0.0,0.0,0.0,0.0,0.0,0.0,0.0,0.0,0.0,0.0,0.0,0.0,0.656,0.6936,0.7315,0.7778,0.8626,0.7903,0.8462,1.0942,1.0961,1.1171,1.1816,1.2367,1.2387,1.1885,1.0858,1.0481,1.0759,1.0485,1.0116,0.9837,1.0116,1.0211,0.9931,0.9931,1.0306,1.0867,1.0867,1.0918,1.1037,1.1037,1.0949,1.0908,1.154,1.2365,1.3158,1.3534,1.4068,1.4598,1.4681,1.4669,1.4636,1.4442,1.4382,1.4382,1.4382,1.4382,1.4422,1.4515,1.4562,1.433,1.3848,1.4135,1.4386,1.4216,1.4342,1.4382,1.4382,1.4302,1.4175,1.3975,1.3454,1.2875,1.2272,1.2144,1.1986,1.1746,1.1825,1.2089,1.2203,1.2227,1.2153,1.2039,1.1939,1.1814,1.1633,1.1675,1.1558,1.1179,1.1253,1.1062,1.0645,1.0461,1.018,0.9693,0.9292,0.8657,0.7815,0.0,0.0,0.0,0.0,0.0,0.0,0.0,0.0,0.0,0.0,0.0,0.0,0.0,0.0,0.0,0.0,0.0,0.0,0.0,0.0,0.0,0.0,0.0,0.5668,0.6971,0.7762,0.7124,0.8317,0.9248,0.9344,0.9279,1.0138,1.2474,1.2674,1.244,1.1984,1.2199,1.1355,0.9324,0.9529,1.0109,1.117,1.2145,1.2145,1.117,1.2145,1.1565,0.9628,0.9628,0.9628,0.9628,0.9628,0.9527,0.9364,0.9364,0.9456,0.9648,1.1532,1.2288,1.2598,1.3808,1.4016,1.3833,1.4611,1.4887,1.4887,1.4887,1.4894,1.49,1.49,1.49,1.4894,1.4694,1.4894,1.4617,1.2496,1.3543,1.4707,1.3477,1.4038,1.4874,1.4874,1.4648,1.4442,1.4442,1.3977,1.3241,1.2067,1.1858,1.1525,1.0541,1.0455,0.0,1.0455,1.0455,1.0455,1.0444,1.0333,1.0199,1.0183,1.0507,1.0653,1.0635,1.0827,1.0855,1.0568,1.0274,0.998,0.9693,0.9112,0.8677,0.839,0.0,0.0,0.0,0.0,0.0,0.0,0.0,0.0,0.0,0.0,0.0,0.0,0.0,0.0,0.0,0.0,0.0,0.0,0.0,0.0,0.0,0.6317,0.6781,0.6995,0.7458,0.7817,0.7824,0.8464,0.9087,0.978,0.9393,1.0025,1.2259,1.1812,1.1754,1.2427,1.2539,1.2373,1.176,1.1082,1.0881,1.117,1.0694,1.0306,1.0015,1.0306,1.0113,0.9628,0.9628,0.9628,0.9628,0.9628,0.96,0.9551,0.9551,1.0032,1.0687,1.0359,1.077,1.1574,1.193,1.2294,1.2742,1.2961,1.3031,1.3031,1.3031,1.3157,1.3299,1.3299,1.3299,1.34,1.3921,1.4129,1.4034,1.3429,1.277,1.2324,1.2456,1.2612,1.2763,1.2763,1.2711,1.284,1.3554,1.3367,1.3053,1.253,1.2487,1.2146,1.1212,1.1038,1.1038,1.1038,1.1038,1.0974,1.0803,1.0733,1.0557,1.021,1.0133,0.9952,0.9608,0.9795,0.9854,0.9786,1.0021,0.998,0.9693,0.9312,0.8978,0.0,0.0,0.0,0.0,0.0,0.0,0.0,0.0,0.0,0.0,0.0,0.0,0.0,0.0,0.0,0.0,0.0,0.0,0.0,0.0,0.0,0.0,0.6947,0.7557,0.7955,0.8018,0.8123,0.8372,0.8745,0.9194,0.975,0.9552,1.0023,1.1753,1.1284,1.124,1.1848,1.2047,1.1853,1.1272,1.0788,1.0498,1.0498,1.04,1.0015,0.9628,1.0015,1.0015,0.9628,0.9628,0.9628,0.9628,0.9628,0.9628,0.9628,0.9628,1.0015,1.0485,0.0,0.0,0.0,0.0,1.2062,1.2432,1.2432,1.2432,1.2432,1.2432,1.2523,1.2727,1.2727,1.2942,1.3152,1.2942,1.2942,1.2743,1.2145,1.193,1.1818,1.1849,1.2041,1.2234,1.2234,1.2154,1.227,1.2819,1.2706,0.0,1.191,1.1978,1.1757,1.0809,1.0376,1.0207,1.0207,1.0207,1.0077,0.9952,0.9856,0.9663,0.9322,0.9319,0.0,0.0,0.0,0.9035,0.9136,0.9344,0.0,0.0,0.0,0.0,0.0,0.0,0.0,0.0,0.9112,0.9098,0.0,0.0,0.0,0.0,0.0,0.0,0.0,0.0,0.0,0.0,0.0,0.0,0.0,0.0,0.0,0.0,0.7663,0.8206,0.8564,0.8661,0.8681,0.8796,0.918,0.9384,0.9384,0.9535,1.0015,1.1077,1.1077,1.0979,1.0881,1.0979,0.0,0.0,0.0,0.9628,0.9628,1.0493,1.0498,0.9628,1.0596,1.0498,0.9628,0.9628,0.9628,0.9628,0.9628,0.9628,0.9628,0.9628,0.9628,0.9723,1.069,1.156,1.2344,1.2344,1.2344,1.2344,1.2344,0.0,0.0,1.2344,1.2344,1.2344,1.2344,1.2764,1.3077,1.1818,1.1507,1.121,0.993,1.0937,1.2145,1.1272,1.1658,1.2344,1.2344,1.2182,1.2041,1.2136,1.1952,1.1518,1.0784,1.0969,1.0845,0.9892,0.9099,0.8568,0.8568,0.8568,0.8568,0.8568,0.8422,0.0,0.8061,0.8282,0.8362,0.8222,0.826,0.8419,0.8705,0.8771,0.9246,1.0207,1.0281,1.0555,1.1042,1.1109,1.1289,1.1543,1.0174,0.996,0.0,0.0,0.0,0.0,0.0,0.0,0.0,0.0,0.0,0.0,0.0,0.0,0.0,0.0,0.0,0.7623,0.8197,0.875,0.9202,0.9222,0.9226,0.9295,0.9466,0.9575,0.9575,0.9608,1.0015,1.1077,1.04,1.0306,1.1072,1.0301,0.9821,0.9529,0.9529,0.9628,0.9628,0.9821,0.9821,0.9628,0.9821,0.0,0.9628,0.9628,0.9628,0.9628,0.9628,0.9628,0.9628,0.9628,0.9628,0.9628,0.9821,1.0015,1.0212,1.0212,1.0212,1.0212,1.0212,1.0212,1.0212,1.0212,1.0212,1.0212,1.0212,1.0314,0.0,1.0109,1.0006,0.9908,0.9706,0.9908,1.0113,0.9916,1.0015,1.0212,1.0212,1.0181,1.0347,1.121,1.1135,1.1179,1.1843,1.1101,1.0098,0.9123,0.8742,0.8568,0.8568,0.8568,0.8568,0.8568,0.8536,0.8438,0.8251,0.8115,0.7932,0.7681,0.792,0.8523,0.9515,0.9765,1.0201,1.0828,1.1289,1.147,1.1343,1.1817,1.2204,1.2546,1.171,1.1456,0.0,0.0,0.0,0.0,0.0,0.0,0.0,0.0,0.0,0.0,0.0,0.6455,0.6691,0.0,0.7967,0.8412,0.8857,0.9181,0.9453,0.949,0.949,0.949,0.9571,0.9628,0.9628,0.9628,0.9821,1.04,0.992,0.9821,1.04,0.992,0.9628,0.9628,0.9628,0.9628,0.9628,0.9628,0.9628,0.9628,0.9628,0.9628,0.9628,0.9628,0.9628,0.9628,0.9628,0.9628,0.9628,0.9628,0.9628,0.9628,0.9628,0.9628,0.9628,0.9628,0.9628,0.9628,0.9628,0.9628,0.9628,0.9628,0.9628,0.9628,0.9628,0.9628,0.9628,0.9628,0.9628,0.9628,0.9628,0.9628,0.9628,0.9628,0.9628,0.9628,0.9628,0.9628,0.9723,1.0306,1.0227,1.0351,1.0835,1.0297,0.9789,0.9697,0.9075,0.8694,0.8694,0.8621,0.8568,0.8568,0.8568,0.8491,0.8304,0.8117,0.7902,0.7638,0.7833,0.8305,0.9098,0.9702,1.0419,1.1215,1.1932,1.2311,1.2318,1.2612,1.2906,1.3186,1.2893,1.2679,0.0,0.0,0.0,0.0,0.0,0.0,0.0,0.0,0.5989,0.6325,0.6818,0.7309,0.7659,0.8078,0.8545,0.9076,0.9295,0.9458,0.9608,0.9628,0.9628,0.9628,0.9628,0.9628,0.9628,0.9628,0.9628,0.9628,0.9628,0.9628,0.9628,0.9628,0.9628,0.9628,0.9628,0.9628,0.9628,0.9661,0.9661,0.9628,0.9661,0.9661,0.9628,0.9628,0.9628,0.9628,0.9628,0.9628,0.9628,0.9628,0.9628,0.9628,0.9628,0.9628,0.9628,0.9628,0.9628,0.9628,0.9628,0.9628,0.9628,0.9628,0.9628,0.9628,0.9628,0.9628,0.9628,0.9628,0.9628,0.9628,0.9628,0.9628,0.9628,0.9628,0.9628,0.9628,0.9628,0.9628,0.9628,0.9628,0.9628,0.9628,0.9628,0.9506,0.9631,1.0193,0.9443,0.8873,0.8873,0.8723,0.8617,0.8617,0.8584,0.8507,0.8357,0.8174,0.8008,0.7874,0.7829,0.8057,0.8585,0.9346,1.0275,1.1492,1.226,1.2883,1.3293,1.3353,1.35,1.3728,1.3728,1.3607,0.445,0.4535,0.4784,0.5189,0.5502,0.5879,0.0,0.0,0.7352,0.7687,0.8213,0.8565,0.8605,0.8995,0.9254,0.9315,0.9478,0.9604,0.9624,0.9628,0.9628,0.9628,0.9628,0.9628,0.9628,0.9628,0.9628,0.9628,0.9628,0.9628,0.9628,0.9628,0.9628,0.9628,0.9628,0.9628,0.9628,0.9778,0.9778,0.9628,0.9782,0.9774,0.9628,0.9628,0.9628,0.9628,0.9628,0.9628,0.9628,0.9628,0.9628,0.9628,0.9628,0.9628,0.9628,0.9628,0.9628,0.9628,0.9628,0.9628,0.9628,0.9628,0.9628,0.9628,0.9628,0.9628,0.9628,0.9628,0.9628,0.9628,0.9628,0.9628,0.9628,0.9628,0.9628,0.9628,0.9628,0.9628,0.9628,0.9628,0.9628,0.9628,0.9628,0.9612,0.9535,0.9544,0.9272,0.9064,0.9064,0.8905,0.8792,0.8792,0.8658,0.856,0.8536,0.8365,0.8251,0.8231,0.8077,0.8298,0.9085,0.9247,1.0064,1.1706,1.2182,1.2732,1.3594,1.3861,1.4008,1.4041,1.4041,1.4021,0.5057,0.5296,0.0,0.0,0.6287,0.6802,0.7277,0.7663,0.8037,0.8372,0.8794,0.9129,0.9129,0.934,0.9514,0.0,0.9575,0.9628,0.9628,0.9628,0.9628,0.9628,0.9628,0.9628,0.9628,0.9628,0.9628,0.9628,0.9628,0.9628,0.9628,0.9628,0.9628,0.9628,0.9726,0.9778,0.9778,0.9957,1.001,0.9941,1.0014,0.9949,0.9778,0.9778,0.9721,0.9628,0.9628,0.9628,0.9628,0.9628,0.9628,0.9628,0.9628,0.9628,0.9628,0.9628,0.9628,0.9628,0.9628,0.9628,0.9628,0.9628,0.9628,0.9628,0.9628,0.9628,0.9628,0.9628,0.9628,0.9628,0.9628,0.9628,0.9628,0.9628,0.9628,0.9628,0.9628,0.9628,0.9628,0.9628,0.9628,0.9628,0.9628,0.9628,0.9604,0.9527,0.936,0.9246,0.9246,0.9092,0.8982,0.8982,0.882,0.8714,0.8714,0.8552,0.845,0.845,0.8377,0.8508,0.8845,0.9347,0.9936,1.0695,1.1382,1.1929,1.241,1.2608,1.3006,1.3693,1.3693,1.405,0.5496,0.0,0.0,0.6508,0.7188,0.7735,0.7816,0.8249,0.8631,0.8942,0.9214,0.9429,0.9429,0.9539,0.9628,0.9628,0.9628,0.9628,0.9628,0.9628,0.9628,0.9628,0.9628,0.9628,0.9628,0.9628,0.9628,0.9628,0.9628,0.9628,0.9628,0.9628,0.9648,0.9697,0.9819,0.9908,0.9961,1.0144,1.0213,1.016,1.0213,1.014,0.9961,0.9961,0.9864,0.9697,0.9697,0.9673,0.9628,0.9628,0.9628,0.9628,0.9628,0.9628,0.9628,0.9628,0.9628,0.9628,0.9628,0.9628,0.9628,0.9628,0.9628,0.9628,0.9628,0.9628,0.9628,0.9628,0.9628,0.9628,0.9628,0.9628,0.9628,0.9628,0.9628,0.9628,0.9628,0.9628,0.9628,0.9628,0.9628,0.9628,0.9628,0.9628,0.9628,0.9628,0.9514,0.9429,0.9429,0.9275,0.9153,0.91,0.8978,0.8897,0.8897,0.8783,0.8694,0.8641,0.8637,0.8617,0.8568,0.917,0.9712,0.9939,1.0634,1.118,1.1679,1.1679,1.2125,1.3024,1.3024,1.3435,0.0,0.0,0.6783,0.7352,0.805,0.8593,0.8751,0.9072,0.9332,0.9336,0.949,0.962,0.962,0.9624,0.9628,0.9628,0.9628,0.9628,0.9628,0.9628,0.9628,0.9628,0.9628,0.9628,0.0,0.9628,0.9628,0.9628,0.9628,0.9628,0.9628,0.9628,0.9705,0.9872,0.9884,0.9973,1.0152,1.0335,1.0339,1.0164,1.0343,1.0331,1.0152,1.0152,1.0054,0.9876,0.9876,0.9782,0.9628,0.9628,0.9628,0.9628,0.9628,0.9628,0.9628,0.9628,0.9628,0.9628,0.9628,0.9628,0.9628,0.9628,0.9628,0.9628,0.9628,0.9628,0.9628,0.9628,0.9628,0.9628,0.9628,0.9628,0.9628,0.9628,0.9628,0.9628,0.9628,0.9628,0.9628,0.9628,0.9628,0.9628,0.9628,0.9628,0.9628,0.9628,0.9624,0.962,0.962,0.9458,0.9283,0.9116,0.9092,0.9088,0.9088,0.9084,0.9003,0.8824,0.8812,0.8739,0.8572,0.8656,0.9168,1.014,1.0234,1.079,1.193,1.193,1.1935,1.1941,1.1941,1.2063,0.0,0.0,0.7501,0.795,0.8605,0.9104,0.9161,0.936,0.9535,0.9535,0.949,0.9445,0.9445,0.9445,0.9445,0.9445,0.9547,0.9628,0.9628,0.9628,0.9628,0.9628,0.9628,0.0,0.0,0.0,0.0,0.9628,0.9628,0.9677,0.9791,0.9799,0.9884,1.0063,1.0184,1.0282,1.0343,1.0517,1.0574,1.0513,1.0461,1.0404,1.0339,1.0217,1.0128,1.0063,0.9937,0.9851,0.9786,0.9673,0.9628,0.9628,0.9628,0.9628,0.9628,0.9628,0.9628,0.9628,0.9628,0.9628,0.9628,0.9628,0.9628,0.9628,0.9628,0.9628,0.9628,0.9628,0.9628,0.9628,0.9628,0.9628,0.9628,0.9628,0.9628,0.9628,0.9628,0.9628,0.9628,0.9628,0.9628,0.9628,0.9628,0.9628,0.9628,0.9628,0.9628,0.9628,0.9628,0.9571,0.9514,0.9458,0.934,0.9271,0.9271,0.9165,0.9072,0.9007,0.9003,0.8942,0.8894,0.8968,0.9088,0.9423,0.9505,0.9736,1.0207,1.0207,1.0645,1.1446,1.1446,1.1864,0.6865,0.7565,0.8123,0.858,0.9064,0.9449,0.9449,0.9543,0.9608,0.9543,0.9388,0.9242,0.9173,0.9112,0.9112,0.9242,0.936,0.9482,0.9612,0.9628,0.9628,0.9628,0.9628,0.9628,0.0,0.0,0.0,0.9628,0.9628,0.9701,0.9876,0.9884,0.9998,1.0253,1.0375,1.0465,1.0526,1.0635,1.0692,1.0688,1.0582,1.0526,1.0521,1.0404,1.0318,1.0253,1.0132,1.0006,0.9876,0.9766,0.9685,0.9628,0.9628,0.9628,0.9628,0.9628,0.9628,0.9628,0.9628,0.9628,0.9628,0.9628,0.9628,0.9628,0.9628,0.9628,0.9628,0.9628,0.9628,0.9628,0.9628,0.9628,0.9628,0.9628,0.9628,0.9628,0.9628,0.9628,0.9628,0.9628,0.9628,0.9628,0.9628,0.9628,0.9628,0.9628,0.9628,0.9628,0.9628,0.9628,0.9628,0.9628,0.9522,0.9449,0.9449,0.9352,0.9259,0.9194,0.919,0.9222,0.9079,0.9418,0.9545,0.9258,0.952,0.9651,0.9449,0.9449,0.9896,1.0592,1.0592,1.0984,0.756,0.8102,0.8507,0.9185,0.9494,0.9628,0.9628,0.9612,0.9547,0.9364,0.9173,0.8986,0.88,0.0,0.8666,0.9015,0.9092,0.923,0.9579,0.9628,0.9628,0.0,0.0,0.0,0.0,0.0,0.0,0.964,0.0,0.9713,0.9888,0.9908,1.0079,1.0436,1.0448,1.0526,1.0688,1.0692,1.0692,1.0692,1.0692,1.0692,1.0692,1.0692,1.0603,1.0448,1.044,1.0237,0.9912,0.9892,0.9786,0.964,0.9632,0.9628,0.9628,0.9628,0.9628,0.9628,0.9628,0.9628,0.9628,0.9628,0.9628,0.9628,0.9628,0.9628,0.9628,0.9628,0.9628,0.9628,0.9628,0.9628,0.9628,0.9628,0.9628,0.9628,0.9628,0.9628,0.9628,0.9628,0.9628,0.9628,0.9628,0.9628,0.9628,0.9628,0.9628,0.9628,0.9628,0.9628,0.9628,0.9628,0.9628,0.9628,0.9628,0.9628,0.9555,0.938,0.9368,0.9295,0.9133,1.0036,1.0215,0.946,1.0318,1.0412,0.9628,0.9628,0.9628,0.9628,0.9628,0.9628,0.8002,0.8645,0.9129,0.9311,0.9494,0.9628,0.9628,0.9421,0.9181,0.8995,0.8601,0.8235,0.8065,0.8211,0.0,0.8666,0.9031,0.0,0.9596,0.9628,0.0,0.9628,0.0,0.9628,0.9628,0.9628,0.0,0.0,0.9819,0.99,1.0079,1.0221,1.0396,1.0619,1.0627,1.0647,1.0692,1.0692,1.0692,1.0692,1.0692,1.0692,1.0692,1.0692,1.0668,1.0619,1.0489,1.0383,1.0274,0.9998,0.986,0.9807,0.9677,0.9628,0.9628,0.9628,0.9628,0.9628,0.9628,0.9628,0.9628,0.9628,0.9628,0.9628,0.9628,0.9628,0.9628,0.9628,0.9628,0.9628,0.9628,0.9628,0.9628,0.9628,0.9628,0.9628,0.9628,0.9628,0.9628,0.9628,0.9628,0.9628,0.9628,0.9628,0.9628,0.9628,0.9628,0.9628,0.9628,0.9628,0.9628,0.9628,0.9628,0.9628,0.9628,0.9628,0.9608,0.9559,0.9559,0.9539,0.9494,0.9681,0.9799,0.9555,0.9849,0.9776,0.9628,0.9628,0.9628,0.9628,0.9628,1.0015,0.8617,0.9051,0.9372,0.9453,0.949,0.9466,0.9307,0.906,0.8747,0.8321,0.7992,0.0,0.7346,0.7638,0.0,0.0,0.0,0.0,0.9579,0.9628,0.9628,0.0,0.9628,0.0,0.9628,0.9697,0.9778,0.0,0.9884,1.0002,1.0266,1.0379,1.0513,1.0684,1.0692,1.0692,1.0692,1.0692,1.0692,1.0692,1.0692,1.0692,1.0692,1.0692,1.0692,1.0684,1.059,1.0505,1.0412,1.0123,0.9961,0.9868,0.9693,0.9628,0.9628,0.9628,0.9628,0.9628,0.9628,0.9628,0.9628,0.9628,0.9628,0.9628,0.9628,0.9628,0.9628,0.9628,0.9628,0.9628,0.9628,0.9628,0.9628,0.9628,0.9628,0.9628,0.9628,0.9628,0.9628,0.9628,0.9628,0.9628,0.9628,0.9628,0.9628,0.9628,0.9628,0.9628,0.9628,0.9628,0.9628,0.9628,0.9628,0.9628,0.9628,0.9628,0.9628,0.9628,0.9628,0.9628,0.9628,1.0015,1.0113,0.9628,1.0015,1.0109,0.9628,0.9628,0.9817,1.0301,0.9821,1.0207,0.9173,0.9372,0.9429,0.9587,0.9474,0.9234,0.8897,0.8617,0.8231,0.7553,0.0,0.7155,0.6664,0.7013,0.7508,0.7914,0.0,0.8982,0.9551,0.9628,0.9628,0.9628,0.9628,0.9636,0.9661,0.9799,0.9904,0.9953,0.9957,1.0095,1.0416,1.0456,1.0538,1.0688,1.0692,1.0692,1.0692,1.0692,1.0692,1.0692,1.0692,1.0692,1.0692,1.0692,1.0692,1.0692,1.0692,1.0607,1.0452,1.0245,1.0067,0.99,0.9705,0.9628,0.9628,0.9628,0.9628,0.9628,0.9628,0.9628,0.9628,0.9628,0.9628,0.9628,0.9628,0.9628,0.9628,0.9628,0.9628,0.9628,0.9628,0.9628,0.9628,0.9628,0.9628,0.9628,0.9628,0.9628,0.9628,0.9628,0.9628,0.9628,0.9628,0.9628,0.9628,0.9628,0.9628,0.9628,0.9628,0.9628,0.9628,0.9628,0.9628,0.9628,0.9628,0.9628,0.9628,0.9731,0.9731,0.9731,0.9731,1.0699,1.0694,0.9628,1.0596,1.0596,0.9628,0.9628,1.0113,1.0979,1.0015,1.0207,0.9242,0.9466,0.9587,0.962,0.938,0.9084,0.8869,0.8223,0.0,0.0,0.6757,0.6367,0.6071,0.6465,0.7045,0.7699,0.0,0.0,0.0,0.0,0.9628,0.0,0.0,0.0,0.9827,0.9868,0.0,0.0,1.0339,1.0367,1.0432,1.057,1.0664,1.0692,1.0692,1.0692,1.0692,1.0692,1.0692,1.0692,1.0692,1.0692,1.0692,1.0692,1.0692,1.0692,1.0692,1.0676,1.0623,1.0294,1.0144,1.0079,0.9754,0.9628,0.9628,0.9628,0.9628,0.9628,0.9628,0.9628,0.9628,0.9628,0.9628,0.9628,0.9628,0.9628,0.9628,0.9628,0.9628,0.9628,0.9628,0.9628,0.9628,0.9628,0.9628,0.9628,0.9628,0.9628,0.9628,0.9628,0.9628,0.9628,0.9628,0.9628,0.9628,0.9628,0.9628,0.9628,0.9628,0.9628,0.9628,0.9628,0.9628,0.9628,0.9628,0.9628,0.9834,1.025,1.025,1.025,1.025,1.0824,1.0717,0.9628,1.0212,1.0212,0.9628,0.9628,0.9723,0.9916,0.9723,1.0596,0.9283,0.949,0.9604,0.951,0.9218,0.8808,0.8251,0.0,0.0,0.0,0.6124,0.5929,0.5661,0.0,0.0,0.0,0.0,0.0,0.0,0.0,0.0,0.0,0.0,0.0,0.0,0.992,1.0103,1.0278,1.0465,1.0566,1.0566,1.0647,1.0692,1.0692,1.0692,1.0692,1.0692,1.0692,1.0692,1.0692,1.0692,1.0692,1.0692,1.0692,1.0692,1.0692,1.0692,1.0692,1.0664,1.031,1.016,1.0128,0.9766,0.9628,0.9628,0.9628,0.9628,0.9628,0.9628,0.9628,0.9628,0.9628,0.9628,0.9628,0.9628,0.9628,0.9628,0.9628,0.9628,0.9628,0.9628,0.9628,0.9628,0.9628,0.9628,0.9628,0.9628,0.9628,0.9628,0.9628,0.9628,0.9628,0.9628,0.9628,0.9628,0.9628,0.9821,1.0019,1.0019,1.0216,1.0216,0.9628,0.9628,0.9628,0.9628,1.0207,1.0614,1.0452,1.1021,1.1203,1.0815,1.111,1.1007,1.0413,1.0708,1.0708,1.0413,1.0413,1.0895,1.1863,1.1277,1.2047,0.9287,0.9458,0.9535,0.9388,0.906,0.854,0.7679,0.7151,0.0,0.0,0.5697,0.5689,0.5349,0.0,0.6339,0.0,0.0,0.0,0.0,0.0,0.0,0.0,0.0,0.0,0.9681,0.9973,0.0,1.0217,1.0513,1.0692,1.0692,1.0692,1.0692,1.0692,1.0692,1.0692,1.0692,1.0692,1.0692,1.0692,1.0692,1.0692,1.0692,1.0692,1.0692,1.0692,1.0692,1.0672,1.0611,1.0294,1.014,1.0071,0.975,0.9628,0.9628,0.9628,0.9628,0.9628,0.9628,0.9628,0.9628,0.9628,0.9628,0.9628,0.9628,0.9628,0.9628,0.9628,0.9628,0.9628,0.9628,0.9628,0.9628,0.9723,0.9727,0.9628,0.9924,0.9826,0.9826,0.992,0.992,0.992,0.992,0.992,0.992,0.992,1.0408,1.0797,1.0797,1.1189,1.1189,1.0502,1.0113,0.992,0.992,1.1082,1.1575,1.1016,1.2073,1.2355,1.1668,1.1673,1.158,1.1194,1.1292,1.1389,1.1482,1.1482,1.2257,1.38,1.292,1.3397,0.9222,0.9368,0.9376,0.936,0.897,0.8398,0.7655,0.0,0.0,0.573,0.5442,0.5337,0.5305,0.5478,0.5904,0.6566,0.0,0.7618,0.0,0.0,0.0,0.0,0.0,0.0,0.9847,1.0046,1.0233,1.0396,1.0586,1.0692,1.0692,1.0692,1.0692,1.0692,1.0692,1.0692,1.0692,1.0692,1.0692,1.0692,1.0692,1.0692,1.0692,1.0692,1.0692,1.0692,1.0692,1.0603,1.0444,1.0245,1.0063,0.9892,0.9701,0.9628,0.9628,0.9628,0.9628,0.9628,0.9628,0.9628,0.9628,0.9628,0.9628,0.9628,0.9628,0.9628,0.9628,0.9628,0.9628,0.9628,0.9628,0.9628,0.9727,1.0216,0.992,0.9821,1.0801,1.0703,1.0511,1.0998,1.1096,1.1096,1.1096,1.1096,1.1096,1.1096,1.1668,1.2145,1.2145,1.2145,1.2431,1.3097,1.1863,1.1096,1.1096,1.1765,1.2425,1.2785,1.3624,1.3761,1.2975,1.342,1.292,1.1194,1.1683,1.2068,1.2242,1.2242,1.2624,1.3488,1.3488,1.3974,0.8792,0.9035,0.9173,0.9064,0.8629,0.8044,0.733,0.0,0.6037,0.5506,0.5345,0.5297,0.5297,0.5353,0.562,0.612,0.6327,0.6757,0.7724,0.0,0.0,0.0,0.0,0.0,0.0,0.0,1.0119,1.0412,1.0595,1.0692,1.0692,1.0692,1.0692,1.0692,1.0692,1.0692,1.0692,1.0692,1.0692,1.0692,1.0692,1.0692,1.0692,1.0692,1.0635,1.0538,1.0538,1.0436,1.0257,1.0071,0.9949,0.9868,0.9693,0.9628,0.9628,0.9628,0.9628,0.9628,0.9628,0.9628,0.9628,0.9628,0.9628,0.9628,0.9628,0.9628,0.9628,0.9628,0.9628,0.9628,1.0019,1.0314,1.0609,1.0801,1.0703,1.0703,1.1096,1.0998,1.09,1.1194,1.1194,1.1194,1.1194,1.1194,1.1389,1.1765,1.2344,1.292,1.3397,1.3788,1.4082,1.4465,1.2543,1.158,1.2533,1.3113,1.3596,1.38,1.4873,1.5121,1.4355,1.4524,1.4274,1.3607,1.3806,1.3896,1.3986,1.3986,1.4172,1.4465,1.4937,1.5324,0.8394,0.871,0.8909,0.8779,0.8377,0.7813,0.0,0.6493,0.5932,0.5406,0.5297,0.5297,0.5297,0.5297,0.5398,0.5754,0.5892,0.6258,0.7106,0.7419,0.0,0.0,0.0,0.9137,0.0,0.9721,1.0038,1.0408,1.0546,1.0639,1.0688,1.0692,1.0692,1.0692,1.0692,1.0692,1.0692,1.0692,1.0692,1.0692,1.0692,1.0692,1.0692,1.0692,1.0599,1.0436,1.0436,1.0298,1.0071,0.9937,0.9855,0.9799,0.9673,0.9727,0.9821,0.9821,0.992,0.9916,1.0019,1.0122,1.022,1.0117,1.0117,1.0117,1.0117,0.992,0.9821,1.0019,1.0117,1.0117,1.0511,1.09,1.1194,1.1389,1.1292,1.1292,1.1585,1.1678,1.1775,1.197,1.216,1.2355,1.2355,1.216,1.2257,1.3017,1.3409,1.3986,1.4752,1.5235,1.5527,1.5717,1.3698,1.2829,1.3878,1.4555,1.4867,1.4821,1.5933,1.6216,1.5504,1.5448,1.5337,1.5051,1.5051,1.5242,1.5432,1.5432,1.5527,1.5717,1.6285,1.6567,0.8101,0.843,0.8572,0.8568,0.8292,0.778,0.0,0.64,0.5932,0.5406,0.5297,0.5297,0.5297,0.5297,0.5357,0.5584,0.5908,0.6326,0.7123,0.7533,0.0,0.0,0.0,0.8897,0.9084,0.9575,1.0038,1.0408,1.0436,0.0,1.0684,1.0692,1.0692,1.0692,1.0692,1.0692,1.0692,1.0692,1.0692,1.0692,1.0692,1.0692,1.0692,1.0692,1.0599,1.0436,1.0436,1.0229,0.9888,0.9884,0.9782,0.9628,0.9628,0.992,1.0413,1.0413,1.0498,1.0779,1.1091,1.1404,1.1614,1.1296,1.1194,1.1194,1.1194,1.0806,1.0507,1.0998,1.1194,1.1194,1.1194,1.1194,1.1292,1.1878,1.1585,1.1487,1.2565,1.2942,1.3221,1.3806,1.4478,1.5051,1.5051,1.4382,1.4094,1.4956,1.5051,1.5337,1.6096,1.619,1.6473,1.7232,1.5906,1.5051,1.5051,1.5717,1.613,1.6218,1.6907,1.7001,1.6248,1.6142,1.5812,1.5146,1.5051,1.5432,1.619,1.619,1.6567,1.7232,1.7232,1.7326,0.7102,0.733,0.754,0.754,0.7192,0.6818,0.6474,0.6034,0.5697,0.5357,0.5297,0.5297,0.5297,0.5297,0.5474,0.6075,0.6258,0.0,0.0,0.0,0.0,0.0,0.0,0.9397,0.0,0.0,0.9933,1.005,1.0176,1.027,1.0327,1.0331,1.044,1.0684,1.0692,1.0692,1.0692,1.0692,1.0692,1.0692,1.0692,1.0911,1.1345,1.1108,1.1163,1.139,1.1259,1.1047,1.0798,1.0798,1.0762,1.0708,1.0708,1.0801,1.0998,1.0998,1.11,1.1399,1.1198,1.1404,1.1614,1.1301,1.1194,1.1292,1.1683,1.1389,1.0998,1.1194,1.1487,1.178,1.178,1.198,1.2462,1.3136,1.313,1.3323,1.419,1.4382,1.4472,1.4669,1.4956,1.5051,1.5051,1.486,1.4956,1.5717,1.5812,1.6096,1.6857,1.6951,1.7044,1.7232,1.6857,1.6567,1.6567,1.6312,1.6427,1.6899,1.7153,1.7217,1.7001,1.6936,1.6857,1.6567,1.6567,1.6756,1.6951,1.6951,1.7044,1.7326,1.6763,1.6857,0.0,0.6664,0.6917,0.6917,0.6631,0.6351,0.6107,0.5823,0.5563,0.5333,0.5297,0.5297,0.5297,0.5297,0.5462,0.603,0.6172,0.6428,0.0,0.0,0.0,0.0,0.0,0.0,0.0,0.988,1.0117,1.0188,1.051,1.0712,1.0776,1.0573,1.0573,1.0803,1.0597,1.0493,1.0493,1.0558,1.0699,1.0912,1.0916,1.1242,1.1774,1.1469,1.1485,1.1699,1.1572,1.1397,0.0,1.1194,1.1194,1.1194,1.1194,1.1292,1.1487,1.1487,1.179,1.2093,1.1888,1.1986,1.2093,1.1883,1.1785,1.1878,1.2175,1.2078,1.1785,1.1785,1.2078,1.237,1.2657,1.2948,1.3335,1.3811,1.4094,1.4382,1.4573,1.5146,1.5527,1.5527,1.5717,1.5906,1.5906,1.5717,1.5812,1.6473,1.6379,1.6473,1.7232,1.7326,1.7326,1.7326,1.7326,1.7326,1.7326,1.6878,1.6791,1.7239,1.7326,1.7326,1.7326,1.7326,1.7326,1.7326,1.7326,1.7326,1.7326,1.7326,1.7326,1.7326,1.6857,1.6857,0.0,0.6278,0.6546,0.6558,0.644,0.6241,0.5921,0.5718,0.0,0.5329,0.5297,0.5305,0.5313,0.5309,0.5369,0.5653,0.5831,0.6197,0.0,0.786,0.0,0.0,0.9397,0.0,0.9548,1.0108,1.0487,1.0676,1.1194,1.1572,1.1653,1.1151,1.0944,1.0944,1.0534,1.024,1.0264,1.0437,1.0728,1.1354,1.1256,1.1575,1.2087,1.1883,1.169,1.1616,1.1601,1.1482,1.1292,1.1292,1.1292,1.1292,1.1292,1.159,1.2078,1.2078,1.237,1.2764,1.2764,1.2764,1.2764,1.2764,1.2764,1.2764,1.2764,1.2764,1.2764,1.2764,1.2861,1.305,1.3715,1.3908,1.4004,1.4094,1.4669,1.4956,1.4286,1.5235,1.6285,1.6285,1.6857,1.7326,1.7326,1.6763,1.6473,1.7232,1.6756,1.6567,1.7232,1.7326,1.7326,1.7326,1.7326,1.7326,1.7326,1.7326,1.7326,1.7326,1.7326,1.7326,1.7326,1.7326,1.7326,1.7326,1.7326,1.7326,1.7326,1.7326,1.7326,1.7326,1.7326,1.7326,0.4815,0.0,0.5279,0.5421,0.5425,0.5409,0.0,0.539,0.5349,0.5309,0.0,0.5337,0.5527,0.5386,0.553,0.631,0.6469,0.6892,0.7999,0.0,0.0,1.0696,1.0729,1.0683,1.0728,1.0872,1.1021,1.1072,1.1171,1.1293,1.134,1.1241,1.1141,1.1141,1.1042,1.0891,1.0776,1.1136,1.1472,1.1571,1.1571,1.1888,1.2501,1.2186,1.236,1.2699,1.2527,1.2422,1.2467,1.2467,1.2467,1.2467,1.2467,1.2467,1.257,1.257,1.2667,1.2764,1.2764,1.2764,1.2764,1.2764,1.2764,1.2764,1.2764,1.2764,1.2764,1.2764,1.3238,1.3715,1.3908,1.4382,1.4956,1.5527,1.5812,1.6001,1.6379,1.6756,1.7044,1.7044,1.7138,1.7326,1.7326,1.7138,1.7138,1.7232,1.7138,1.7138,1.7232,1.7326,1.7326,1.7326,1.7326,1.7326,1.7326,1.7326,1.7326,1.7326,1.7326,1.7326,1.7326,1.7326,1.7326,1.7326,1.7326,1.7326,1.7326,1.7326,1.7326,1.7326,1.7326,1.7326,0.469,0.4814,0.4954,0.5056,0.5145,0.523,0.5277,0.0,0.0,0.0,0.0,0.5495,0.5474,0.5707,0.6035,0.6392,0.6911,0.0,0.0,0.0,0.0,1.1132,1.1194,1.1194,0.0,1.1389,1.159,1.159,1.1785,1.1883,1.1883,1.1683,1.159,1.159,1.159,1.1401,1.1024,1.1425,1.1773,1.1972,1.1977,1.2283,1.2786,1.2563,1.2657,1.2942,1.2818,1.2764,1.2764,1.2764,1.2764,1.2764,1.2764,1.2764,1.2764,1.2764,1.2764,1.2764,1.2764,1.2764,1.2764,1.2764,1.305,1.3335,1.3335,1.3528,1.3817,1.3431,1.3619,1.4094,1.4765,1.5242,1.5717,1.6096,1.6473,1.6756,1.6763,1.7044,1.7326,1.7326,1.7326,1.7326,1.7326,1.7326,1.7326,1.7326,1.7326,1.7326,1.7326,1.7326,1.7326,1.7326,1.7326,1.7326,1.7326,1.7326,1.7326,1.7326,1.7326,1.7326,1.7326,1.7326,1.7326,1.7326,1.7326,1.7326,1.7326,1.7326,1.7326,1.7326,1.7326,1.7326,0.4916,0.5209,0.5328,0.5095,0.5177,0.5265,0.5293,0.0,0.0,0.0,0.0,0.0,0.0,0.6124,0.0,0.0,0.0,0.0,1.0029,1.029,1.058,1.1346,1.1487,0.0,1.1487,1.1883,1.2078,1.2078,1.2565,1.2764,1.2764,1.237,1.2078,1.2078,1.2078,1.1878,1.1487,1.1577,1.1964,1.2353,1.2358,1.2563,1.3044,1.285,1.2764,1.2764,1.2764,1.2764,1.2764,1.2764,1.2764,1.2764,1.2764,1.2764,1.2764,1.2764,1.2764,1.2764,1.2764,1.2856,1.2953,1.2953,1.3431,1.4094,1.4094,1.4573,1.4956,1.4382,1.4286,1.4567,1.5906,1.6285,1.6379,1.6379,1.6857,1.7138,1.6473,1.6857,1.7326,1.7326,1.7326,1.7326,1.7326,1.7326,1.7326,1.7326,1.7326,1.7326,1.7326,1.7326,1.7326,1.7326,1.7326,1.7326,1.7326,1.7326,1.7326,1.7326,1.7326,1.7326,1.7326,1.7326,1.7326,1.7326,1.7326,1.7326,1.7326,1.7326,1.7326,1.7326,1.7326,1.7326,0.5229,0.594,0.6462,0.5181,0.4987,0.5161,0.5265,0.0,0.0,0.0,0.0,0.0,0.0,0.6707,0.7107,0.0,0.0,1.0381,0.0,0.0,1.2173,1.2533,0.0,1.2565,1.2565,1.2662,1.2667,1.2667,1.2764,1.2764,1.2764,1.2764,1.2667,1.2667,1.2667,1.2662,1.2565,1.2602,1.2623,1.2715,1.2721,1.2721,1.2813,1.278,1.2764,1.2764,1.2764,1.2764,1.2764,1.2764,1.2764,1.2764,1.2764,1.2764,1.2764,1.2764,1.2764,1.2764,1.2764,1.3238,1.3715,1.3715,1.4286,1.4956,1.4956,1.4956,1.5242,1.5717,1.5812,1.5906,1.6096,1.6662,1.7138,1.7138,1.7232,1.7232,1.7138,1.7232,1.7326,1.7326,1.7326,1.7326,1.7326,1.7326,1.7326,1.7326,1.7326,1.7326,1.7326,1.7326,1.7326,1.7326,1.7326,1.7326,1.7326,1.7326,1.7326,1.7326,1.7326,1.7326,1.7326,1.7326,1.7326,1.7326,1.7326,1.7326,1.7326,1.7326,1.7326,1.7326,1.7326,1.7326,0.5787,0.6258,0.663,0.6147,0.6294,0.6407,0.6061,0.0,0.0,0.0,0.0,0.0,0.0,0.0,0.8687,0.959,0.0,1.0644,1.195,1.2047,1.2294,0.0,0.0,1.2764,1.2764,1.2764,1.2764,1.2764,1.2764,1.2764,1.2764,1.2764,1.2764,1.2764,1.2764,1.2764,1.2764,1.2764,1.2764,1.2764,1.2764,1.2764,1.2764,1.2764,1.2764,1.2764,1.2764,1.2764,1.2764,1.2764,1.2764,1.2861,1.3238,1.3431,1.3431,1.3908,1.4004,1.4004,1.4004,1.4292,1.4573,1.4573,1.5051,1.5717,1.5717,1.6001,1.6379,1.6669,1.6473,1.6285,1.6662,1.7044,1.7326,1.7326,1.7326,1.7326,1.7326,1.7326,1.7326,1.7326,1.7326,1.7326,1.7326,1.7326,1.7326,1.7326,1.7326,1.7326,1.7326,1.7326,1.7326,1.7326,1.7326,1.7326,1.7326,1.7326,1.7326,1.7326,1.7326,1.7326,1.7326,1.7326,1.7326,1.7326,1.7326,1.7326,1.7326,1.7326,1.7326,1.7326,1.7326,1.7326,0.6324,0.6683,0.6985,0.7126,0.0,0.7386,0.7201,0.0,0.0,0.0,0.0,0.0,0.0,0.912,0.0,1.1189,1.1047,1.1368,1.3128,1.2847,1.2723,1.3199,1.3136,1.2953,1.2861,1.2764,1.2764,1.2764,1.2764,1.2764,1.2764,1.2764,1.2764,1.2764,1.2764,1.2764,1.2764,1.2764,1.2764,1.2764,1.2764,1.2764,1.2764,1.2764,1.2764,1.2764,1.2764,1.2764,1.2764,1.2953,1.305,1.3141,1.38,1.4094,1.44,1.4867,1.5051,1.5051,1.5051,1.5242,1.5337,1.5337,1.5906,1.6473,1.6473,1.685,1.7326,1.7326,1.6857,1.6567,1.7138,1.7326,1.7326,1.7326,1.7326,1.7326,1.7326,1.7326,1.7326,1.7326,1.7326,1.7326,1.7326,1.7326,1.7326,1.7326,1.7326,1.7326,1.7326,1.7326,1.7326,1.7326,1.7326,1.7326,1.7326,1.7326,1.7326,1.7326,1.7326,1.7326,1.7326,1.7326,1.7326,1.7326,1.7326,1.7326,1.7326,1.7326,1.7326,1.7326,1.7326,1.7326,0.6773,0.7674,0.8423,0.7571,0.7023,0.0,0.8411,0.8466,0.0,0.9493,0.0,0.0,0.0,1.0767,1.1359,1.2289,1.2751,1.3439,1.4747,0.0,1.4644,1.3902,1.3806,1.3522,1.2861,1.2764,1.2764,1.2764,1.2764,1.2764,1.2764,1.2764,1.2764,1.2764,1.2764,1.2764,1.2764,1.2764,1.2764,1.2764,1.2764,1.2764,1.2764,1.2764,1.2764,1.2764,1.2764,1.2764,1.2861,1.3522,1.3811,1.3806,1.4136,1.4841,1.5599,1.5261,1.5051,1.5051,1.5051,1.5527,1.6096,1.6096,1.6662,1.7232,1.7232,1.7239,1.7326,1.7326,1.7232,1.7232,1.7333,1.7326,1.7326,1.7326,1.7326,1.7326,1.7326,1.7326,1.7326,1.7326,1.7326,1.7326,1.7326,1.7326,1.7326,1.7326,1.7326,1.7326,1.7326,1.7326,1.7326,1.7326,1.7326,1.7326,1.7326,1.7326,1.7326,1.7326,1.7326,1.7326,1.7326,1.7326,1.7326,1.7326,1.7326,1.7326,1.7326,1.7326,1.7326,1.7326,1.7326,1.7326,0.7082,0.7902,0.8756,0.8443,0.0,0.0,0.0,0.9805,1.0335,1.077,1.1654,0.0,0.0,0.0,1.2252,1.3077,1.3609,1.4318,1.5637,1.5432,1.5146,1.533,1.4478,1.3811,1.3522,1.305,1.2764,1.2764,1.2764,1.2764,1.2764,1.2764,1.2764,1.2764,1.2764,1.2764,1.2764,1.2764,1.2764,1.2764,1.2764,1.2764,1.2764,1.2764,1.2764,1.2764,1.2764,1.305,1.3522,1.3811,1.419,1.4663,1.5216,1.5994,1.6697,1.6574,1.6473,1.6473,1.6473,1.6669,1.6857,1.6857,1.7044,1.7326,1.7326,1.7326,1.7326,1.7326,1.7326,1.7326,1.7326,1.7326,1.7326,1.7326,1.7326,1.7326,1.7326,1.7326,1.7326,1.7326,1.7326,1.7326,1.7326,1.7326,1.7326,1.7326,1.7326,1.7326,1.7326,1.7326,1.7326,1.7326,1.7326,1.7326,1.7326,1.7326,1.7326,1.7326,1.7326,1.7326,1.7326,1.7326,1.7326,1.7326,1.7326,1.7326,1.7326,1.7326,1.7326,1.7326,1.7326,1.7326,0.7454,0.8126,0.8927,0.0,0.0,0.0,1.037,1.0887,1.1544,1.2192,1.3046,0.0,0.0,0.0,0.0,0.0,1.4389,1.5053,1.639,1.6096,1.5906,1.619,1.5235,1.4573,1.4286,1.3624,1.3141,1.3141,1.2953,1.2764,1.2764,1.2764,1.2764,1.2764,1.2764,1.2764,1.2764,1.2764,1.2958,1.3141,1.2953,1.2764,1.2764,1.2764,1.2953,1.3141,1.3141,1.3431,1.3908,1.4478,1.5051,1.5812,1.6379,1.6857,1.7326,1.7326,1.7326,1.7326,1.7326,1.7326,1.7326,1.7326,1.7326,1.7326,1.7326,1.7326,1.7326,1.7326,1.7326,1.7326,1.7326,1.7326,1.7326,1.7326,1.7326,1.7326,1.7326,1.7326,1.7326,1.7326,1.7326,1.7326,1.7326,1.7326,1.7326,1.7326,1.7326,1.7326,1.7326,1.7326,1.7326,1.7326,1.7326,1.7326,1.7326,1.7326,1.7326,1.7326,1.7426,1.7512,1.7333,1.7326,1.7326,1.7326,1.7326,1.7419,1.752,1.752,1.7613,1.7792,1.7613,1.752,0.7866,0.8508,0.9076,0.0,0.0,0.0,1.1743,1.1703,1.1931,1.3644,0.0,1.3932,1.3696,1.3502,0.0,1.4799,1.5198,1.5868,1.7137,1.7326,1.7044,1.6285,1.619,1.5906,1.5146,1.4382,1.3908,1.3908,1.3238,1.2861,1.2764,1.2764,1.2764,1.2764,1.2764,1.2764,1.2764,1.2764,1.3141,1.3902,1.3147,1.2861,1.2764,1.2764,1.3238,1.3902,1.3908,1.3902,1.3998,1.5622,1.6662,1.7326,1.7326,1.7326,1.7326,1.7326,1.7326,1.7326,1.7326,1.7326,1.7326,1.7326,1.7326,1.7326,1.7326,1.7326,1.7326,1.7326,1.7326,1.7326,1.7326,1.7326,1.7326,1.7326,1.7326,1.7326,1.7326,1.7326,1.7326,1.7326,1.7326,1.7326,1.7326,1.7326,1.7326,1.7326,1.7326,1.7326,1.7326,1.7326,1.7326,1.7333,1.7326,1.7326,1.7326,1.7326,1.7326,1.7326,1.78,1.7893,1.7326,1.7333,1.7326,1.7326,1.7326,1.7613,1.8087,1.8087,1.8365,1.8827,1.8365,1.8087,0.7702,0.8395,0.0,0.0,0.0,0.0,0.0,1.2079,0.0,0.0,1.4655,1.4605,1.454,1.4467,0.0,1.5147,1.5583,1.6008,1.6908,1.6996,1.6985,1.7016,1.648,1.6096,1.5906,1.5146,1.4765,1.4765,1.4573,1.4196,1.3619,1.3522,1.3522,1.3522,1.305,1.305,1.3522,1.3522,1.3715,1.3902,1.4292,1.41,1.3522,1.3522,1.3715,1.3902,1.4478,1.5051,1.5615,1.6567,1.7138,1.7326,1.7326,1.7326,1.7326,1.7326,1.7326,1.7326,1.7326,1.7326,1.7326,1.7326,1.7326,1.7326,1.7326,1.7326,1.7326,1.7326,1.7326,1.7326,1.7326,1.7326,1.7326,1.7326,1.7326,1.7326,1.7326,1.7326,1.7326,1.7326,1.7326,1.7326,1.7326,1.7326,1.7326,1.7326,1.7326,1.7326,1.7326,1.7326,1.7441,1.7774,1.7864,1.7988,1.8342,1.8326,1.8326,1.8357,1.8542,1.8365,1.7893,1.8172,1.8357,1.8357,1.8357,1.845,1.855,1.855,1.8643,1.8827,1.8643,1.855,0.8142,0.8849,0.0,0.0,1.071,1.1714,1.2292,0.0,0.0,0.0,0.0,1.4903,1.5027,1.4947,0.0,1.5548,1.5789,1.6089,1.6594,1.6867,1.6923,1.7121,1.6872,1.6662,1.6662,1.6001,1.5527,1.5527,1.5242,1.486,1.4382,1.4382,1.4382,1.4382,1.3908,1.3908,1.4382,1.4382,1.4478,1.4854,1.5051,1.4956,1.4765,1.4478,1.4573,1.4854,1.5337,1.6001,1.6669,1.6756,1.7044,1.7326,1.7326,1.7326,1.7326,1.7326,1.7326,1.7326,1.7326,1.7326,1.7326,1.7326,1.7326,1.7326,1.7326,1.7326,1.7326,1.7326,1.7326,1.7326,1.752,1.7613,1.752,1.7326,1.7326,1.7333,1.7613,1.7613,1.7707,1.7893,1.7893,1.7893,1.7893,1.7707,1.7707,1.7893,1.7893,1.7893,1.7893,1.7938,1.7991,1.8325,1.8417,1.8466,1.8808,1.8764,1.8796,1.8827,1.9012,1.9004,1.8727,1.8735,1.8827,1.8827,1.8827,1.892,1.9096,1.9096,1.9188,1.9371,1.9188,1.9096,0.8846,0.0,0.0,0.0,1.1099,0.0,1.284,1.3762,1.4435,1.4457,0.0,1.4961,1.5372,1.5189,1.5182,1.5774,1.587,1.5979,1.6287,1.6587,1.6784,1.6806,1.7069,1.7252,1.7282,1.6598,1.623,1.6278,1.569,1.5216,1.5242,1.5242,1.5242,1.5242,1.5146,1.5146,1.5242,1.5242,1.5527,1.619,1.5622,1.5622,1.6285,1.5527,1.5622,1.6285,1.6285,1.6669,1.7232,1.6567,1.6669,1.7326,1.7326,1.7326,1.7326,1.7326,1.7326,1.7326,1.7326,1.7326,1.7326,1.7326,1.7326,1.7333,1.7333,1.7326,1.7419,1.7419,1.7426,1.7512,1.8087,1.8179,1.8087,1.7512,1.7426,1.7613,1.8087,1.8179,1.8272,1.8735,1.8827,1.8827,1.8827,1.8458,1.8272,1.8735,1.8827,1.8827,1.8827,1.8761,1.8847,1.8855,1.8856,1.8854,1.8953,1.8915,1.892,1.892,1.9371,1.9637,1.9637,1.9196,1.892,1.892,1.892,1.9196,1.9637,1.9637,1.992,2.0292,1.9795,1.9596,0.0,0.9051,0.0,0.0,1.1267,1.2504,1.3228,1.3748,1.4157,1.4414,1.4721,1.4961,1.5372,1.5372,1.5372,1.5511,1.5533,1.5643,1.5972,1.6074,1.6206,1.6448,1.6535,1.6674,1.693,1.6635,1.6512,1.7008,1.6722,1.6316,1.5988,1.6001,1.6001,1.6001,1.5432,1.5337,1.6001,1.6001,1.6001,1.619,1.6669,1.6951,1.7044,1.6285,1.6379,1.7044,1.7044,1.7138,1.7326,1.7138,1.7138,1.7326,1.7326,1.7326,1.7326,1.7326,1.7326,1.7326,1.7326,1.7326,1.7326,1.7326,1.7326,1.7419,1.78,1.7893,1.7986,1.8357,1.8458,1.8542,1.8643,1.8643,1.8643,1.8542,1.8458,1.855,1.8643,1.8643,1.8643,1.8735,1.8827,1.8827,1.8827,1.8735,1.8643,1.8735,1.8827,1.8827,1.8827,1.8767,1.8991,1.9342,1.9438,1.9612,1.9951,1.9994,2.0019,2.0019,2.011,2.0102,2.0102,2.0019,2.0019,2.0019,2.0019,2.0011,2.0102,2.0102,2.0201,2.0283,1.9903,1.9677,0.0,0.0,0.0,1.0828,0.0,1.265,1.3148,1.3514,1.3843,1.4172,1.4611,1.4911,1.5167,1.5321,1.5431,1.5431,1.5431,1.5489,1.5657,1.5818,1.5972,1.6133,1.6279,1.6433,1.6601,1.6469,1.6506,1.6843,1.6718,1.6509,1.631,1.6458,1.6536,1.6536,1.6303,1.6379,1.6756,1.6763,1.6763,1.6763,1.7138,1.7326,1.7326,1.6943,1.6951,1.7326,1.7326,1.7326,1.7326,1.7326,1.7326,1.7326,1.7613,1.752,1.7326,1.7613,1.7707,1.7707,1.7707,1.78,1.7986,1.7986,1.7986,1.8079,1.8365,1.8458,1.8458,1.8735,1.8827,1.8827,1.9096,1.9188,1.9279,1.9471,1.9196,1.8827,1.9096,1.9188,1.9279,1.9463,1.9554,1.9554,1.9554,1.9554,1.9471,1.9188,1.9371,1.9554,1.9554,1.9554,1.9671,1.9904,1.992,2.0059,2.0292,2.0292,2.0292,2.0292,2.0292,2.0292,2.0292,2.0292,2.0292,2.0292,2.0292,2.0206,2.0026,2.0026,1.9941,1.9752,1.9555,1.947,0.0,0.0,0.0,1.1626,1.2197,0.0,1.2921,1.3214,1.3506,1.3828,1.437,1.4794,1.4853,1.5123,1.5343,1.5343,1.5394,1.5431,1.5431,1.5657,1.5833,1.5833,1.6052,1.6228,1.6287,1.6235,1.625,1.636,1.6323,1.6316,1.6367,1.6623,1.6769,1.6769,1.7026,1.7165,1.7165,1.7216,1.7245,1.7245,1.7304,1.7326,1.7419,1.7326,1.7326,1.7426,1.7426,1.7419,1.7505,1.7512,1.7512,1.7505,1.7986,1.7986,1.7613,1.8087,1.8179,1.8179,1.8179,1.8458,1.8827,1.8827,1.8827,1.8827,1.892,1.892,1.8912,1.9012,1.9104,1.9196,1.9646,1.9737,1.9828,2.0201,1.9654,1.9196,1.9646,1.9737,1.9828,2.0201,2.0292,2.0292,2.0292,2.0292,2.0201,1.9828,2.0011,2.0292,2.0292,2.0292,2.0292,2.0292,2.0292,2.0292,2.0292,2.0292,2.0292,2.0292,2.0292,2.0266,2.0198,2.0198,2.0163,2.0103,2.0163,2.0009,1.9641,1.9641,1.9478,1.917,1.9102,1.9076,0.0,0.0,0.0,0.0,1.1867,1.2255,0.0,0.0,1.317,0.0,1.3857,1.4194,1.4479,1.4794,1.5006,1.5006,1.5248,1.5431,1.5431,1.5467,1.5496,1.5496,1.5533,1.5665,1.595,1.5723,1.5782,1.633,1.6126,1.6089,1.6352,1.6411,1.6433,1.6433,1.6469,1.6499,1.6499,1.6777,1.6916,1.6923,1.7201,1.752,1.7994,1.752,1.7512,1.7994,1.7994,1.8056,1.8203,1.8434,1.8427,1.8203,1.8535,1.8643,1.8643,1.8643,1.8735,1.8735,1.8735,1.8735,1.8827,1.8827,1.8827,1.892,1.9371,1.9455,1.9554,2.0019,2.011,2.011,2.0201,2.0201,2.0201,2.0292,2.0201,2.011,2.0201,2.0201,2.0201,2.0292,2.0292,2.0292,2.0292,2.0292,2.0292,2.0201,2.0292,2.0292,2.0292,2.0292,2.0292,2.0292,2.0292,2.0292,2.0292,2.0292,2.0292,2.0292,2.0292,2.0146,1.9829,1.9821,1.9658,1.9333,1.965,1.9632,1.9247,1.9247,1.9222,1.9162,1.8819,1.8665,0.7799,0.0,0.9885,0.0,1.1531,1.1889,1.2358,0.0,1.2826,1.3155,1.3546,1.388,1.4175,1.4465,1.4677,1.4677,1.4794,1.4955,1.5131,1.516,1.5226,1.5409,1.5431,1.5489,1.5628,1.5511,1.554,1.5818,1.5716,1.5701,1.5833,1.6016,1.6111,1.6111,1.6279,1.6367,1.6367,1.6513,1.6587,1.6587,1.7004,1.7259,1.7439,1.7522,1.791,1.8442,1.7965,1.7964,1.8304,1.8229,1.8142,1.8037,1.8402,1.853,1.851,1.8572,1.8718,1.8872,1.8653,1.8766,1.9082,1.9281,1.9265,1.9389,1.9861,2.0011,2.0011,2.0201,2.0146,2.0035,2.024,2.0138,2.0035,2.024,2.0292,2.0292,2.0292,2.0292,2.0292,2.0292,2.0292,2.0292,2.0292,2.0292,2.0292,2.0292,2.0292,2.0292,2.0292,2.0292,2.0292,2.0292,2.0292,2.0292,2.0292,2.0292,2.0198,2.0001,1.9984,1.9821,1.9436,1.9427,1.9411,1.9349,1.9393,1.923,1.8845,1.8845,1.891,1.9106,1.8929,1.8994,0.0,0.0,0.9585,1.0688,1.1249,1.1667,0.0,0.0,1.2587,0.0,1.3362,1.3684,1.399,1.4366,1.465,1.4488,1.4639,1.4781,1.4939,1.4976,1.5182,1.5591,1.5629,1.5584,1.559,1.559,1.559,1.559,1.559,1.559,1.5756,1.5995,1.6122,1.6122,1.6354,1.6473,1.6473,1.6556,1.6638,1.672,1.6999,1.7262,1.7342,1.7612,1.8161,1.8822,1.8092,1.7966,1.8394,1.8153,1.804,1.8032,1.8465,1.8543,1.8491,1.8564,1.8812,1.9021,1.8729,1.8904,1.9222,1.9504,1.9598,1.965,1.9924,2.0009,2.0009,2.0009,1.9812,1.9658,1.9932,1.9872,1.9812,2.0086,2.0223,2.0292,2.0292,2.0292,2.0292,2.0292,2.0292,2.0292,2.0292,2.0292,2.0292,2.0292,2.0292,2.0292,2.0292,2.0292,2.0292,2.0292,2.0292,2.0292,2.0292,2.0378,2.0295,2.0008,1.9992,1.9938,1.9542,1.9525,1.9582,1.957,1.9466,1.9226,1.8927,1.8927,1.9021,1.9231,1.9231,1.945,0.0,0.8341,0.0,1.012,0.0,0.0,0.0,0.0,1.2672,1.3357,1.349,1.3608,1.4032,1.4656,1.4965,1.4584,1.5087,1.5389,1.5087,1.5327,1.5693,1.6119,1.615,1.6124,1.6057,1.6087,1.6087,1.6087,1.6087,1.6252,1.6566,1.6672,1.668,1.668,1.6696,1.6704,1.6704,1.7036,1.7282,1.762,1.7612,1.7866,1.8284,1.7866,1.8246,1.9144,1.8584,1.8551,1.8784,1.899,1.8973,1.8768,1.9067,1.9187,1.911,1.9179,1.9187,1.9196,1.9179,1.917,1.9179,1.9196,1.9204,1.9204,1.923,1.923,1.923,1.923,1.9213,1.9204,1.923,1.9487,1.9752,1.9769,2.0035,2.0292,2.0292,2.0292,2.0292,2.0292,2.0292,2.0292,2.0292,2.0292,2.0292,2.0292,2.0292,2.0292,2.0292,2.0292,2.0292,2.0292,2.0292,2.0292,2.0292,2.0572,2.0692,2.0674,2.093,2.0865,2.0442,2.0414,2.0297,1.9863,1.9882,1.9882,1.9854,1.9854,1.9844,1.9825,1.9825,1.9904,0.0,0.0,0.0,0.9432,1.021,1.0901,1.1375,1.1826,1.2285,1.2759,1.3228,1.3688,1.4047,1.4303,1.449,1.4566,1.4788,1.4946,1.5015,1.5205,1.5415,1.5763,1.5802,1.5779,1.5747,1.603,1.6155,1.6155,1.6366,1.6574,1.6648,1.673,1.673,1.673,1.673,1.673,1.673,1.6783,1.6901,1.7028,1.7363,1.7613,1.7771,1.7863,1.8112,1.8442,1.8269,1.8313,1.8667,1.8537,1.8351,1.8334,1.8351,1.8588,1.8768,1.8537,1.8588,1.8759,1.8528,1.8442,1.8485,1.8725,1.8793,1.8845,1.9093,1.917,1.917,1.917,1.899,1.8853,1.911,1.9085,1.9067,1.9316,1.9478,1.9573,1.9573,1.9949,2.0292,2.0292,2.0292,2.0292,2.0292,2.0292,2.0292,2.0292,2.0292,2.0184,1.9951,2.0292,2.0538,2.0606,2.0927,2.1166,2.1231,2.1259,2.1126,2.0606,2.0696,2.0504,2.015,2.0131,2.0222,2.0547,2.0537,2.0304,1.9904,1.9904,2.0138,2.0537,2.0537,2.0779,0.6908,0.0,0.0,0.0,0.0,1.0456,1.1056,0.0,1.1914,1.2386,1.2959,1.3517,1.3813,1.3991,1.419,1.4528,1.4741,1.4871,1.5081,1.5284,1.5495,1.577,1.5818,1.5867,1.5843,1.606,1.6196,1.6196,1.6413,1.6629,1.6781,1.6789,1.6789,1.6789,1.6903,1.696,1.696,1.7082,1.7139,1.7139,1.7473,1.7635,1.7635,1.7878,1.804,1.804,1.804,1.8177,1.8382,1.8134,1.804,1.804,1.804,1.8186,1.8374,1.8126,1.8194,1.8365,1.8126,1.804,1.8074,1.8323,1.84,1.8451,1.8716,1.8793,1.8793,1.8793,1.8605,1.8542,1.8976,1.9024,1.9016,1.9417,1.9341,1.917,1.917,1.9564,1.9915,1.9915,1.9915,1.9958,2.0086,2.0001,2.0047,2.0347,2.0355,2.0219,2.0158,2.0534,2.0824,2.0894,2.1344,2.1655,2.1495,2.1849,2.1695,2.106,2.1204,2.1222,2.0924,2.0837,2.0924,2.1405,2.1252,2.1011,2.076,2.0605,2.0779,2.1175,2.1175,2.1482,0.0,0.0,0.0,0.0,0.0,0.0,1.1473,0.0,1.1464,1.2209,1.2672,1.3057,1.3408,1.3802,1.4179,1.4511,1.4908,1.5189,1.5192,1.5542,1.5899,1.6259,1.631,1.6317,1.6329,1.6294,1.6302,1.6302,1.631,1.6471,1.6843,1.6918,1.6918,1.6918,1.7261,1.7449,1.7449,1.7817,1.8006,1.8006,1.8006,1.8006,1.8006,1.8006,1.8006,1.8023,1.8023,1.8031,1.804,1.804,1.804,1.804,1.804,1.804,1.804,1.804,1.804,1.804,1.804,1.804,1.804,1.804,1.804,1.804,1.804,1.8031,1.804,1.804,1.804,1.8193,1.8843,1.9264,1.9642,1.9964,1.9639,1.9221,1.9221,1.9221,1.923,1.917,1.9256,1.9376,1.9658,1.9418,1.9548,2.0593,2.0367,2.036,2.0978,2.113,2.1111,2.1191,2.1459,2.1568,2.1227,2.207,2.2428,2.2036,2.2637,2.3001,2.3001,2.2628,2.2402,2.2402,2.2025,2.2035,2.2402,2.2025,2.1807,2.1807,2.1807,2.2025,0.6711,0.0,0.0,0.0,0.0,0.0,0.0,0.0,1.1011,1.1482,1.1893,1.2269,1.2629,1.3023,1.3442,1.3718,1.4396,1.4863,1.4841,1.4925,1.5129,1.548,1.5531,1.5607,1.5935,1.6207,1.6351,1.6269,1.653,1.6767,1.6918,1.6918,1.6918,1.6918,1.7021,1.7072,1.7072,1.7175,1.7227,1.7227,1.7227,1.7227,1.7227,1.7227,1.7372,1.7629,1.7629,1.7783,1.804,1.804,1.804,1.804,1.804,1.804,1.804,1.804,1.804,1.804,1.804,1.804,1.804,1.804,1.804,1.804,1.804,1.8362,1.8763,1.8763,1.9063,1.9432,1.9599,1.9762,1.9785,1.9906,1.9854,1.9694,1.9694,1.9694,1.9634,1.9229,1.9938,2.0473,2.0072,2.034,2.0642,2.0922,2.0931,2.0902,2.1059,2.1441,2.192,2.2211,2.2796,2.3112,2.2961,2.3246,2.3176,2.2756,2.2917,2.3001,2.3001,2.2927,2.2852,2.2852,2.2703,2.2703,2.2852,2.2402,2.2402,2.2703,2.2703,2.2703,0.6981,0.0,0.0,0.0,0.0,0.0,0.9752,1.0052,1.0403,0.0,1.1345,1.1721,1.2089,1.2475,1.28,1.3006,1.3425,1.3956,1.4598,1.4684,1.4761,1.4966,1.4992,1.5086,1.5309,1.5668,1.5874,1.5865,1.6233,1.6456,1.6456,1.6456,1.6456,1.6456,1.6602,1.6679,1.6679,1.6841,1.6918,1.6918,1.6918,1.6918,1.6918,1.6918,1.7038,1.7235,1.7235,1.7364,1.7569,1.7569,1.7757,1.804,1.804,1.804,1.804,1.804,1.804,1.804,1.804,1.804,1.804,1.804,1.804,1.8031,1.8353,1.8674,1.9082,1.9301,1.9835,2.0304,2.0304,2.0304,2.0304,2.0304,2.006,1.9972,2.0129,2.0362,2.0361,1.9652,2.008,2.0555,2.0311,2.0602,2.0953,2.138,2.1471,2.1595,2.1859,2.2174,2.2531,2.2772,2.3337,2.36,2.3427,2.3729,2.3757,2.332,2.3372,2.3519,2.3519,2.3372,2.3224,2.3224,2.3075,2.3075,2.3224,2.2852,2.2777,2.3001,2.315,2.3224,0.0,0.0,0.0,0.0,0.0,0.0,0.9872,0.9803,0.9795,0.0,1.0905,1.1208,1.1532,1.1987,1.2252,1.2218,1.2312,1.2886,1.4298,1.4495,1.4521,1.4607,1.4624,1.4632,1.4684,1.4966,1.5155,1.5155,1.548,1.5694,1.5737,1.5737,1.5754,1.5805,1.6114,1.6276,1.6366,1.6627,1.679,1.679,1.679,1.679,1.679,1.679,1.6816,1.6858,1.6858,1.6884,1.6918,1.6918,1.7312,1.7912,1.7912,1.7937,1.7971,1.7971,1.7997,1.804,1.804,1.804,1.8112,1.8112,1.8193,1.8353,1.8913,1.9152,1.9311,1.9913,2.0537,2.1021,2.1021,2.1021,2.1098,2.1098,2.0615,2.0362,2.074,2.1211,2.1385,2.045,2.0207,2.0332,2.0646,2.0693,2.1101,2.1992,2.2158,2.2397,2.2982,2.3095,2.3089,2.3112,2.3458,2.3519,2.315,2.3824,2.4043,2.3677,2.397,2.42,2.42,2.3824,2.3677,2.3677,2.3298,2.3298,2.3677,2.3298,2.315,2.315,2.3519,2.3677,0.881,0.0,0.0,0.0,0.9427,0.0,0.9656,0.9586,0.9736,0.0,1.0048,1.0043,1.0356,1.1028,1.1396,1.1096,1.1798,1.2603,1.3228,1.3314,1.3536,1.4144,1.4213,1.4333,1.4658,1.4744,1.4786,1.4786,1.4855,1.5026,1.5309,1.5326,1.5471,1.5788,1.5865,1.5908,1.5908,1.5985,1.6019,1.6019,1.6019,1.6019,1.6019,1.6019,1.6173,1.6447,1.6447,1.6627,1.6918,1.6918,1.7004,1.7141,1.7141,1.7321,1.7578,1.7578,1.7775,1.804,1.804,1.8353,1.8843,1.8843,1.9134,1.959,1.9668,2.007,2.0634,2.1252,2.1492,2.1645,2.1645,2.1873,2.2101,2.2101,2.2231,2.2456,2.2531,2.2606,2.2617,2.2456,2.2381,2.2252,2.1869,2.2197,2.2563,2.2746,2.2821,2.2982,2.3444,2.3486,2.3632,2.3963,2.402,2.4043,2.397,2.4116,2.42,2.4116,2.4127,2.42,2.42,2.4116,2.4043,2.4043,2.397,2.397,2.4043,2.397,2.397,2.397,2.4043,2.4043,0.9469,0.9674,0.9998,0.9623,0.9683,0.0,0.0,0.9556,0.9502,1.0213,1.0064,0.9944,1.0326,1.0716,1.0893,1.072,1.1199,1.1687,1.2081,1.2449,1.2826,1.3202,1.3245,1.3399,1.3793,1.399,1.4264,1.4658,1.4684,1.4761,1.4941,1.4949,1.512,1.5497,1.5506,1.56,1.5805,1.5805,1.5805,1.5805,1.5805,1.5805,1.5797,1.607,1.6298,1.6474,1.6759,1.6947,1.7144,1.7144,1.7144,1.7108,1.6989,1.703,1.7192,1.7482,1.7681,1.7925,1.8166,1.8688,1.9086,1.9086,1.944,1.9982,2.0304,2.1001,2.1787,2.2252,2.2402,2.2402,2.2402,2.2553,2.2703,2.2703,2.2852,2.3075,2.3224,2.3298,2.3372,2.353,2.3593,2.3372,2.2681,2.299,2.3298,2.3298,2.3446,2.37,2.383,2.3886,2.3975,2.4189,2.42,2.42,2.42,2.42,2.42,2.42,2.42,2.42,2.42,2.42,2.42,2.42,2.42,2.42,2.42,2.42,2.42,2.42,2.42,2.4062,1.0094,1.0137,1.0271,1.0126,0.993,0.9848,0.0,0.0,0.0,1.0351,1.0319,1.0182,0.0,0.0,0.0,1.049,0.0,0.0,0.0,1.1593,0.0,1.2269,1.2346,1.2518,1.2834,1.3057,1.3476,1.4187,1.4238,1.4307,1.4453,1.453,1.4735,1.5095,1.5112,1.5369,1.5826,1.5826,1.5939,1.6079,1.6079,1.6079,1.6149,1.6551,1.6742,1.6742,1.7235,1.7373,1.7373,1.7373,1.7373,1.737,1.7115,1.7037,1.7173,1.7602,1.7796,1.7933,1.8471,1.8984,1.9335,1.9401,1.9831,2.0458,2.0857,2.1655,2.2424,2.2711,2.287,2.2881,2.2979,2.3075,2.315,2.315,2.315,2.3298,2.3677,2.3751,2.3824,2.4116,2.42,2.397,2.3372,2.3519,2.3751,2.3751,2.397,2.42,2.42,2.42,2.42,2.42,2.42,2.42,2.42,2.42,2.42,2.42,2.42,2.42,2.42,2.42,2.42,2.42,2.4097,2.4051,2.4051,2.3948,2.3959,2.4051,2.4051,2.3775,1.1105,1.1113,1.0985,1.0262,1.0322,1.0473,1.0108,0.0,1.0072,1.035,0.0,1.0045,0.0,0.0,0.0,0.0,0.0,0.0,0.9925,1.0437,1.1156,1.1771,1.2192,1.2406,1.2458,1.2201,1.2201,1.262,1.2646,1.2946,1.3605,1.3973,1.4341,1.4735,1.4744,1.5115,1.5963,1.5963,1.6406,1.7245,1.7245,1.7245,1.7245,1.7304,1.7314,1.7304,1.7373,1.7373,1.7373,1.7373,1.7373,1.7382,1.7348,1.753,1.7909,1.7909,1.8225,1.8554,1.8893,1.9423,1.998,2.0237,2.1072,2.1919,2.156,2.1804,2.2223,2.2295,2.2295,2.2393,2.2892,2.3298,2.353,2.353,2.3824,2.4043,2.4116,2.4127,2.4127,2.42,2.42,2.42,2.4043,2.4127,2.4127,2.4127,2.42,2.42,2.42,2.42,2.42,2.42,2.42,2.42,2.42,2.42,2.42,2.42,2.42,2.42,2.42,2.42,2.42,2.42,2.3752,2.3452,2.3452,2.3075,2.3087,2.3452,2.3452,2.3259,1.1326,1.1326,1.1148,1.0608,1.0559,1.0597,1.0326,1.0162,1.0174,1.0635,0.0,0.0,0.0,0.0,0.0,0.0,1.0502,0.0,0.0,0.0,1.0676,1.0814,1.0936,1.1259,1.1704,1.1807,1.1995,1.2363,1.2192,1.2398,1.316,1.3357,1.3839,1.4762,1.478,1.5158,1.6067,1.6076,1.6412,1.7024,1.7024,1.7147,1.7373,1.7794,1.793,1.793,1.8259,1.8395,1.8395,1.8395,1.8529,1.8664,1.8664,1.8427,1.8035,1.837,1.8695,1.9062,1.9534,2.0054,2.0546,2.0951,2.1398,2.1822,2.1834,2.1981,2.2218,2.2428,2.2509,2.2554,2.2756,2.2953,2.3174,2.3398,2.361,2.3844,2.4131,2.42,2.42,2.42,2.42,2.42,2.42,2.42,2.42,2.42,2.42,2.42,2.42,2.42,2.42,2.42,2.42,2.42,2.42,2.42,2.42,2.42,2.42,2.42,2.42,2.3913,2.3764,2.3764,2.3259,2.2995,2.2995,2.2788,2.2639,2.257,2.2868,2.2731,1.1326,1.1326,1.1156,1.0685,1.0565,1.0569,1.0405,1.0314,1.0477,1.1074,1.1045,0.0,0.0,0.0,0.0,0.0,0.0,1.0713,0.0,1.0459,0.0,1.0161,1.0122,1.0305,1.0908,1.1122,1.1473,1.2043,1.1835,1.207,1.2949,1.3204,1.3808,1.4726,1.4906,1.5411,1.6398,1.6398,1.6685,1.7307,1.7307,1.7475,1.777,1.8354,1.8624,1.8624,1.9145,1.9396,1.9396,1.9396,1.9528,1.9736,1.9736,1.932,1.8767,1.9034,1.9299,1.9573,2.0096,2.0533,2.0964,2.1318,2.1528,2.1616,2.1823,2.1947,2.2128,2.2399,2.2478,2.2501,2.2639,2.2685,2.2777,2.3144,2.3339,2.3546,2.3913,2.4097,2.42,2.42,2.42,2.42,2.42,2.42,2.42,2.42,2.42,2.42,2.42,2.42,2.4238,2.4385,2.4299,2.4261,2.4406,2.4261,2.4143,2.4005,2.3856,2.3775,2.3775,2.3431,2.3236,2.3236,2.2731,2.2478,2.2478,2.2329,2.2076,2.1732,2.2237,2.2203,1.1326,1.1326,1.1096,1.0297,1.0363,1.0505,1.0099,1.0575,1.1145,1.1531,1.1913,1.2223,1.2234,0.0,0.0,0.0,0.0,0.0,0.0,0.0,0.0,0.0,1.01,1.01,1.0126,0.9872,1.0153,1.1255,1.13,1.1789,1.2955,1.3781,1.4402,1.4693,1.5157,1.5988,1.7144,1.7144,1.7634,1.8538,1.8538,1.8549,1.8581,1.9109,1.9378,1.9399,1.9846,2.0096,2.0096,2.0096,2.0096,2.0096,2.0096,2.0237,2.0506,2.0172,2.0096,2.0107,2.0442,2.085,2.1192,2.1204,2.1548,2.1793,2.1365,2.156,2.1884,2.195,2.195,2.2065,2.2559,2.2685,2.2685,2.2696,2.3087,2.3383,2.3395,2.3844,2.42,2.42,2.42,2.42,2.42,2.42,2.42,2.42,2.42,2.42,2.42,2.42,2.4385,2.4917,2.4482,2.4406,2.4945,2.4467,2.3982,2.3429,2.3006,2.2731,2.2731,2.2708,2.2708,2.2708,2.2203,2.195,2.195,2.1456,2.1267,2.1256,2.1709,2.1675,1.1326,1.1326,1.1156,1.0651,1.0739,1.0841,1.0418,1.0882,1.149,1.1783,1.211,1.2382,1.2721,0.0,0.0,0.0,0.0,0.0,0.0,0.0,0.0,0.0,0.0,0.0,1.0554,1.0442,1.0865,1.1962,1.1824,1.2209,1.3449,1.3792,1.4427,1.5389,1.5563,1.614,1.7191,1.7202,1.7507,1.8158,1.8158,1.8273,1.8588,1.8812,1.8888,1.8888,1.9051,1.9291,1.9648,1.9648,1.9962,2.0431,2.0431,2.0635,2.0967,2.0571,2.0571,2.0828,2.0967,2.1094,2.1221,2.1221,2.1284,2.1388,2.1279,2.1284,2.1422,2.1422,2.1422,2.1456,2.1629,2.174,2.1766,2.2099,2.2317,2.2559,2.3235,2.3509,2.3798,2.4131,2.4467,2.4743,2.4743,2.4743,2.4753,2.4751,2.4748,2.4748,2.4748,2.4694,2.4645,2.4414,2.3934,2.3708,2.3914,2.3525,2.3121,2.2949,2.2777,2.2685,2.2685,2.2352,2.218,2.218,2.1686,2.1603,2.1898,2.1722,2.1827,2.2125,2.2306,2.193,1.1326,1.1326,1.1182,1.0814,1.0906,1.1056,1.0803,1.1335,1.1973,1.2362,1.27,1.3017,1.3445,0.0,0.0,0.0,0.0,0.0,0.0,1.0197,0.0,0.0,0.0,0.0,0.0,1.0557,1.0903,1.2078,1.1938,1.2392,1.3676,1.4047,1.4694,1.5656,1.5999,1.6548,1.7257,1.7446,1.769,1.7944,1.7944,1.8109,1.843,1.8596,1.8685,1.8744,1.8933,1.9199,1.9488,1.9654,2.0035,2.0527,2.076,2.0967,2.1158,2.0903,2.0967,2.1221,2.1221,2.1221,2.1221,2.1221,2.1221,2.1221,2.1221,2.1221,2.1221,2.1221,2.1221,2.1221,2.1221,2.1221,2.1314,2.1583,2.192,2.2376,2.3026,2.3442,2.3722,2.4131,2.4457,2.4654,2.4654,2.465,2.4747,2.4991,2.4788,2.4708,2.4662,2.4716,2.4621,2.4442,2.3945,2.3646,2.3646,2.3226,2.2932,2.2932,2.2744,2.2639,2.2639,2.2321,2.2145,2.2145,2.1879,2.1827,2.2125,2.2125,2.2359,2.2786,2.2786,2.247]},{"header":{"parameterUnit":"m.s-1","parameterCategory":1,"la1":30.6,"la2":29.2853,"lo1":-89.7004,"lo2":-87.6739,"dy":0.0162,"dx":0.0183,"nx":112,"ny":82,"refTime":"2024-10-10T18:00:00:Z","depth":0,"parameterNumber":3,"parameterNumberName":"V-component_of_WINDS"},"data":[0.0,0.0,0.0,0.0,0.0,0.0,0.0,0.0,0.0,0.0,0.0,0.0,0.0,0.0,0.0,0.0,0.0,0.0,0.0,0.0,0.0,0.0,0.0,0.0,0.0,0.0,0.0,0.0,0.0,0.0,0.0,0.0,0.0,0.0,0.0,0.0,0.0,0.0,0.0,0.0,0.0,0.0,0.0,0.0,0.0,0.0,0.0,0.0,0.0,0.0,0.0,0.0,0.0,0.0,0.0,0.0,0.0,0.0,0.0,0.0,0.0,0.0,0.0,0.0,0.0,0.0,0.0,0.0,0.0,0.0,0.0,0.0,0.0,0.0,0.0,0.0,0.0,0.0,0.0,0.0,0.0,0.0,0.0,0.0,0.0,0.0,0.0,0.0,0.0,0.0,-2.5676,-2.7155,-2.9224,-3.0887,-3.1814,-3.0059,-2.7876,-2.5457,0.0,0.0,0.0,0.0,0.0,0.0,0.0,0.0,0.0,0.0,0.0,0.0,0.0,0.0,0.0,0.0,0.0,0.0,0.0,0.0,0.0,0.0,0.0,0.0,0.0,0.0,0.0,0.0,0.0,0.0,0.0,0.0,0.0,0.0,0.0,0.0,0.0,0.0,0.0,0.0,0.0,0.0,0.0,0.0,0.0,0.0,0.0,0.0,0.0,0.0,0.0,0.0,0.0,0.0,0.0,0.0,0.0,0.0,0.0,0.0,0.0,0.0,0.0,0.0,0.0,0.0,0.0,0.0,0.0,0.0,0.0,0.0,0.0,0.0,0.0,0.0,0.0,0.0,0.0,0.0,0.0,0.0,0.0,0.0,0.0,0.0,0.0,0.0,0.0,0.0,0.0,0.0,0.0,0.0,0.0,0.0,0.0,0.0,0.0,0.0,0.0,0.0,0.0,0.0,-2.5986,-3.0436,-3.1263,-3.1821,-3.266,-2.9871,-2.7294,-2.5418,0.0,0.0,0.0,0.0,0.0,0.0,0.0,0.0,0.0,0.0,0.0,0.0,0.0,0.0,0.0,0.0,0.0,0.0,0.0,0.0,0.0,0.0,0.0,0.0,0.0,0.0,0.0,0.0,0.0,0.0,0.0,0.0,0.0,0.0,0.0,0.0,0.0,0.0,0.0,0.0,0.0,0.0,0.0,0.0,0.0,0.0,0.0,0.0,0.0,0.0,0.0,0.0,0.0,0.0,0.0,0.0,0.0,0.0,0.0,0.0,0.0,0.0,0.0,0.0,0.0,0.0,0.0,0.0,0.0,0.0,0.0,0.0,0.0,0.0,0.0,0.0,0.0,0.0,0.0,0.0,0.0,0.0,0.0,0.0,0.0,0.0,0.0,0.0,0.0,0.0,0.0,0.0,0.0,0.0,0.0,0.0,0.0,0.0,0.0,0.0,0.0,0.0,0.0,-2.5148,-2.7063,-3.1256,-3.1275,-3.1352,-3.2179,-2.9466,-2.7037,-2.5399,-2.4024,0.0,0.0,0.0,0.0,0.0,0.0,0.0,0.0,0.0,0.0,0.0,0.0,0.0,0.0,0.0,0.0,0.0,0.0,0.0,0.0,0.0,0.0,0.0,0.0,0.0,0.0,0.0,0.0,0.0,0.0,0.0,0.0,0.0,0.0,0.0,0.0,0.0,0.0,0.0,0.0,0.0,0.0,0.0,0.0,0.0,0.0,0.0,0.0,0.0,0.0,0.0,0.0,0.0,0.0,0.0,0.0,0.0,0.0,0.0,0.0,0.0,0.0,0.0,0.0,0.0,0.0,0.0,0.0,0.0,0.0,0.0,0.0,0.0,0.0,0.0,0.0,0.0,0.0,0.0,0.0,0.0,0.0,0.0,0.0,0.0,0.0,0.0,0.0,0.0,0.0,0.0,0.0,0.0,0.0,0.0,0.0,0.0,0.0,0.0,0.0,0.0,0.0,-2.6751,-2.8352,-3.1359,-3.109,-3.0987,-3.1641,-2.9039,-2.6761,-2.5369,-2.3386,0.0,0.0,0.0,0.0,0.0,0.0,0.0,0.0,0.0,0.0,0.0,0.0,0.0,0.0,0.0,0.0,0.0,0.0,0.0,0.0,0.0,0.0,0.0,0.0,0.0,0.0,0.0,0.0,0.0,0.0,0.0,0.0,0.0,0.0,0.0,0.0,0.0,0.0,0.0,0.0,0.0,0.0,0.0,0.0,0.0,0.0,0.0,0.0,0.0,0.0,0.0,0.0,0.0,0.0,0.0,0.0,0.0,0.0,0.0,0.0,0.0,0.0,0.0,0.0,0.0,0.0,0.0,0.0,0.0,0.0,0.0,0.0,0.0,0.0,0.0,0.0,0.0,0.0,0.0,0.0,0.0,0.0,0.0,0.0,0.0,0.0,0.0,0.0,0.0,0.0,0.0,0.0,0.0,0.0,0.0,0.0,0.0,0.0,0.0,0.0,0.0,0.0,-2.7445,-2.961,-3.1411,-3.1609,-3.1641,-3.1698,-2.8606,-2.6239,-2.5264,-2.2749,0.0,0.0,0.0,0.0,0.0,0.0,0.0,0.0,0.0,0.0,0.0,0.0,0.0,0.0,0.0,0.0,0.0,0.0,0.0,0.0,0.0,0.0,0.0,0.0,0.0,0.0,0.0,0.0,0.0,0.0,0.0,0.0,0.0,0.0,0.0,0.0,0.0,0.0,0.0,0.0,0.0,0.0,0.0,0.0,0.0,0.0,0.0,0.0,0.0,0.0,0.0,0.0,0.0,0.0,0.0,0.0,0.0,0.0,0.0,0.0,0.0,0.0,0.0,0.0,0.0,0.0,0.0,0.0,0.0,0.0,0.0,0.0,0.0,0.0,0.0,0.0,0.0,0.0,0.0,0.0,0.0,0.0,0.0,0.0,0.0,0.0,0.0,0.0,0.0,0.0,0.0,0.0,0.0,0.0,0.0,0.0,0.0,0.0,0.0,0.0,0.0,0.0,-2.6358,-2.8154,-3.0423,-3.0562,-3.0532,-3.0581,-2.8365,-2.6403,-2.5108,0.0,0.0,0.0,0.0,0.0,0.0,0.0,0.0,0.0,0.0,0.0,0.0,0.0,0.0,0.0,0.0,0.0,0.0,0.0,0.0,0.0,0.0,0.0,0.0,0.0,0.0,0.0,0.0,0.0,0.0,0.0,0.0,0.0,0.0,0.0,0.0,0.0,0.0,0.0,0.0,0.0,0.0,0.0,0.0,0.0,0.0,0.0,0.0,0.0,0.0,0.0,0.0,0.0,0.0,0.0,0.0,0.0,0.0,0.0,0.0,0.0,0.0,0.0,0.0,0.0,0.0,0.0,0.0,0.0,0.0,0.0,0.0,0.0,0.0,0.0,0.0,0.0,0.0,0.0,0.0,0.0,0.0,0.0,0.0,0.0,0.0,0.0,0.0,0.0,0.0,0.0,0.0,0.0,0.0,0.0,0.0,0.0,0.0,0.0,0.0,0.0,0.0,-2.4617,-2.6086,-2.7728,-2.9791,-2.9902,-2.9834,-2.9902,-2.8029,-2.6283,-2.4922,0.0,0.0,0.0,0.0,0.0,0.0,0.0,0.0,0.0,0.0,0.0,0.0,0.0,0.0,0.0,0.0,0.0,0.0,0.0,0.0,0.0,0.0,0.0,0.0,0.0,0.0,0.0,0.0,0.0,0.0,0.0,0.0,0.0,0.0,0.0,0.0,0.0,0.0,0.0,0.0,0.0,0.0,0.0,0.0,0.0,0.0,0.0,0.0,0.0,0.0,0.0,0.0,0.0,0.0,0.0,0.0,0.0,0.0,0.0,0.0,0.0,0.0,0.0,0.0,0.0,0.0,0.0,0.0,0.0,0.0,0.0,0.0,0.0,0.0,0.0,0.0,0.0,0.0,0.0,0.0,0.0,0.0,0.0,0.0,0.0,0.0,0.0,0.0,0.0,0.0,0.0,0.0,0.0,0.0,0.0,0.0,0.0,0.0,0.0,0.0,0.0,0.0,-2.4672,-2.7017,-2.8906,-2.9706,-2.9869,-2.9902,-2.9902,-2.7566,-2.571,0.0,0.0,0.0,0.0,0.0,0.0,0.0,0.0,0.0,0.0,0.0,0.0,0.0,0.0,0.0,0.0,0.0,0.0,0.0,0.0,0.0,0.0,0.0,0.0,0.0,0.0,0.0,0.0,0.0,0.0,0.0,0.0,0.0,0.0,0.0,0.0,0.0,0.0,0.0,0.0,0.0,0.0,0.0,0.0,0.0,0.0,0.0,0.0,0.0,0.0,0.0,0.0,0.0,0.0,0.0,0.0,0.0,0.0,0.0,0.0,0.0,0.0,0.0,0.0,0.0,0.0,0.0,0.0,0.0,0.0,0.0,0.0,0.0,0.0,0.0,0.0,0.0,0.0,0.0,0.0,0.0,0.0,0.0,0.0,0.0,0.0,0.0,0.0,0.0,0.0,0.0,0.0,0.0,0.0,0.0,0.0,0.0,0.0,0.0,0.0,0.0,0.0,0.0,-2.4785,-2.7051,-2.8909,-2.9693,-2.9787,-2.9734,-2.9698,-2.7879,-2.6137,-2.4791,0.0,0.0,0.0,0.0,0.0,0.0,0.0,0.0,0.0,0.0,0.0,0.0,0.0,0.0,0.0,0.0,0.0,0.0,0.0,0.0,0.0,0.0,0.0,0.0,0.0,0.0,0.0,0.0,0.0,0.0,0.0,0.0,0.0,0.0,0.0,0.0,0.0,0.0,0.0,0.0,0.0,0.0,0.0,0.0,0.0,0.0,0.0,0.0,0.0,0.0,0.0,0.0,0.0,0.0,0.0,0.0,0.0,0.0,0.0,0.0,0.0,0.0,0.0,0.0,0.0,0.0,0.0,0.0,0.0,0.0,0.0,0.0,0.0,0.0,0.0,0.0,0.0,0.0,0.0,0.0,0.0,0.0,0.0,0.0,0.0,0.0,0.0,0.0,0.0,0.0,0.0,0.0,0.0,0.0,0.0,0.0,0.0,0.0,0.0,0.0,0.0,0.0,-2.4666,-2.7112,-2.9008,-2.9514,-2.9513,-2.9493,-2.9454,-2.7866,-2.6358,-2.5103,0.0,0.0,0.0,0.0,0.0,0.0,0.0,0.0,0.0,0.0,0.0,0.0,0.0,0.0,0.0,0.0,0.0,0.0,0.0,0.0,0.0,0.0,0.0,0.0,0.0,0.0,0.0,0.0,0.0,0.0,0.0,0.0,0.0,0.0,0.0,0.0,0.0,0.0,0.0,0.0,0.0,0.0,0.0,0.0,0.0,0.0,0.0,0.0,0.0,0.0,0.0,0.0,0.0,0.0,0.0,0.0,0.0,0.0,0.0,0.0,0.0,0.0,0.0,0.0,0.0,0.0,0.0,0.0,0.0,0.0,0.0,0.0,0.0,0.0,0.0,0.0,0.0,0.0,0.0,0.0,0.0,0.0,0.0,0.0,0.0,0.0,0.0,0.0,0.0,0.0,0.0,0.0,0.0,0.0,0.0,0.0,0.0,0.0,0.0,0.0,0.0,0.0,-2.4522,-2.7301,-2.9243,-2.9222,-2.9222,-2.9243,-2.9222,-2.774,-2.6465,-2.5578,0.0,0.0,0.0,0.0,0.0,0.0,0.0,0.0,0.0,0.0,0.0,0.0,0.0,0.0,0.0,0.0,0.0,0.0,0.0,0.0,0.0,0.0,0.0,0.0,0.0,0.0,0.0,0.0,0.0,0.0,0.0,0.0,0.0,0.0,0.0,0.0,0.0,0.0,0.0,0.0,0.0,0.0,0.0,0.0,0.0,0.0,0.0,0.0,0.0,0.0,0.0,0.0,0.0,0.0,0.0,0.0,0.0,0.0,0.0,0.0,-2.3438,-2.2422,0.0,0.0,0.0,0.0,0.0,0.0,0.0,0.0,0.0,0.0,0.0,0.0,0.0,0.0,0.0,0.0,0.0,0.0,0.0,0.0,0.0,0.0,0.0,0.0,0.0,0.0,0.0,0.0,0.0,0.0,0.0,0.0,0.0,0.0,0.0,0.0,0.0,0.0,0.0,0.0,-2.5422,-2.7848,-2.9455,-2.9372,-2.9454,-2.9474,-2.9377,-2.8403,-2.7213,-2.5816,-2.3543,0.0,0.0,0.0,0.0,0.0,0.0,0.0,0.0,0.0,0.0,0.0,0.0,0.0,0.0,0.0,0.0,0.0,0.0,0.0,0.0,0.0,0.0,0.0,0.0,0.0,0.0,0.0,0.0,0.0,0.0,0.0,0.0,0.0,0.0,0.0,0.0,0.0,0.0,0.0,0.0,0.0,0.0,0.0,0.0,0.0,0.0,0.0,0.0,0.0,0.0,0.0,0.0,0.0,0.0,0.0,0.0,0.0,0.0,0.0,-2.6237,-2.4793,0.0,0.0,0.0,0.0,0.0,0.0,0.0,0.0,0.0,0.0,0.0,0.0,0.0,0.0,0.0,0.0,0.0,0.0,0.0,0.0,0.0,0.0,0.0,0.0,0.0,0.0,0.0,0.0,0.0,0.0,0.0,0.0,0.0,0.0,0.0,0.0,0.0,0.0,0.0,0.0,-2.6098,-2.8364,-3.0015,-3.0331,-3.0086,-2.9866,-2.9783,-2.8667,-2.7613,-2.6821,-2.4395,0.0,0.0,0.0,0.0,0.0,0.0,0.0,0.0,0.0,0.0,0.0,0.0,0.0,0.0,0.0,0.0,0.0,0.0,0.0,0.0,0.0,0.0,0.0,0.0,0.0,0.0,0.0,0.0,0.0,0.0,0.0,0.0,0.0,0.0,0.0,0.0,0.0,0.0,0.0,0.0,0.0,0.0,0.0,0.0,0.0,0.0,0.0,0.0,0.0,0.0,0.0,0.0,0.0,-2.9841,-3.0903,-3.248,-3.2183,-3.2316,-3.2557,-2.9064,-2.7494,-2.7359,-2.5983,0.0,0.0,0.0,0.0,0.0,0.0,0.0,0.0,0.0,0.0,0.0,0.0,0.0,0.0,0.0,0.0,0.0,0.0,0.0,0.0,0.0,0.0,-2.6746,-2.7141,-2.7839,-2.7698,-2.4928,0.0,0.0,0.0,0.0,0.0,0.0,0.0,0.0,0.0,0.0,0.0,-2.6903,-2.9026,-3.065,-3.1329,-3.0797,-3.0411,-3.0411,-2.9053,-2.8154,-2.8026,-2.5366,-2.3695,0.0,0.0,0.0,0.0,0.0,0.0,0.0,0.0,0.0,0.0,0.0,0.0,0.0,0.0,0.0,0.0,0.0,0.0,0.0,0.0,0.0,0.0,0.0,0.0,0.0,0.0,0.0,0.0,0.0,0.0,0.0,0.0,-2.1017,-2.1964,0.0,0.0,0.0,0.0,0.0,0.0,0.0,0.0,0.0,0.0,0.0,0.0,0.0,-2.9064,-2.9982,-3.2336,-3.3337,-3.2957,-3.5393,-3.5954,-3.4871,-3.5548,-3.5825,-3.5704,-3.4843,0.0,-3.0447,-2.9489,0.0,0.0,0.0,0.0,0.0,0.0,0.0,0.0,0.0,0.0,0.0,0.0,0.0,0.0,0.0,0.0,0.0,0.0,0.0,0.0,0.0,0.0,-3.1344,-3.0031,-3.0345,-3.0631,-2.9494,-2.7056,-2.4613,-2.3015,-2.2795,-2.2556,0.0,0.0,0.0,0.0,0.0,0.0,-2.8555,-3.0221,-3.1274,-3.1384,-3.1311,-3.1237,-3.1237,-3.0411,-2.9586,-2.8906,-2.7787,-2.6542,-2.5146,-2.3437,0.0,0.0,0.0,0.0,0.0,0.0,0.0,0.0,0.0,0.0,0.0,0.0,0.0,0.0,0.0,0.0,0.0,0.0,0.0,0.0,0.0,0.0,0.0,0.0,0.0,0.0,0.0,0.0,0.0,-2.1309,-2.2833,-2.2993,-2.3274,-2.328,0.0,0.0,0.0,0.0,0.0,0.0,0.0,0.0,0.0,-3.0692,-3.1627,-3.2686,-3.394,-3.5188,-3.6044,-3.654,-3.7775,-3.808,-3.7567,-3.8114,-3.8118,-3.7704,-3.7868,-3.6761,-3.4735,-3.2948,-3.1486,-3.0232,0.0,0.0,0.0,0.0,-2.8924,-2.8984,-3.0368,-3.0527,-3.0081,-2.9879,0.0,0.0,0.0,0.0,0.0,0.0,0.0,-2.8268,-2.9628,-3.161,-3.3216,-3.2944,-3.3551,-3.3909,-3.3083,-3.1806,-2.9787,-2.6415,-2.5754,-2.5184,-2.3456,-2.3179,0.0,0.0,0.0,-2.8073,-3.0194,-3.1391,-3.2247,-3.2687,-3.2339,-3.2063,-3.2063,-3.1329,-3.0522,-2.9732,-2.8925,-2.7952,-2.6796,-2.5201,-2.3786,0.0,0.0,0.0,0.0,0.0,0.0,0.0,0.0,0.0,0.0,0.0,0.0,0.0,0.0,0.0,0.0,0.0,0.0,0.0,0.0,0.0,0.0,0.0,0.0,0.0,0.0,0.0,0.0,-2.312,-2.4357,-2.3906,-2.5355,-2.585,0.0,0.0,0.0,0.0,0.0,0.0,-2.9758,-3.09,-3.2615,-3.5173,-3.5642,-3.6497,-3.7833,-3.7927,-3.8518,-3.9591,-3.9654,-3.987,-4.0196,-4.0405,-4.0244,-3.9834,-4.0171,-3.9677,-3.8432,-3.585,-3.4222,-3.3377,-3.2882,-3.2622,-3.2667,-3.3432,-3.3308,-3.2999,-3.4788,-3.4825,-3.399,-3.3201,-3.2669,-3.1843,-2.9237,0.0,0.0,0.0,0.0,-3.0704,-3.2681,-3.3998,-3.4842,-3.5229,-3.5988,-3.6355,-3.5504,-3.5349,-3.4045,-2.9651,-2.8809,-2.8092,-2.5809,-2.5461,0.0,-2.6583,-2.7908,-2.9527,-3.1507,-3.2438,-3.3146,-3.3733,-3.3256,-3.2926,-3.2926,-3.2173,-3.1439,-3.0852,-3.0063,-2.9255,-2.8448,-2.7071,-2.5841,-2.4832,0.0,0.0,0.0,0.0,0.0,0.0,0.0,0.0,0.0,0.0,0.0,0.0,0.0,0.0,0.0,0.0,0.0,0.0,0.0,0.0,0.0,0.0,0.0,0.0,0.0,0.0,0.0,0.0,0.0,-2.4907,-2.7634,0.0,0.0,0.0,0.0,-2.9173,-2.9195,-3.0636,-3.4201,-3.5052,-3.6671,-3.9403,-4.0254,-4.0898,-4.1437,-4.1623,-4.1745,-4.1743,-4.1992,-4.2297,-4.262,-4.264,-4.262,-4.26,-4.237,-4.1768,-4.0696,-3.7779,-3.6211,-3.5631,-3.5408,-3.546,-3.5738,-3.6285,-3.6466,-3.6415,-3.6297,-3.5679,-3.5202,-3.6688,-3.6119,-3.4642,-3.3715,-3.2375,0.0,0.0,-3.2967,-3.3769,-3.4666,-3.6095,-3.7135,-3.641,-3.6842,-3.7213,-3.6395,-3.6229,-3.5238,-3.1861,-3.1225,-3.0687,-2.9053,0.0,-2.9053,-2.9843,-3.0668,-3.1531,-3.243,-3.3238,-3.3752,-3.3807,-3.3752,-3.3733,-3.3733,-3.2999,-3.2522,-3.2485,-3.1715,-3.0907,-3.0118,-2.9274,-2.8081,-2.6521,-2.4116,0.0,0.0,0.0,0.0,0.0,0.0,0.0,0.0,0.0,0.0,0.0,0.0,0.0,0.0,0.0,0.0,0.0,0.0,0.0,0.0,0.0,0.0,0.0,0.0,0.0,0.0,0.0,0.0,-2.8927,-3.1134,0.0,-3.0179,-3.0529,-3.1371,-3.261,-3.3189,-3.4727,-3.7521,-3.8352,-3.9402,-4.091,-4.1518,-4.1917,-4.2077,-4.2356,-4.2487,-4.2487,-4.2572,-4.2633,-4.2612,-4.2612,-4.2506,-4.2332,-4.2238,-4.2019,-4.1588,-4.0546,-3.9658,-3.8963,-3.8871,-3.9107,-3.9533,-3.9723,-3.9684,-3.946,-3.8842,-3.8414,-3.8175,-3.8248,-3.7863,-3.7331,-3.7037,-3.656,-3.6266,-3.7074,-3.7511,-3.7919,-3.8737,-3.8976,-3.8964,-3.8676,-3.8438,-3.8175,-3.79,-3.7845,-3.7349,-3.5642,-3.4449,-3.3385,-3.2284,-3.21,-3.2192,-3.2467,-3.3201,-3.4027,-3.4871,-3.522,-3.5183,-3.4633,-3.4578,-3.4376,-3.3844,-3.3532,-3.2926,-3.188,-3.1549,-3.0797,-2.9494,-2.914,-2.8223,-2.6631,-2.5254,-2.3217,0.0,0.0,0.0,0.0,0.0,0.0,0.0,0.0,0.0,0.0,0.0,0.0,0.0,0.0,0.0,0.0,0.0,0.0,0.0,0.0,0.0,0.0,0.0,0.0,0.0,0.0,-3.0534,-3.1611,-3.4047,-3.5086,-3.3658,-3.4577,-3.559,-3.6358,-3.7004,-3.8327,-4.054,-4.1089,-4.1817,-4.2855,-4.3147,-4.324,-4.3152,-4.3259,-4.3387,-4.3471,-4.3387,-4.3365,-4.345,-4.345,-4.3342,-4.3185,-4.3185,-4.2991,-4.2678,-4.2678,-4.2337,-4.1803,-4.1613,-4.1742,-4.2052,-4.2281,-4.2045,-4.1512,-4.0611,-4.0304,-4.0212,-3.968,-3.9515,-3.9515,-3.9515,-3.9515,-3.9625,-4.0152,-4.0281,-4.0467,-4.1089,-4.0763,-4.0344,-4.0425,-3.9945,-3.9515,-3.9515,-3.9294,-3.8946,-3.8395,-3.6964,-3.5615,-3.4897,-3.4776,-3.4811,-3.4851,-3.534,-3.5869,-3.647,-3.6544,-3.6321,-3.5721,-3.5425,-3.5055,-3.4518,-3.3906,-3.3098,-3.201,-3.1342,-3.0393,-2.9049,-2.8741,-2.797,-2.6631,-2.5529,-2.3786,-2.1328,0.0,0.0,0.0,0.0,0.0,0.0,0.0,0.0,0.0,0.0,0.0,0.0,0.0,0.0,0.0,0.0,0.0,0.0,0.0,0.0,0.0,0.0,0.0,-2.9161,-3.1123,-3.2645,-3.281,-3.6386,-3.8153,-3.6458,-3.8648,-4.0287,-4.0485,-4.0505,-4.1333,-4.3213,-4.3254,-4.3907,-4.532,-4.5317,-4.5132,-4.48,-4.4546,-4.4546,-4.48,-4.4546,-4.472,-4.5297,-4.5297,-4.5297,-4.5297,-4.5297,-4.4819,-4.4055,-4.4055,-4.4015,-4.3973,-4.3416,-4.3208,-4.3221,-4.3793,-4.346,-4.2575,-4.1549,-4.1181,-4.1181,-4.1181,-4.1199,-4.1217,-4.1217,-4.1217,-4.1199,-4.1209,-4.1199,-4.1277,-4.152,-4.1375,-4.1245,-4.1479,-4.1354,-4.1144,-4.1144,-4.0519,-3.995,-3.995,-3.8664,-3.7393,-3.6864,-3.6768,-3.6833,-3.7065,-3.7069,0.0,-3.7069,-3.7069,-3.7069,-3.7032,-3.6333,-3.5863,-3.5807,-3.4101,-3.3032,-3.2976,-3.1223,-2.9824,-2.9035,-2.8227,-2.742,-2.6631,-2.5034,-2.3841,-2.3052,0.0,0.0,0.0,0.0,0.0,0.0,0.0,0.0,0.0,0.0,0.0,0.0,0.0,0.0,0.0,0.0,0.0,0.0,0.0,0.0,0.0,-3.0705,-3.2603,-3.2558,-3.4716,-3.6776,-3.8032,-4.0252,-4.1417,-4.0737,-4.1509,-4.2164,-4.2404,-4.2592,-4.3114,-4.4062,-4.4091,-4.424,-4.4669,-4.4862,-4.4891,-4.48,-4.4976,-4.5087,-4.5173,-4.5087,-4.5151,-4.5297,-4.5297,-4.5297,-4.5297,-4.5297,-4.5163,-4.4934,-4.4934,-4.4789,-4.4516,-4.3992,-4.4014,-4.4354,-4.4523,-4.3958,-4.3016,-4.2726,-4.2623,-4.2623,-4.2623,-4.3034,-4.3501,-4.3501,-4.3501,-4.349,-4.349,-4.3485,-4.3515,-4.3583,-4.3109,-4.2629,-4.2733,-4.2239,-4.1745,-4.1745,-4.1577,-4.1353,-4.1104,-4.024,-3.9295,-3.8562,-3.8432,-3.8521,-3.8783,-3.8812,-3.8812,-3.8812,-3.8812,-3.8587,-3.7986,-3.7742,-3.7122,-3.5901,-3.4764,-3.3596,-3.2435,-3.0599,-2.945,-2.9246,-2.8298,-2.742,-2.6631,-2.5585,-2.4667,0.0,0.0,0.0,0.0,0.0,0.0,0.0,0.0,0.0,0.0,0.0,0.0,0.0,0.0,0.0,0.0,0.0,0.0,0.0,0.0,0.0,0.0,-3.4144,-3.6332,-3.7026,-3.8131,-3.9485,-4.1149,-4.2508,-4.3252,-4.309,-4.3535,-4.3849,-4.3863,-4.4026,-4.4259,-4.4606,-4.4572,-4.4624,-4.4795,-4.4934,-4.5023,-4.5023,-4.5045,-4.5173,-4.5297,-4.5173,-4.5173,-4.5297,-4.5297,-4.5297,-4.5297,-4.5297,-4.5297,-4.5297,-4.5297,-4.5173,-4.4966,0.0,0.0,0.0,0.0,-4.4244,-4.3716,-4.3716,-4.3716,-4.3716,-4.3716,-4.4035,-4.4383,-4.4383,-4.4402,-4.4401,-4.4402,-4.4402,-4.4439,-4.4546,-4.4139,-4.3724,-4.3837,-4.342,-4.3021,-4.3021,-4.2739,-4.2441,-4.2259,-4.1558,0.0,-4.0532,-3.9799,-3.9376,-3.9647,-3.9762,-3.9826,-3.9826,-3.9826,-3.9678,-3.9186,-3.8807,-3.805,-3.6706,-3.5395,0.0,0.0,0.0,-2.9098,-2.8329,-2.7725,0.0,0.0,0.0,0.0,0.0,0.0,0.0,0.0,-2.5034,-2.4997,0.0,0.0,0.0,0.0,0.0,0.0,0.0,0.0,0.0,0.0,0.0,0.0,0.0,0.0,0.0,0.0,-3.7666,-3.9887,-4.1628,-4.1189,-4.1285,-4.2757,-4.3655,-4.415,-4.415,-4.4857,-4.5173,-4.4843,-4.4843,-4.4868,-4.4891,-4.4868,0.0,0.0,0.0,-4.5297,-4.5297,-4.5004,-4.5023,-4.5297,-4.5,-4.5023,-4.5297,-4.5297,-4.5297,-4.5297,-4.5297,-4.5297,-4.5297,-4.5297,-4.5297,-4.5256,-4.4957,-4.4701,-4.4511,-4.4511,-4.4511,-4.4511,-4.4511,0.0,0.0,-4.4511,-4.4511,-4.4511,-4.4511,-4.4515,-4.4505,-4.4492,-4.4493,-4.4549,-4.4791,-4.4697,-4.4546,-4.4795,-4.4676,-4.4511,-4.4511,-4.3928,-4.342,-4.3393,-4.2735,-4.2247,-4.2461,-4.0939,-3.9779,-4.0046,-4.0214,-4.031,-4.031,-4.031,-4.031,-4.031,-3.9623,0.0,-3.7922,-3.6233,-3.4831,-3.392,-3.1372,-2.912,-2.74,-2.74,-2.7635,-2.8044,-2.8246,-2.8998,-3.0338,-3.0522,-3.1017,-3.1715,-2.7952,-2.7365,0.0,0.0,0.0,0.0,0.0,0.0,0.0,0.0,0.0,0.0,0.0,0.0,0.0,0.0,0.0,-3.7056,-3.941,-4.1609,-4.3291,-4.3386,-4.3405,-4.373,-4.4532,-4.5048,-4.5048,-4.5201,-4.5173,-4.4843,-4.5045,-4.5087,-4.4825,-4.5068,-4.5235,-4.5317,-4.5317,-4.5297,-4.5297,-4.5235,-4.5235,-4.5297,-4.5235,0.0,-4.5297,-4.5297,-4.5297,-4.5297,-4.5297,-4.5297,-4.5297,-4.5297,-4.5297,-4.5297,-4.5235,-4.5173,-4.5129,-4.5129,-4.5129,-4.5129,-4.5129,-4.5129,-4.5129,-4.5129,-4.5129,-4.5129,-4.5129,-4.5125,0.0,-4.5132,-4.5135,-4.5156,-4.518,-4.5156,-4.5151,-4.5194,-4.5173,-4.5129,-4.5129,-4.4995,-4.4817,-4.4549,-4.3842,-4.3226,-4.3069,-4.1793,-4.0881,-4.1149,-4.0693,-4.031,-4.031,-4.031,-4.031,-4.031,-4.0157,-3.9699,-3.882,-3.7771,-3.6532,-3.5007,-3.2988,-3.1261,-2.9951,-3.0506,-3.0487,-2.9751,-3.1017,-3.1513,-3.1164,-3.2467,-3.3532,-3.4238,-3.2173,-3.1476,0.0,0.0,0.0,0.0,0.0,0.0,0.0,0.0,0.0,0.0,0.0,-3.245,-3.3259,0.0,-3.8301,-4.0004,-4.1667,-4.3195,-4.4475,-4.4647,-4.4647,-4.4647,-4.5029,-4.5297,-4.5297,-4.5297,-4.5235,-4.5045,-4.5213,-4.5235,-4.5045,-4.5213,-4.5297,-4.5297,-4.5297,-4.5297,-4.5297,-4.5297,-4.5297,-4.5297,-4.5297,-4.5297,-4.5297,-4.5297,-4.5297,-4.5297,-4.5297,-4.5297,-4.5297,-4.5297,-4.5297,-4.5297,-4.5297,-4.5297,-4.5297,-4.5297,-4.5297,-4.5297,-4.5297,-4.5297,-4.5297,-4.5297,-4.5297,-4.5297,-4.5297,-4.5297,-4.5297,-4.5297,-4.5297,-4.5297,-4.5297,-4.5297,-4.5297,-4.5297,-4.5297,-4.5297,-4.5297,-4.5297,-4.5256,-4.5087,-4.4744,-4.4395,-4.4279,-4.3304,-4.24,-4.2001,-4.136,-4.0903,-4.0903,-4.0559,-4.031,-4.031,-4.031,-3.9947,-3.9069,-3.819,-3.7177,-3.5935,-3.4973,-3.394,-3.2805,-3.3018,-3.3045,-3.2804,-3.3464,-3.3825,-3.3844,-3.4651,-3.5459,-3.6229,-3.5422,-3.4835,0.0,0.0,0.0,0.0,0.0,0.0,0.0,0.0,-3.081,-3.1799,-3.3891,-3.5924,-3.7228,-3.8837,-4.0635,-4.2698,-4.373,-4.4494,-4.5201,-4.5297,-4.5297,-4.5297,-4.5297,-4.5297,-4.5297,-4.5297,-4.5297,-4.5297,-4.5297,-4.5297,-4.5297,-4.5297,-4.5297,-4.5297,-4.5297,-4.5297,-4.5297,-4.5449,-4.5449,-4.5297,-4.5449,-4.5449,-4.5297,-4.5297,-4.5297,-4.5297,-4.5297,-4.5297,-4.5297,-4.5297,-4.5297,-4.5297,-4.5297,-4.5297,-4.5297,-4.5297,-4.5297,-4.5297,-4.5297,-4.5297,-4.5297,-4.5297,-4.5297,-4.5297,-4.5297,-4.5297,-4.5297,-4.5297,-4.5297,-4.5297,-4.5297,-4.5297,-4.5297,-4.5297,-4.5297,-4.5297,-4.5297,-4.5297,-4.5297,-4.5297,-4.5297,-4.5297,-4.5297,-4.4723,-4.3897,-4.2867,-4.2158,-4.1743,-4.1743,-4.1036,-4.054,-4.054,-4.0387,-4.0024,-3.9317,-3.8457,-3.7674,-3.7043,-3.6833,-3.6344,-3.542,-3.5186,-3.5252,-3.5634,-3.5605,-3.5882,-3.6523,-3.6688,-3.7092,-3.7716,-3.7716,-3.7386,-2.4918,-2.5081,-2.581,-2.8,-2.8636,-2.9896,0.0,0.0,-3.6135,-3.7781,-3.9487,-4.073,-4.0921,-4.2316,-4.3539,-4.3825,-4.459,-4.5182,-4.5277,-4.5297,-4.5297,-4.5297,-4.5297,-4.5297,-4.5297,-4.5297,-4.5297,-4.5297,-4.5297,-4.5297,-4.5297,-4.5297,-4.5297,-4.5297,-4.5297,-4.5297,-4.5297,-4.6003,-4.6003,-4.5297,-4.6023,-4.5984,-4.5297,-4.5297,-4.5297,-4.5297,-4.5297,-4.5297,-4.5297,-4.5297,-4.5297,-4.5297,-4.5297,-4.5297,-4.5297,-4.5297,-4.5297,-4.5297,-4.5297,-4.5297,-4.5297,-4.5297,-4.5297,-4.5297,-4.5297,-4.5297,-4.5297,-4.5297,-4.5297,-4.5297,-4.5297,-4.5297,-4.5297,-4.5297,-4.5297,-4.5297,-4.5297,-4.5297,-4.5297,-4.5297,-4.5297,-4.5297,-4.5297,-4.522,-4.4857,-4.3956,-4.3156,-4.2641,-4.2641,-4.1896,-4.1361,-4.1361,-4.0731,-4.0272,-4.0157,-3.9355,-3.882,-3.8725,-3.7999,-3.7431,-3.7127,-3.7087,-3.6914,-3.657,-3.7217,-3.7507,-3.7349,-3.8083,-3.8487,-3.8579,-3.8579,-3.8524,-2.7964,-2.8576,0.0,0.0,-3.2344,-3.4591,-3.617,-3.7666,-3.9065,-4.0252,-4.182,-4.2947,-4.2947,-4.394,-4.4762,0.0,-4.5048,-4.5297,-4.5297,-4.5297,-4.5297,-4.5297,-4.5297,-4.5297,-4.5297,-4.5297,-4.5297,-4.5297,-4.5297,-4.5297,-4.5297,-4.5297,-4.5297,-4.5297,-4.5755,-4.6003,-4.6003,-4.6844,-4.7092,-4.6768,-4.7111,-4.6806,-4.6003,-4.6003,-4.5736,-4.5297,-4.5297,-4.5297,-4.5297,-4.5297,-4.5297,-4.5297,-4.5297,-4.5297,-4.5297,-4.5297,-4.5297,-4.5297,-4.5297,-4.5297,-4.5297,-4.5297,-4.5297,-4.5297,-4.5297,-4.5297,-4.5297,-4.5297,-4.5297,-4.5297,-4.5297,-4.5297,-4.5297,-4.5297,-4.5297,-4.5297,-4.5297,-4.5297,-4.5297,-4.5297,-4.5297,-4.5297,-4.5297,-4.5297,-4.5182,-4.4819,-4.4036,-4.3501,-4.3501,-4.2775,-4.2259,-4.2259,-4.1495,-4.0998,-4.0998,-4.0234,-3.9756,-3.9756,-3.9412,-3.9185,-3.909,-3.8933,-3.8766,-3.8564,-3.8733,-3.9018,-3.9359,-3.9686,-4.003,-4.0337,-4.0337,-4.0234,-2.9651,0.0,0.0,-3.2718,-3.5729,-3.8448,-3.7993,-3.9659,-4.1495,-4.2068,-4.3348,-4.436,-4.436,-4.4876,-4.5297,-4.5297,-4.5297,-4.5297,-4.5297,-4.5297,-4.5297,-4.5297,-4.5297,-4.5297,-4.5297,-4.5297,-4.5297,-4.5297,-4.5297,-4.5297,-4.5297,-4.5297,-4.5392,-4.5621,-4.6194,-4.6615,-4.6863,-4.7723,-4.8048,-4.7799,-4.8048,-4.7704,-4.6863,-4.6863,-4.6405,-4.5621,-4.5621,-4.5507,-4.5297,-4.5297,-4.5297,-4.5297,-4.5297,-4.5297,-4.5297,-4.5297,-4.5297,-4.5297,-4.5297,-4.5297,-4.5297,-4.5297,-4.5297,-4.5297,-4.5297,-4.5297,-4.5297,-4.5297,-4.5297,-4.5297,-4.5297,-4.5297,-4.5297,-4.5297,-4.5297,-4.5297,-4.5297,-4.5297,-4.5297,-4.5297,-4.5297,-4.5297,-4.5297,-4.5297,-4.5297,-4.5297,-4.4762,-4.436,-4.436,-4.3634,-4.3061,-4.2813,-4.224,-4.1858,-4.1858,-4.1323,-4.0903,-4.0654,-4.0635,-4.054,-4.031,-4.0118,-4.007,-4.0236,-4.0037,-4.0314,-4.1067,-4.1067,-4.1263,-4.1623,-4.1623,-4.1657,0.0,0.0,-3.334,-3.5736,-3.8284,-4.0425,-4.117,-4.2679,-4.3902,-4.3921,-4.4647,-4.5258,-4.5258,-4.5277,-4.5297,-4.5297,-4.5297,-4.5297,-4.5297,-4.5297,-4.5297,-4.5297,-4.5297,-4.5297,0.0,-4.5297,-4.5297,-4.5297,-4.5297,-4.5297,-4.5297,-4.5297,-4.566,-4.6443,-4.65,-4.692,-4.7761,-4.8621,-4.864,-4.7818,-4.8659,-4.8602,-4.7761,-4.7761,-4.7302,-4.6462,-4.6462,-4.6023,-4.5297,-4.5297,-4.5297,-4.5297,-4.5297,-4.5297,-4.5297,-4.5297,-4.5297,-4.5297,-4.5297,-4.5297,-4.5297,-4.5297,-4.5297,-4.5297,-4.5297,-4.5297,-4.5297,-4.5297,-4.5297,-4.5297,-4.5297,-4.5297,-4.5297,-4.5297,-4.5297,-4.5297,-4.5297,-4.5297,-4.5297,-4.5297,-4.5297,-4.5297,-4.5297,-4.5297,-4.5297,-4.5297,-4.5277,-4.5258,-4.5258,-4.4494,-4.3673,-4.2889,-4.2775,-4.2756,-4.2756,-4.2737,-4.2354,-4.1514,-4.1457,-4.1113,-4.0329,-4.0291,-4.0519,-4.1051,-4.1048,-4.135,-4.195,-4.195,-4.1969,-4.1987,-4.1987,-4.2419,0.0,0.0,-3.6463,-3.7806,-4.0482,-4.2832,-4.31,-4.4036,-4.4857,-4.4857,-4.4647,-4.4437,-4.4437,-4.4437,-4.4437,-4.4437,-4.4914,-4.5297,-4.5297,-4.5297,-4.5297,-4.5297,-4.5297,0.0,0.0,0.0,0.0,-4.5297,-4.5297,-4.5526,-4.6061,-4.6099,-4.65,-4.7341,-4.7914,-4.8372,-4.8659,-4.948,-4.9748,-4.9461,-4.9213,-4.8945,-4.864,-4.8067,-4.7646,-4.7341,-4.6748,-4.6347,-4.6042,-4.5507,-4.5297,-4.5297,-4.5297,-4.5297,-4.5297,-4.5297,-4.5297,-4.5297,-4.5297,-4.5297,-4.5297,-4.5297,-4.5297,-4.5297,-4.5297,-4.5297,-4.5297,-4.5297,-4.5297,-4.5297,-4.5297,-4.5297,-4.5297,-4.5297,-4.5297,-4.5297,-4.5297,-4.5297,-4.5297,-4.5297,-4.5297,-4.5297,-4.5297,-4.5297,-4.5297,-4.5297,-4.5297,-4.5297,-4.5297,-4.5029,-4.4762,-4.4494,-4.394,-4.3615,-4.3615,-4.3119,-4.2679,-4.2374,-4.2354,-4.2068,-4.1399,-4.1743,-4.1857,-4.1642,-4.2004,-4.2593,-4.3346,-4.3346,-4.3502,-4.3863,-4.3863,-4.3894,-3.3742,-3.637,-3.8628,-4.0368,-4.2641,-4.4456,-4.4456,-4.4895,-4.5201,-4.4895,-4.4169,-4.3482,-4.3157,-4.287,-4.287,-4.3482,-4.4036,-4.4609,-4.522,-4.5297,-4.5297,-4.5297,-4.5297,-4.5297,0.0,0.0,0.0,-4.5297,-4.5297,-4.564,-4.6462,-4.65,-4.7035,-4.8239,-4.8812,-4.9232,-4.9519,-5.0034,-5.0302,-5.0283,-4.9786,-4.9519,-4.95,-4.8945,-4.8544,-4.8239,-4.7665,-4.7073,-4.6462,-4.5946,-4.5564,-4.5297,-4.5297,-4.5297,-4.5297,-4.5297,-4.5297,-4.5297,-4.5297,-4.5297,-4.5297,-4.5297,-4.5297,-4.5297,-4.5297,-4.5297,-4.5297,-4.5297,-4.5297,-4.5297,-4.5297,-4.5297,-4.5297,-4.5297,-4.5297,-4.5297,-4.5297,-4.5297,-4.5297,-4.5297,-4.5297,-4.5297,-4.5297,-4.5297,-4.5297,-4.5297,-4.5297,-4.5297,-4.5297,-4.5297,-4.5297,-4.5297,-4.48,-4.4456,-4.4456,-4.3997,-4.3558,-4.3252,-4.3233,-4.2927,-4.2258,-4.2484,-4.2616,-4.2639,-4.2942,-4.3533,-4.4456,-4.4456,-4.4639,-4.4981,-4.4981,-4.4887,-3.675,-3.8532,-4.0024,-4.3214,-4.4666,-4.5297,-4.5297,-4.522,-4.4914,-4.4055,-4.3157,-4.2278,-4.1399,0.0,-4.0769,-4.2412,-4.2775,-4.3424,-4.5067,-4.5297,-4.5297,0.0,0.0,0.0,0.0,0.0,0.0,-4.5354,0.0,-4.5698,-4.6519,-4.6615,-4.7417,-4.9098,-4.9156,-4.9519,-5.0283,-5.0302,-5.0302,-5.0302,-5.0302,-5.0302,-5.0302,-5.0302,-4.9882,-4.9156,-4.9117,-4.8162,-4.6634,-4.6538,-4.6042,-4.5354,-4.5316,-4.5297,-4.5297,-4.5297,-4.5297,-4.5297,-4.5297,-4.5297,-4.5297,-4.5297,-4.5297,-4.5297,-4.5297,-4.5297,-4.5297,-4.5297,-4.5297,-4.5297,-4.5297,-4.5297,-4.5297,-4.5297,-4.5297,-4.5297,-4.5297,-4.5297,-4.5297,-4.5297,-4.5297,-4.5297,-4.5297,-4.5297,-4.5297,-4.5297,-4.5297,-4.5297,-4.5297,-4.5297,-4.5297,-4.5297,-4.5297,-4.5297,-4.5297,-4.5297,-4.4953,-4.4131,-4.4074,-4.373,-4.2966,-4.2623,-4.2962,-4.4034,-4.3821,-4.422,-4.5297,-4.5297,-4.5297,-4.5297,-4.5297,-4.5297,-3.8054,-4.0673,-4.2947,-4.3806,-4.4666,-4.5297,-4.5297,-4.4322,-4.3195,-4.2316,-4.0463,-3.8744,-3.7941,-3.8629,0.0,-4.0769,-4.2488,0.0,-4.5144,-4.5297,0.0,-4.5297,0.0,-4.5297,-4.5297,-4.5297,0.0,0.0,-4.6194,-4.6577,-4.7417,-4.8086,-4.8907,-4.9958,-4.9996,-5.0092,-5.0302,-5.0302,-5.0302,-5.0302,-5.0302,-5.0302,-5.0302,-5.0302,-5.0187,-4.9958,-4.9347,-4.885,-4.8334,-4.7035,-4.6385,-4.6137,-4.5526,-4.5297,-4.5297,-4.5297,-4.5297,-4.5297,-4.5297,-4.5297,-4.5297,-4.5297,-4.5297,-4.5297,-4.5297,-4.5297,-4.5297,-4.5297,-4.5297,-4.5297,-4.5297,-4.5297,-4.5297,-4.5297,-4.5297,-4.5297,-4.5297,-4.5297,-4.5297,-4.5297,-4.5297,-4.5297,-4.5297,-4.5297,-4.5297,-4.5297,-4.5297,-4.5297,-4.5297,-4.5297,-4.5297,-4.5297,-4.5297,-4.5297,-4.5297,-4.5297,-4.5201,-4.4972,-4.4972,-4.4876,-4.4666,-4.4586,-4.466,-4.4953,-4.4889,-4.5025,-4.5297,-4.5297,-4.5297,-4.5297,-4.5297,-4.5173,-4.054,-4.2584,-4.4093,-4.4475,-4.4647,-4.4532,-4.3787,-4.2622,-4.1151,-3.9145,-3.7597,0.0,-3.456,-3.5935,0.0,0.0,0.0,0.0,-4.5067,-4.5297,-4.5297,0.0,-4.5297,0.0,-4.5297,-4.5621,-4.6003,0.0,-4.65,-4.7054,-4.8296,-4.8831,-4.9461,-5.0264,-5.0302,-5.0302,-5.0302,-5.0302,-5.0302,-5.0302,-5.0302,-5.0302,-5.0302,-5.0302,-5.0302,-5.0264,-4.9824,-4.9423,-4.8984,-4.7627,-4.6863,-4.6424,-4.5602,-4.5297,-4.5297,-4.5297,-4.5297,-4.5297,-4.5297,-4.5297,-4.5297,-4.5297,-4.5297,-4.5297,-4.5297,-4.5297,-4.5297,-4.5297,-4.5297,-4.5297,-4.5297,-4.5297,-4.5297,-4.5297,-4.5297,-4.5297,-4.5297,-4.5297,-4.5297,-4.5297,-4.5297,-4.5297,-4.5297,-4.5297,-4.5297,-4.5297,-4.5297,-4.5297,-4.5297,-4.5297,-4.5297,-4.5297,-4.5297,-4.5297,-4.5297,-4.5297,-4.5297,-4.5297,-4.5297,-4.5297,-4.5297,-4.5173,-4.5151,-4.5297,-4.5173,-4.5132,-4.5297,-4.5297,-4.5216,-4.5068,-4.5235,-4.5109,-4.3157,-4.4093,-4.436,-4.5105,-4.4571,-4.3443,-4.1858,-4.054,-3.8725,-3.5534,0.0,-3.3662,-3.135,-3.2993,-3.5324,-3.7234,0.0,-4.2259,-4.4934,-4.5297,-4.5297,-4.5297,-4.5297,-4.5335,-4.5449,-4.6099,-4.6596,-4.6825,-4.6844,-4.7494,-4.9003,-4.9194,-4.9576,-5.0283,-5.0302,-5.0302,-5.0302,-5.0302,-5.0302,-5.0302,-5.0302,-5.0302,-5.0302,-5.0302,-5.0302,-5.0302,-5.0302,-4.9901,-4.9175,-4.82,-4.736,-4.6577,-4.566,-4.5297,-4.5297,-4.5297,-4.5297,-4.5297,-4.5297,-4.5297,-4.5297,-4.5297,-4.5297,-4.5297,-4.5297,-4.5297,-4.5297,-4.5297,-4.5297,-4.5297,-4.5297,-4.5297,-4.5297,-4.5297,-4.5297,-4.5297,-4.5297,-4.5297,-4.5297,-4.5297,-4.5297,-4.5297,-4.5297,-4.5297,-4.5297,-4.5297,-4.5297,-4.5297,-4.5297,-4.5297,-4.5297,-4.5297,-4.5297,-4.5297,-4.5297,-4.5297,-4.5297,-4.5295,-4.5295,-4.5295,-4.5295,-4.4995,-4.4976,-4.5297,-4.5,-4.5,-4.5297,-4.5297,-4.5151,-4.4868,-4.5173,-4.5109,-4.3482,-4.4532,-4.5105,-4.5258,-4.4131,-4.2737,-4.1724,-3.8686,0.0,0.0,-3.145,-2.9636,-2.8561,-3.0414,-3.3146,-3.6222,0.0,0.0,0.0,0.0,-4.5297,0.0,0.0,0.0,-4.6233,-4.6424,0.0,0.0,-4.864,-4.8774,-4.9079,-4.9729,-5.0168,-5.0302,-5.0302,-5.0302,-5.0302,-5.0302,-5.0302,-5.0302,-5.0302,-5.0302,-5.0302,-5.0302,-5.0302,-5.0302,-5.0302,-5.0225,-4.9977,-4.843,-4.7723,-4.7417,-4.5889,-4.5297,-4.5297,-4.5297,-4.5297,-4.5297,-4.5297,-4.5297,-4.5297,-4.5297,-4.5297,-4.5297,-4.5297,-4.5297,-4.5297,-4.5297,-4.5297,-4.5297,-4.5297,-4.5297,-4.5297,-4.5297,-4.5297,-4.5297,-4.5297,-4.5297,-4.5297,-4.5297,-4.5297,-4.5297,-4.5297,-4.5297,-4.5297,-4.5297,-4.5297,-4.5297,-4.5297,-4.5297,-4.5297,-4.5297,-4.5297,-4.5297,-4.5297,-4.5297,-4.5292,-4.53,-4.53,-4.53,-4.53,-4.5086,-4.5071,-4.5297,-4.5129,-4.5129,-4.5297,-4.5297,-4.5256,-4.5194,-4.5256,-4.5,-4.3673,-4.4647,-4.5182,-4.4743,-4.3367,-4.1437,-3.882,0.0,0.0,0.0,-2.8809,-2.7892,-2.6632,0.0,0.0,0.0,0.0,0.0,0.0,0.0,0.0,0.0,0.0,0.0,0.0,-4.6672,-4.7532,-4.8353,-4.9232,-4.971,-4.971,-5.0092,-5.0302,-5.0302,-5.0302,-5.0302,-5.0302,-5.0302,-5.0302,-5.0302,-5.0302,-5.0302,-5.0302,-5.0302,-5.0302,-5.0302,-5.0302,-5.0302,-5.0168,-4.8506,-4.7799,-4.7646,-4.5946,-4.5297,-4.5297,-4.5297,-4.5297,-4.5297,-4.5297,-4.5297,-4.5297,-4.5297,-4.5297,-4.5297,-4.5297,-4.5297,-4.5297,-4.5297,-4.5297,-4.5297,-4.5297,-4.5297,-4.5297,-4.5297,-4.5297,-4.5297,-4.5297,-4.5297,-4.5297,-4.5297,-4.5297,-4.5297,-4.5297,-4.5297,-4.5297,-4.5297,-4.5235,-4.5192,-4.5192,-4.5148,-4.5148,-4.5297,-4.5297,-4.5297,-4.5297,-4.5109,-4.5076,-4.5274,-4.5038,-4.4933,-4.5048,-4.4976,-4.4981,-4.5103,-4.5033,-4.5033,-4.5103,-4.5103,-4.4948,-4.4662,-4.4814,-4.4572,-4.3692,-4.4494,-4.4857,-4.4169,-4.2622,-4.0177,-3.6126,-3.3643,0.0,0.0,-2.6803,-2.6765,-2.544,0.0,-2.9822,0.0,0.0,0.0,0.0,0.0,0.0,0.0,0.0,0.0,-4.5545,-4.692,0.0,-4.8067,-4.9461,-5.0302,-5.0302,-5.0302,-5.0302,-5.0302,-5.0302,-5.0302,-5.0302,-5.0302,-5.0302,-5.0302,-5.0302,-5.0302,-5.0302,-5.0302,-5.0302,-5.0302,-5.0302,-5.0206,-4.992,-4.843,-4.7704,-4.7379,-4.587,-4.5297,-4.5297,-4.5297,-4.5297,-4.5297,-4.5297,-4.5297,-4.5297,-4.5297,-4.5297,-4.5297,-4.5297,-4.5297,-4.5297,-4.5297,-4.5297,-4.5297,-4.5297,-4.5297,-4.5297,-4.5256,-4.5275,-4.5297,-4.5233,-4.5254,-4.5254,-4.5213,-4.5213,-4.5213,-4.5213,-4.5213,-4.5213,-4.5213,-4.5084,-4.4972,-4.4972,-4.4876,-4.4876,-4.5042,-4.5151,-4.5213,-4.5213,-4.4862,-4.4758,-4.5019,-4.4667,-4.4549,-4.4714,-4.4732,-4.4777,-4.4895,-4.487,-4.4846,-4.4802,-4.4802,-4.4576,-4.4102,-4.4327,-4.4165,-4.3386,-4.4074,-4.4112,-4.4036,-4.2202,-3.9508,-3.6012,0.0,0.0,-2.6956,-2.5879,-2.5382,-2.5229,-2.6051,-2.7778,-3.0892,0.0,-3.584,0.0,0.0,0.0,0.0,0.0,0.0,-4.6328,-4.7264,-4.8143,-4.8907,-4.9805,-5.0302,-5.0302,-5.0302,-5.0302,-5.0302,-5.0302,-5.0302,-5.0302,-5.0302,-5.0302,-5.0302,-5.0302,-5.0302,-5.0302,-5.0302,-5.0302,-5.0302,-5.0302,-4.9882,-4.9137,-4.82,-4.7341,-4.6538,-4.564,-4.5297,-4.5297,-4.5297,-4.5297,-4.5297,-4.5297,-4.5297,-4.5297,-4.5297,-4.5297,-4.5297,-4.5297,-4.5297,-4.5297,-4.5297,-4.5297,-4.5297,-4.5297,-4.5297,-4.5275,-4.5148,-4.5213,-4.5235,-4.4991,-4.5014,-4.508,-4.4943,-4.4919,-4.4919,-4.4919,-4.4919,-4.4919,-4.4919,-4.4714,-4.4546,-4.4546,-4.4546,-4.4447,-4.4214,-4.4662,-4.4919,-4.4919,-4.4688,-4.4428,-4.4224,-4.4218,-4.4319,-4.4515,-4.424,-4.4327,-4.4895,-4.477,-4.4648,-4.4519,-4.4519,-4.4392,-4.4117,-4.4117,-4.3986,-4.1361,-4.2507,-4.3157,-4.2641,-4.0597,-3.7846,-3.4483,0.0,-2.8708,-2.6185,-2.5421,-2.5191,-2.5191,-2.5459,-2.644,-2.879,-2.9765,-3.179,-3.6337,0.0,0.0,0.0,0.0,0.0,0.0,0.0,-4.7608,-4.8984,-4.9843,-5.0302,-5.0302,-5.0302,-5.0302,-5.0302,-5.0302,-5.0302,-5.0302,-5.0302,-5.0302,-5.0302,-5.0302,-5.0302,-5.0302,-5.0302,-5.0034,-4.9576,-4.9576,-4.9098,-4.8258,-4.7379,-4.6806,-4.6424,-4.5602,-4.5297,-4.5297,-4.5297,-4.5297,-4.5297,-4.5297,-4.5297,-4.5297,-4.5297,-4.5297,-4.5297,-4.5297,-4.5297,-4.5297,-4.5297,-4.5297,-4.5297,-4.5192,-4.5125,-4.5057,-4.4991,-4.5014,-4.5014,-4.4919,-4.4943,-4.4967,-4.4895,-4.4895,-4.4895,-4.4895,-4.4895,-4.4846,-4.4688,-4.4511,-4.4327,-4.4165,-4.4065,-4.3992,-4.3868,-4.4476,-4.4777,-4.4438,-4.427,-4.4125,-4.4102,-4.3814,-4.3605,-4.3534,-4.3725,-4.3931,-4.4162,-4.4121,-4.4072,-4.4023,-4.4023,-4.3943,-4.3868,-4.3689,-4.3575,-3.9489,-4.0979,-4.1915,-4.1304,-3.9412,-3.6757,0.0,-3.0548,-2.8211,-2.5707,-2.5191,-2.5191,-2.5191,-2.5191,-2.5669,-2.7071,-2.772,-2.944,-3.3433,-3.4904,0.0,0.0,0.0,-4.2985,0.0,-4.5736,-4.7226,-4.8965,-4.9614,-5.0054,-5.0283,-5.0302,-5.0302,-5.0302,-5.0302,-5.0302,-5.0302,-5.0302,-5.0302,-5.0302,-5.0302,-5.0302,-5.0302,-5.0302,-4.9862,-4.9098,-4.9098,-4.8449,-4.7379,-4.6748,-4.6366,-4.6099,-4.5507,-4.5275,-4.5235,-4.5235,-4.5213,-4.5194,-4.5192,-4.5189,-4.5167,-4.517,-4.517,-4.517,-4.517,-4.5213,-4.5235,-4.5192,-4.517,-4.517,-4.508,-4.4967,-4.4895,-4.4846,-4.487,-4.487,-4.4796,-4.4751,-4.4726,-4.4674,-4.4602,-4.4549,-4.4549,-4.4602,-4.4576,-4.4299,-4.4202,-4.4023,-4.3772,-4.3627,-4.3545,-4.3477,-4.4114,-4.4374,-4.4016,-4.3818,-4.3795,-4.3976,-4.3481,-4.3084,-4.2889,-4.3324,-4.3612,-4.3712,-4.3712,-4.3646,-4.3579,-4.3579,-4.3545,-4.3477,-4.3267,-4.316,-3.8113,-3.9661,-4.0329,-4.031,-3.9011,-3.6604,0.0,-3.0109,-2.8211,-2.5707,-2.5191,-2.5191,-2.5191,-2.5191,-2.5478,-2.6269,-2.7797,-3.0084,-3.3509,-3.5439,0.0,0.0,0.0,-4.1858,-4.2737,-4.5048,-4.7226,-4.8965,-4.9098,0.0,-5.0264,-5.0302,-5.0302,-5.0302,-5.0302,-5.0302,-5.0302,-5.0302,-5.0302,-5.0302,-5.0302,-5.0302,-5.0302,-5.0302,-4.9862,-4.9098,-4.9098,-4.8124,-4.6519,-4.65,-4.6023,-4.5297,-4.5297,-4.5213,-4.5103,-4.5103,-4.5023,-4.4896,-4.49,-4.4903,-4.4909,-4.4889,-4.4895,-4.4895,-4.4895,-4.501,-4.5061,-4.4943,-4.4895,-4.4895,-4.4895,-4.4895,-4.487,-4.4719,-4.4796,-4.4821,-4.4551,-4.4402,-4.4279,-4.4121,-4.3905,-4.3712,-4.3712,-4.3936,-4.403,-4.3744,-4.3712,-4.3612,-4.3338,-4.3303,-4.3196,-4.292,-4.3408,-4.3712,-4.3712,-4.3477,-4.3429,-4.3667,-4.3196,-4.2886,-4.2885,-4.3175,-4.3442,-4.3679,-4.3712,-4.3579,-4.3303,-4.3303,-4.316,-4.292,-4.292,-4.2882,-3.3414,-3.4483,-3.5098,-3.5098,-3.3834,-3.2076,-3.0133,-2.8389,-2.6803,-2.5478,-2.5191,-2.5191,-2.5191,-2.5191,-2.6032,-2.858,-2.944,0.0,0.0,0.0,0.0,0.0,0.0,-4.4208,0.0,0.0,-4.6729,-4.7283,-4.7876,-4.8315,-4.8582,-4.8602,-4.9117,-5.0264,-5.0302,-5.0302,-5.0302,-5.0302,-5.0302,-5.0302,-5.0302,-5.0255,-5.0139,-4.9591,-4.8838,-4.7903,-4.7352,-4.6459,-4.5413,-4.5413,-4.5261,-4.5033,-4.5033,-4.4991,-4.4943,-4.4943,-4.4938,-4.4884,-4.4914,-4.4903,-4.4909,-4.4908,-4.4895,-4.487,-4.477,-4.4846,-4.4943,-4.4895,-4.4821,-4.4745,-4.4745,-4.4712,-4.456,-4.4345,-4.4327,-4.4269,-4.3999,-4.3936,-4.3886,-4.3841,-4.3744,-4.3712,-4.3712,-4.3777,-4.3744,-4.3477,-4.3442,-4.3338,-4.3069,-4.3032,-4.2995,-4.292,-4.3069,-4.316,-4.316,-4.334,-4.3359,-4.3178,-4.2994,-4.2884,-4.2886,-4.2995,-4.3069,-4.316,-4.316,-4.3087,-4.3032,-4.3032,-4.2995,-4.2882,-4.3105,-4.3069,0.0,-3.135,-3.2195,-3.2195,-3.1197,-2.9879,-2.8733,-2.7396,-2.6173,-2.5363,-2.5191,-2.5191,-2.5191,-2.5191,-2.5975,-2.837,-2.9039,-3.0242,0.0,0.0,0.0,0.0,0.0,0.0,0.0,-4.5502,-4.611,-4.6434,-4.6923,-4.7338,-4.7624,-4.769,-4.819,-4.9239,-4.9324,-4.9366,-4.9366,-4.9671,-4.9801,-4.9735,-4.9754,-4.9681,-4.9518,-4.8707,-4.784,-4.6923,-4.6411,-4.571,0.0,-4.4895,-4.4895,-4.4895,-4.4895,-4.487,-4.4821,-4.4821,-4.4782,-4.4742,-4.4757,-4.4731,-4.4742,-4.4738,-4.4764,-4.4719,-4.4659,-4.4685,-4.4764,-4.4764,-4.4685,-4.4605,-4.4505,-4.4421,-4.4306,-4.414,-4.403,-4.3936,-4.3873,-4.3679,-4.3545,-4.3545,-4.3477,-4.3408,-4.3408,-4.3477,-4.3442,-4.3196,-4.3232,-4.3196,-4.292,-4.2882,-4.2882,-4.2882,-4.2882,-4.2882,-4.2882,-4.3123,-4.3178,-4.2938,-4.2882,-4.2882,-4.2882,-4.2882,-4.2882,-4.2882,-4.2882,-4.2882,-4.2882,-4.2882,-4.2882,-4.2882,-4.3069,-4.3069,0.0,-2.9535,-3.0796,-3.0854,-3.03,-2.9363,-2.7854,-2.6899,0.0,-2.5344,-2.5191,-2.5229,-2.5268,-2.5249,-2.5535,-2.6593,-2.7434,-2.9153,0.0,-3.4387,0.0,0.0,-4.2389,0.0,-4.3975,-4.4671,-4.5426,-4.6244,-4.6182,-4.6411,-4.7176,-4.7357,-4.7405,-4.7405,-4.7518,-4.7662,-4.7777,-4.8579,-4.8895,-4.8694,-4.8756,-4.8682,-4.8477,-4.7662,-4.6885,-4.6158,-4.6102,-4.5628,-4.487,-4.487,-4.487,-4.487,-4.487,-4.4815,-4.4685,-4.4685,-4.4605,-4.4515,-4.4515,-4.4515,-4.4515,-4.4515,-4.4515,-4.4515,-4.4515,-4.4515,-4.4515,-4.4515,-4.4487,-4.4411,-4.417,-4.4109,-4.4079,-4.403,-4.3841,-4.3744,-4.3968,-4.3627,-4.3267,-4.3267,-4.3069,-4.2882,-4.2882,-4.3105,-4.3196,-4.292,-4.3087,-4.316,-4.292,-4.2882,-4.2882,-4.2882,-4.2882,-4.2882,-4.2882,-4.2882,-4.2882,-4.2882,-4.2882,-4.2882,-4.2882,-4.2882,-4.2882,-4.2882,-4.2882,-4.2882,-4.2882,-4.2882,-4.2882,-4.2882,-4.2882,-4.2882,-2.2898,0.0,-2.4836,-2.5504,-2.5523,-2.5447,0.0,-2.5631,-2.544,-2.5249,0.0,-2.5382,-2.6001,-2.5612,-2.63,-2.9688,-3.0433,-3.1741,-3.4996,0.0,0.0,-4.371,-4.4265,-4.4497,-4.4687,-4.4853,-4.5038,-4.5247,-4.5223,-4.5293,-4.5483,-4.5507,-4.5532,-4.5532,-4.5556,-4.6254,-4.7624,-4.7762,-4.7783,-4.7739,-4.7739,-4.7681,-4.7483,-4.6698,-4.6127,-4.5791,-4.517,-4.4794,-4.4578,-4.4578,-4.4578,-4.4578,-4.4578,-4.4578,-4.457,-4.457,-4.4542,-4.4515,-4.4515,-4.4515,-4.4515,-4.4515,-4.4515,-4.4515,-4.4515,-4.4515,-4.4515,-4.4515,-4.4335,-4.417,-4.4109,-4.3936,-4.3744,-4.3545,-4.3442,-4.3373,-4.3232,-4.3087,-4.2995,-4.2995,-4.2957,-4.2882,-4.2882,-4.2957,-4.2957,-4.292,-4.2957,-4.2957,-4.292,-4.2882,-4.2882,-4.2882,-4.2882,-4.2882,-4.2882,-4.2882,-4.2882,-4.2882,-4.2882,-4.2882,-4.2882,-4.2882,-4.2882,-4.2882,-4.2882,-4.2882,-4.2882,-4.2882,-4.2882,-4.2882,-4.2882,-4.2882,-2.0726,-2.1939,-2.3307,-2.3785,-2.4205,-2.4606,-2.5096,0.0,0.0,0.0,0.0,-2.5309,-2.5753,-2.5742,-2.6669,-2.9751,-3.0856,0.0,0.0,0.0,0.0,-4.4649,-4.4895,-4.4895,0.0,-4.4846,-4.4815,-4.4815,-4.4764,-4.4738,-4.4738,-4.477,-4.4815,-4.4815,-4.4815,-4.5306,-4.6364,-4.6689,-4.6784,-4.6713,-4.6732,-4.6652,-4.6497,-4.5687,-4.5255,-4.5134,-4.4702,-4.4515,-4.4515,-4.4515,-4.4515,-4.4515,-4.4515,-4.4515,-4.4515,-4.4515,-4.4515,-4.4515,-4.4515,-4.4515,-4.4515,-4.4515,-4.4411,-4.4306,-4.4306,-4.4248,-4.4158,-4.4277,-4.4199,-4.403,-4.3809,-4.3646,-4.3477,-4.3338,-4.3196,-4.3087,-4.3105,-4.2995,-4.2882,-4.2882,-4.2882,-4.2882,-4.2882,-4.2882,-4.2882,-4.2882,-4.2882,-4.2882,-4.2882,-4.2882,-4.2882,-4.2882,-4.2882,-4.2882,-4.2882,-4.2882,-4.2882,-4.2882,-4.2882,-4.2882,-4.2882,-4.2882,-4.2882,-4.2882,-4.2882,-4.2882,-4.2882,-4.2882,-4.2882,-4.2882,-4.2882,-4.2882,-2.0091,-2.1909,-2.3786,-2.3717,-2.4358,-2.5038,-2.5172,0.0,0.0,0.0,0.0,0.0,0.0,-2.6007,0.0,0.0,0.0,0.0,-3.9488,-4.1658,-4.3236,-4.4675,-4.4821,0.0,-4.4821,-4.4738,-4.4685,-4.4685,-4.4551,-4.4515,-4.4515,-4.4605,-4.4685,-4.4685,-4.4685,-4.4719,-4.4821,-4.5584,-4.5847,-4.5704,-4.5722,-4.5687,-4.5491,-4.4815,-4.4515,-4.4515,-4.4515,-4.4515,-4.4515,-4.4515,-4.4515,-4.4515,-4.4515,-4.4515,-4.4515,-4.4515,-4.4515,-4.4515,-4.4515,-4.4468,-4.444,-4.444,-4.4277,-4.403,-4.403,-4.3873,-4.3744,-4.3936,-4.3968,-4.3855,-4.3408,-4.3267,-4.3232,-4.3232,-4.3069,-4.2957,-4.3196,-4.3069,-4.2882,-4.2882,-4.2882,-4.2882,-4.2882,-4.2882,-4.2882,-4.2882,-4.2882,-4.2882,-4.2882,-4.2882,-4.2882,-4.2882,-4.2882,-4.2882,-4.2882,-4.2882,-4.2882,-4.2882,-4.2882,-4.2882,-4.2882,-4.2882,-4.2882,-4.2882,-4.2882,-4.2882,-4.2882,-4.2882,-4.2882,-4.2882,-4.2882,-4.2882,-2.0778,-2.2167,-2.33,-2.2898,-2.346,-2.4282,-2.5038,0.0,0.0,0.0,0.0,0.0,0.0,-2.7153,-2.8241,0.0,0.0,-3.8407,0.0,0.0,-4.3525,-4.4438,0.0,-4.4551,-4.4551,-4.4524,-4.4542,-4.4542,-4.4515,-4.4515,-4.4515,-4.4515,-4.4542,-4.4542,-4.4542,-4.4524,-4.4551,-4.4683,-4.4758,-4.4711,-4.473,-4.473,-4.4684,-4.4571,-4.4515,-4.4515,-4.4515,-4.4515,-4.4515,-4.4515,-4.4515,-4.4515,-4.4515,-4.4515,-4.4515,-4.4515,-4.4515,-4.4515,-4.4515,-4.4335,-4.417,-4.417,-4.3968,-4.3744,-4.3744,-4.3744,-4.3646,-4.3477,-4.3442,-4.3408,-4.3338,-4.3124,-4.2957,-4.2957,-4.292,-4.292,-4.2957,-4.292,-4.2882,-4.2882,-4.2882,-4.2882,-4.2882,-4.2882,-4.2882,-4.2882,-4.2882,-4.2882,-4.2882,-4.2882,-4.2882,-4.2882,-4.2882,-4.2882,-4.2882,-4.2882,-4.2882,-4.2882,-4.2882,-4.2882,-4.2882,-4.2882,-4.2882,-4.2882,-4.2882,-4.2882,-4.2882,-4.2882,-4.2882,-4.2882,-4.2882,-4.2882,-2.0183,-2.147,-2.2745,-2.2941,-2.4336,-2.5698,-2.5741,0.0,0.0,0.0,0.0,0.0,0.0,0.0,-3.0547,-3.4877,0.0,-4.0075,-4.237,-4.3074,-4.3592,0.0,0.0,-4.4515,-4.4515,-4.4515,-4.4515,-4.4515,-4.4515,-4.4515,-4.4515,-4.4515,-4.4515,-4.4515,-4.4515,-4.4515,-4.4515,-4.4515,-4.4515,-4.4515,-4.4515,-4.4515,-4.4515,-4.4515,-4.4515,-4.4515,-4.4515,-4.4515,-4.4515,-4.4515,-4.4515,-4.4487,-4.4335,-4.4277,-4.4277,-4.4109,-4.4079,-4.4079,-4.4079,-4.3986,-4.3873,-4.3873,-4.3712,-4.3477,-4.3477,-4.3373,-4.3232,-4.3142,-4.3196,-4.3267,-4.3124,-4.2995,-4.2882,-4.2882,-4.2882,-4.2882,-4.2882,-4.2882,-4.2882,-4.2882,-4.2882,-4.2882,-4.2882,-4.2882,-4.2882,-4.2882,-4.2882,-4.2882,-4.2882,-4.2882,-4.2882,-4.2882,-4.2882,-4.2882,-4.2882,-4.2882,-4.2882,-4.2882,-4.2882,-4.2882,-4.2882,-4.2882,-4.2882,-4.2882,-4.2882,-4.2882,-4.2882,-4.2882,-4.2882,-4.2882,-4.2882,-4.2882,-1.9755,-2.1034,-2.2495,-2.3126,0.0,-2.6632,-2.6642,0.0,0.0,0.0,0.0,0.0,0.0,-3.0542,0.0,-3.7772,-3.95,-4.0992,-4.294,-4.3372,-4.3652,-4.4204,-4.4345,-4.444,-4.4487,-4.4515,-4.4515,-4.4515,-4.4515,-4.4515,-4.4515,-4.4515,-4.4515,-4.4515,-4.4515,-4.4515,-4.4515,-4.4515,-4.4515,-4.4515,-4.4515,-4.4515,-4.4515,-4.4515,-4.4515,-4.4515,-4.4515,-4.4515,-4.4515,-4.444,-4.4411,-4.4364,-4.4102,-4.403,-4.3992,-4.3795,-4.3712,-4.3712,-4.3712,-4.3646,-4.3612,-4.3612,-4.3408,-4.3196,-4.3196,-4.305,-4.2882,-4.2882,-4.3069,-4.316,-4.2957,-4.2882,-4.2882,-4.2882,-4.2882,-4.2882,-4.2882,-4.2882,-4.2882,-4.2882,-4.2882,-4.2882,-4.2882,-4.2882,-4.2882,-4.2882,-4.2882,-4.2882,-4.2882,-4.2882,-4.2882,-4.2882,-4.2882,-4.2882,-4.2882,-4.2882,-4.2882,-4.2882,-4.2882,-4.2882,-4.2882,-4.2882,-4.2882,-4.2882,-4.2882,-4.2882,-4.2882,-4.2882,-4.2882,-4.2882,-4.2882,-4.2882,-2.0389,-2.167,-2.2832,-2.3128,-2.4095,0.0,-2.7512,-2.7475,0.0,-2.8788,0.0,0.0,0.0,-3.2892,-3.6025,-3.8681,-4.044,-4.1983,-4.3444,0.0,-4.3767,-4.4091,-4.4121,-4.4229,-4.4487,-4.4515,-4.4515,-4.4515,-4.4515,-4.4515,-4.4515,-4.4515,-4.4515,-4.4515,-4.4515,-4.4515,-4.4515,-4.4515,-4.4515,-4.4515,-4.4515,-4.4515,-4.4515,-4.4515,-4.4515,-4.4515,-4.4515,-4.4515,-4.4487,-4.4229,-4.414,-4.4121,-4.3831,-4.3721,-4.3747,-4.3701,-4.3712,-4.3712,-4.3712,-4.3545,-4.3338,-4.3338,-4.3124,-4.292,-4.292,-4.2938,-4.2882,-4.2882,-4.292,-4.292,-4.29,-4.2882,-4.2882,-4.2882,-4.2882,-4.2882,-4.2882,-4.2882,-4.2882,-4.2882,-4.2882,-4.2882,-4.2882,-4.2882,-4.2882,-4.2882,-4.2882,-4.2882,-4.2882,-4.2882,-4.2882,-4.2882,-4.2882,-4.2882,-4.2882,-4.2882,-4.2882,-4.2882,-4.2882,-4.2882,-4.2882,-4.2882,-4.2882,-4.2882,-4.2882,-4.2882,-4.2882,-4.2882,-4.2882,-4.2882,-4.2882,-4.2882,-1.9724,-2.1275,-2.2811,-2.2887,0.0,0.0,0.0,-2.8476,-2.9388,-3.1057,-3.1591,0.0,0.0,0.0,-3.6885,-3.9369,-4.0674,-4.1878,-4.3256,-4.3579,-4.3679,-4.3594,-4.3905,-4.414,-4.4229,-4.4411,-4.4515,-4.4515,-4.4515,-4.4515,-4.4515,-4.4515,-4.4515,-4.4515,-4.4515,-4.4515,-4.4515,-4.4515,-4.4515,-4.4515,-4.4515,-4.4515,-4.4515,-4.4515,-4.4515,-4.4515,-4.4515,-4.4411,-4.4229,-4.414,-4.3999,-4.3823,-4.3572,-4.3355,-4.3215,-4.3178,-4.3196,-4.3196,-4.3196,-4.3142,-4.3069,-4.3069,-4.2995,-4.2882,-4.2882,-4.2882,-4.2882,-4.2882,-4.2882,-4.2882,-4.2882,-4.2882,-4.2882,-4.2882,-4.2882,-4.2882,-4.2882,-4.2882,-4.2882,-4.2882,-4.2882,-4.2882,-4.2882,-4.2882,-4.2882,-4.2882,-4.2882,-4.2882,-4.2882,-4.2882,-4.2882,-4.2882,-4.2882,-4.2882,-4.2882,-4.2882,-4.2882,-4.2882,-4.2882,-4.2882,-4.2882,-4.2882,-4.2882,-4.2882,-4.2882,-4.2882,-4.2882,-4.2882,-4.2882,-4.2882,-4.2882,-4.2882,-1.9545,-2.117,-2.2807,0.0,0.0,0.0,-2.8109,-2.9313,-3.0673,-3.2828,-3.3549,0.0,0.0,0.0,0.0,0.0,-4.0633,-4.164,-4.2977,-4.3338,-4.3408,-4.3303,-4.3627,-4.3873,-4.3968,-4.4218,-4.4364,-4.4364,-4.444,-4.4515,-4.4515,-4.4515,-4.4515,-4.4515,-4.4515,-4.4515,-4.4515,-4.4515,-4.4458,-4.4364,-4.444,-4.4515,-4.4515,-4.4515,-4.444,-4.4364,-4.4364,-4.4277,-4.4109,-4.3905,-4.3712,-4.3442,-4.3232,-4.3069,-4.2882,-4.2882,-4.2882,-4.2882,-4.2882,-4.2882,-4.2882,-4.2882,-4.2882,-4.2882,-4.2882,-4.2882,-4.2882,-4.2882,-4.2882,-4.2882,-4.2882,-4.2882,-4.2882,-4.2882,-4.2882,-4.2882,-4.2882,-4.2882,-4.2882,-4.2882,-4.2882,-4.2882,-4.2882,-4.2882,-4.2882,-4.2882,-4.2882,-4.2882,-4.2882,-4.2882,-4.2882,-4.2882,-4.2882,-4.2882,-4.2882,-4.2882,-4.2882,-4.2882,-4.2862,-4.2806,-4.29,-4.2882,-4.2882,-4.2882,-4.2882,-4.2844,-4.2824,-4.2824,-4.2786,-4.2691,-4.2786,-4.2824,-2.0097,-2.1461,-2.2895,0.0,0.0,0.0,-2.9065,-2.9901,-3.0881,-3.3984,0.0,-3.4921,-3.5914,-3.6113,0.0,-3.9319,-4.0379,-4.1336,-4.2684,-4.2882,-4.2995,-4.3267,-4.3303,-4.3408,-4.3679,-4.3936,-4.4109,-4.4109,-4.4335,-4.4487,-4.4515,-4.4515,-4.4515,-4.4515,-4.4515,-4.4515,-4.4515,-4.4515,-4.4364,-4.4091,-4.4383,-4.4487,-4.4515,-4.4515,-4.4335,-4.4091,-4.4109,-4.4091,-4.406,-4.3511,-4.3124,-4.2882,-4.2882,-4.2882,-4.2882,-4.2882,-4.2882,-4.2882,-4.2882,-4.2882,-4.2882,-4.2882,-4.2882,-4.2882,-4.2882,-4.2882,-4.2882,-4.2882,-4.2882,-4.2882,-4.2882,-4.2882,-4.2882,-4.2882,-4.2882,-4.2882,-4.2882,-4.2882,-4.2882,-4.2882,-4.2882,-4.2882,-4.2882,-4.2882,-4.2882,-4.2882,-4.2882,-4.2882,-4.2882,-4.2882,-4.2882,-4.29,-4.2882,-4.2882,-4.2882,-4.2882,-4.2882,-4.2882,-4.2709,-4.267,-4.2882,-4.29,-4.2882,-4.2882,-4.2882,-4.2786,-4.2609,-4.2609,-4.249,-4.2287,-4.249,-4.2609,-1.9553,-2.1043,0.0,0.0,0.0,0.0,0.0,-3.0277,0.0,0.0,-3.6272,-3.6377,-3.6676,-3.6726,0.0,-3.8452,-3.9309,-4.038,-4.185,-4.2067,-4.2304,-4.2922,-4.3214,-4.3338,-4.3408,-4.3679,-4.3809,-4.3809,-4.3873,-4.4017,-4.4199,-4.4229,-4.4229,-4.4229,-4.4411,-4.4411,-4.4229,-4.4229,-4.417,-4.4091,-4.3986,-4.4048,-4.4229,-4.4229,-4.417,-4.4091,-4.3905,-4.3712,-4.3493,-4.316,-4.2957,-4.2882,-4.2882,-4.2882,-4.2882,-4.2882,-4.2882,-4.2882,-4.2882,-4.2882,-4.2882,-4.2882,-4.2882,-4.2882,-4.2882,-4.2882,-4.2882,-4.2882,-4.2882,-4.2882,-4.2882,-4.2882,-4.2882,-4.2882,-4.2882,-4.2882,-4.2882,-4.2882,-4.2882,-4.2882,-4.2882,-4.2882,-4.2882,-4.2882,-4.2882,-4.2882,-4.2882,-4.2882,-4.2882,-4.2882,-4.2899,-4.291,-4.2343,-4.2121,-4.2436,-4.24,-4.24,-4.2472,-4.2391,-4.249,-4.267,-4.2552,-4.2472,-4.2472,-4.2472,-4.2432,-4.2409,-4.2409,-4.2369,-4.2287,-4.2369,-4.2409,-2.0408,-2.204,0.0,0.0,-2.6343,-2.8993,-3.0423,0.0,0.0,0.0,0.0,-3.712,-3.7428,-3.7229,0.0,-3.8482,-3.9079,-3.9822,-4.1071,-4.1487,-4.1886,-4.2375,-4.2832,-4.3124,-4.3124,-4.3373,-4.3545,-4.3545,-4.3646,-4.3777,-4.3936,-4.3936,-4.3936,-4.3936,-4.4109,-4.4109,-4.3936,-4.3936,-4.3905,-4.3758,-4.3712,-4.3744,-4.3809,-4.3905,-4.3873,-4.3758,-4.3612,-4.3373,-4.3142,-4.3087,-4.2995,-4.2882,-4.2882,-4.2882,-4.2882,-4.2882,-4.2882,-4.2882,-4.2882,-4.2882,-4.2882,-4.2882,-4.2882,-4.2882,-4.2882,-4.2882,-4.2882,-4.2882,-4.2882,-4.2882,-4.2824,-4.2786,-4.2824,-4.2882,-4.2882,-4.29,-4.2786,-4.2786,-4.2747,-4.267,-4.267,-4.267,-4.267,-4.2747,-4.2747,-4.267,-4.267,-4.267,-4.267,-4.2778,-4.2904,-4.2911,-4.2105,-4.1721,-4.1996,-4.2144,-4.2216,-4.2287,-4.2205,-4.2187,-4.231,-4.2328,-4.2287,-4.2287,-4.2287,-4.2246,-4.2145,-4.2145,-4.2103,-4.2019,-4.2103,-4.2145,-2.1894,0.0,0.0,0.0,-2.7471,0.0,-3.1781,-3.4063,-3.5729,-3.5783,0.0,-3.7265,-3.8047,-3.7594,-3.7576,-3.9043,-3.9278,-3.955,-4.0311,-4.1053,-4.1542,-4.1596,-4.2248,-4.2701,-4.2774,-4.296,-4.3121,-4.3249,-4.3403,-4.3572,-4.3646,-4.3646,-4.3646,-4.3646,-4.3679,-4.3679,-4.3646,-4.3646,-4.3545,-4.3303,-4.3511,-4.3511,-4.3267,-4.3545,-4.3511,-4.3267,-4.3267,-4.3142,-4.292,-4.316,-4.3142,-4.2882,-4.2882,-4.2882,-4.2882,-4.2882,-4.2882,-4.2882,-4.2882,-4.2882,-4.2882,-4.2882,-4.2882,-4.29,-4.29,-4.2882,-4.2844,-4.2844,-4.2862,-4.2806,-4.2609,-4.257,-4.2609,-4.2806,-4.2862,-4.2786,-4.2609,-4.257,-4.253,-4.2328,-4.2287,-4.2287,-4.2287,-4.245,-4.253,-4.2328,-4.2287,-4.2287,-4.2287,-4.2637,-4.2834,-4.2851,-4.2103,-4.1611,-4.1588,-4.1991,-4.2246,-4.2246,-4.2019,-4.1874,-4.1874,-4.2121,-4.2246,-4.2246,-4.2246,-4.2121,-4.1874,-4.1874,-4.1762,-4.1604,-4.1735,-4.1785,0.0,-2.2401,0.0,0.0,-2.7888,-3.0948,-3.2741,-3.4027,-3.5041,-3.5675,-3.6435,-3.7265,-3.8047,-3.8047,-3.8047,-3.8391,-3.8445,-3.8717,-3.9532,-3.9786,-4.0111,-4.0709,-4.0926,-4.127,-4.1904,-4.1434,-4.1651,-4.2904,-4.245,-4.2503,-4.3336,-4.3373,-4.3373,-4.3373,-4.3579,-4.3612,-4.3373,-4.3373,-4.3373,-4.3303,-4.3142,-4.3032,-4.2995,-4.3267,-4.3232,-4.2995,-4.2995,-4.2957,-4.2882,-4.2957,-4.2957,-4.2882,-4.2882,-4.2882,-4.2882,-4.2882,-4.2882,-4.2882,-4.2882,-4.2882,-4.2882,-4.2882,-4.2882,-4.2844,-4.2709,-4.267,-4.2631,-4.2472,-4.245,-4.2391,-4.2369,-4.2369,-4.2369,-4.2391,-4.245,-4.2409,-4.2369,-4.2369,-4.2369,-4.2328,-4.2287,-4.2287,-4.2287,-4.2328,-4.2369,-4.2328,-4.2287,-4.2287,-4.2287,-4.2399,-4.2406,-4.2441,-4.1924,-4.1584,-4.1595,-4.1683,-4.1736,-4.1736,-4.1692,-4.1675,-4.1675,-4.1736,-4.1736,-4.1736,-4.1736,-4.1719,-4.1675,-4.1675,-4.1648,-4.1587,-4.1033,-4.0795,0.0,0.0,0.0,-2.6801,0.0,-3.131,-3.2542,-3.3447,-3.4262,-3.5077,-3.6164,-3.7138,-3.754,-3.792,-3.8192,-3.8192,-3.8192,-3.8337,-3.8753,-3.9152,-3.9532,-3.993,-4.0293,-4.0673,-4.1089,-4.0763,-4.0854,-4.1687,-4.1379,-4.1379,-4.194,-4.2323,-4.2523,-4.2523,-4.3031,-4.3232,-4.3087,-4.3105,-4.3105,-4.3105,-4.2957,-4.2882,-4.2882,-4.3014,-4.3032,-4.2882,-4.2882,-4.2882,-4.2882,-4.2882,-4.2882,-4.2882,-4.2786,-4.2824,-4.2882,-4.2786,-4.2747,-4.2747,-4.2747,-4.2709,-4.2631,-4.2631,-4.2631,-4.2591,-4.249,-4.245,-4.245,-4.2328,-4.2287,-4.2287,-4.2145,-4.2103,-4.2061,-4.1995,-4.2121,-4.2287,-4.2145,-4.2103,-4.2061,-4.1977,-4.1934,-4.1934,-4.1934,-4.1934,-4.1995,-4.2103,-4.2019,-4.1934,-4.1934,-4.1934,-4.1945,-4.1964,-4.1762,-4.1587,-4.1604,-4.1604,-4.1604,-4.1604,-4.1604,-4.1604,-4.1604,-4.1604,-4.1604,-4.1604,-4.1604,-4.1429,-4.106,-4.106,-4.0884,-4.0498,-4.0095,-3.9919,0.0,0.0,0.0,-2.8775,-3.0188,0.0,-3.1981,-3.2705,-3.3429,-3.4226,-3.5566,-3.6616,-3.6761,-3.7431,-3.7975,-3.7975,-3.8101,-3.8192,-3.8192,-3.8753,-3.9188,-3.9188,-3.9731,-4.0166,-4.0311,-4.0184,-4.022,-4.0492,-4.0401,-4.0383,-4.051,-4.1144,-4.1506,-4.1506,-4.214,-4.2484,-4.2484,-4.2611,-4.2683,-4.2683,-4.2828,-4.2882,-4.2844,-4.2882,-4.2882,-4.2862,-4.2862,-4.2844,-4.2788,-4.2806,-4.2806,-4.2788,-4.2631,-4.2631,-4.2786,-4.2609,-4.257,-4.257,-4.257,-4.245,-4.2287,-4.2287,-4.2287,-4.2287,-4.2246,-4.2246,-4.2228,-4.2205,-4.2163,-4.2121,-4.1892,-4.1849,-4.1805,-4.1648,-4.1909,-4.2121,-4.1892,-4.1849,-4.1805,-4.1648,-4.1604,-4.1604,-4.1604,-4.1604,-4.1648,-4.1805,-4.1719,-4.1604,-4.1604,-4.1604,-4.1604,-4.1604,-4.1604,-4.1604,-4.1604,-4.1604,-4.1604,-4.1604,-4.1604,-4.1552,-4.1411,-4.1411,-4.1341,-4.1218,-4.1341,-4.1025,-4.027,-4.027,-3.9937,-3.9305,-3.9164,-3.9111,0.0,0.0,0.0,0.0,-2.9373,-3.0333,0.0,0.0,-3.2596,0.0,-3.4298,-3.5131,-3.5838,-3.6616,-3.7142,-3.7142,-3.7739,-3.8192,-3.8192,-3.8282,-3.8355,-3.8355,-3.8445,-3.8771,-3.9478,-3.8916,-3.9061,-4.0419,-3.9912,-3.9822,-4.0474,-4.0619,-4.0673,-4.0673,-4.0763,-4.0836,-4.0836,-4.1524,-4.1868,-4.1886,-4.2574,-4.2824,-4.2649,-4.2824,-4.2806,-4.2649,-4.2649,-4.2537,-4.2368,-4.2396,-4.2378,-4.2368,-4.2374,-4.2369,-4.2369,-4.2369,-4.2328,-4.2328,-4.2328,-4.2328,-4.2287,-4.2287,-4.2287,-4.2246,-4.2019,-4.1959,-4.1934,-4.1736,-4.1692,-4.1692,-4.1648,-4.1648,-4.1648,-4.1604,-4.1648,-4.1692,-4.1648,-4.1648,-4.1648,-4.1604,-4.1604,-4.1604,-4.1604,-4.1604,-4.1604,-4.1648,-4.1604,-4.1604,-4.1604,-4.1604,-4.1604,-4.1604,-4.1604,-4.1604,-4.1604,-4.1604,-4.1604,-4.1604,-4.1604,-4.1306,-4.0656,-4.0639,-4.0305,-3.9638,-4.0288,-4.0253,-3.9463,-3.9463,-3.941,-3.9287,-3.8585,-3.8269,-1.9304,0.0,-2.4465,0.0,-2.854,-2.9427,-3.0586,0.0,-3.1745,-3.256,-3.2907,-3.3509,-3.4865,-3.5802,-3.6327,-3.6327,-3.6616,-3.7015,-3.7449,-3.7522,-3.7685,-3.8138,-3.8192,-3.8337,-3.8681,-3.8391,-3.8464,-3.9152,-3.8898,-3.8862,-3.9188,-3.9641,-3.9876,-3.9876,-4.0293,-4.051,-4.051,-4.0872,-4.1053,-4.1053,-4.1305,-4.1411,-4.1335,-4.1279,-4.1686,-4.2414,-4.2067,-4.1812,-4.16,-4.1185,-4.0989,-4.0992,-4.0851,-4.1136,-4.1573,-4.0989,-4.1073,-4.141,-4.093,-4.0707,-4.0689,-4.1114,-4.1315,-4.1343,-4.1639,-4.1719,-4.1719,-4.1648,-4.1306,-4.1078,-4.1499,-4.1288,-4.1078,-4.1499,-4.1604,-4.1604,-4.1604,-4.1604,-4.1604,-4.1604,-4.1604,-4.1604,-4.1604,-4.1604,-4.1604,-4.1604,-4.1604,-4.1604,-4.1604,-4.1604,-4.1604,-4.1604,-4.1604,-4.1604,-4.1604,-4.1604,-4.1411,-4.1007,-4.0972,-4.0639,-3.9849,-3.9831,-3.9361,-3.8388,-3.9326,-3.9427,-3.8638,-3.8638,-3.8345,-3.7701,-3.7352,-3.7078,0.0,0.0,-2.3428,-2.5804,-2.7157,-2.8167,0.0,0.0,-3.0577,0.0,-3.1672,-3.2044,-3.3568,-3.4681,-3.5367,-3.5413,-3.5562,-3.5905,-3.6515,-3.6606,-3.688,-3.7641,-3.7731,-3.7855,-3.8106,-3.8106,-3.8106,-3.8106,-3.8106,-3.8106,-3.8038,-3.8615,-3.8922,-3.8922,-3.9481,-3.977,-3.977,-3.9969,-4.0167,-4.0366,-4.0291,-4.0179,-4.0123,-4.0027,-4.0552,-4.154,-4.1117,-4.0831,-4.0597,-4.0064,-3.9815,-3.9797,-3.9598,-3.9992,-4.0575,-3.981,-3.9888,-4.0329,-3.9711,-3.9412,-3.941,-3.9989,-4.0182,-4.0288,-4.0849,-4.1025,-4.1025,-4.1025,-4.0621,-4.0305,-4.0867,-4.0744,-4.0621,-4.1183,-4.1464,-4.1604,-4.1604,-4.1604,-4.1604,-4.1604,-4.1604,-4.1604,-4.1604,-4.1604,-4.1604,-4.1604,-4.1604,-4.1604,-4.1604,-4.1604,-4.1604,-4.1604,-4.1604,-4.1604,-4.1604,-4.1323,-4.0928,-4.0351,-4.0097,-3.9556,-3.8771,-3.8736,-3.8225,-3.7197,-3.7999,-3.8143,-3.755,-3.755,-3.713,-3.636,-3.636,-3.6199,0.0,-1.9651,0.0,-2.3137,0.0,0.0,0.0,0.0,-2.88,-3.0355,-3.0659,-3.0927,-3.1701,-3.3112,-3.4214,-3.4357,-3.4906,-3.5393,-3.5544,-3.5462,-3.5665,-3.6416,-3.6488,-3.6862,-3.7827,-3.7899,-3.7899,-3.7899,-3.7899,-3.7828,-3.7649,-3.7667,-3.7684,-3.7684,-3.772,-3.7738,-3.7738,-3.8488,-3.9276,-4.0045,-4.0027,-3.9893,-3.966,-3.9893,-3.9807,-3.9469,-3.9628,-3.9557,-3.9382,-3.937,-3.9335,-3.9347,-3.9311,-3.934,-3.9399,-3.9322,-3.934,-3.9357,-3.9322,-3.9305,-3.9322,-3.9357,-3.9375,-3.9375,-3.9427,-3.9427,-3.9427,-3.9427,-3.9392,-3.9375,-3.9427,-3.9954,-4.0498,-4.0533,-4.1078,-4.1604,-4.1604,-4.1604,-4.1604,-4.1604,-4.1604,-4.1604,-4.1604,-4.1604,-4.1604,-4.1604,-4.1604,-4.1604,-4.1604,-4.1604,-4.1604,-4.1604,-4.1604,-4.1604,-4.1604,-4.0593,-3.9961,-3.9926,-3.8952,-3.8031,-3.7261,-3.7209,-3.6806,-3.6019,-3.6053,-3.6053,-3.6002,-3.6002,-3.5985,-3.595,-3.595,-3.5907,0.0,0.0,0.0,-2.1563,-2.3205,-2.4629,-2.57,-2.6718,-2.7754,-2.8826,-2.9365,-2.9864,-3.0645,-3.1751,-3.2737,-3.3301,-3.3609,-3.3967,-3.4533,-3.4557,-3.4827,-3.5613,-3.5702,-3.5862,-3.6217,-3.6647,-3.6934,-3.6934,-3.7417,-3.7667,-3.7613,-3.7577,-3.7577,-3.7577,-3.7577,-3.7577,-3.7577,-3.7917,-3.8185,-3.847,-3.832,-3.8206,-3.8111,-3.809,-3.7972,-3.7812,-3.7875,-3.8179,-3.8485,-3.8006,-3.7835,-3.78,-3.7835,-3.8111,-3.848,-3.8006,-3.8111,-3.8462,-3.7988,-3.7812,-3.79,-3.8392,-3.8532,-3.8638,-3.9147,-3.9305,-3.9305,-3.9305,-3.8936,-3.8655,-3.9182,-3.9129,-3.9094,-3.9603,-3.9937,-4.013,-4.013,-4.0902,-4.1604,-4.1604,-4.1604,-4.1604,-4.1604,-4.1604,-4.1604,-4.1604,-4.1604,-4.1613,-4.1595,-4.1604,-4.1418,-4.0882,-4.085,-4.066,-4.0141,-3.9772,-3.9112,-3.815,-3.7723,-3.7182,-3.6351,-3.6317,-3.611,-3.5588,-3.5571,-3.5705,-3.5907,-3.5907,-3.5776,-3.5571,-3.5571,-3.5453,-1.5887,0.0,0.0,0.0,0.0,-2.2944,-2.426,0.0,-2.5993,-2.7023,-2.7791,-2.85,-2.9289,-3.0176,-3.1138,-3.225,-3.2346,-3.2631,-3.3479,-3.3537,-3.3805,-3.4603,-3.471,-3.4817,-3.517,-3.5651,-3.5954,-3.5954,-3.6435,-3.6701,-3.6611,-3.6628,-3.6628,-3.6628,-3.6877,-3.7001,-3.7001,-3.7268,-3.7392,-3.7392,-3.7259,-3.7182,-3.7182,-3.7066,-3.6987,-3.6987,-3.6987,-3.7268,-3.769,-3.718,-3.6987,-3.6987,-3.6987,-3.7286,-3.7672,-3.7163,-3.7303,-3.7654,-3.7163,-3.6987,-3.7058,-3.7567,-3.7725,-3.783,-3.8374,-3.8532,-3.8532,-3.8532,-3.8146,-3.7807,-3.8268,-3.8157,-3.8139,-3.8944,-3.9221,-3.9305,-3.9305,-4.0112,-4.0832,-4.0832,-4.0832,-4.092,-4.1183,-4.1007,-4.0876,-4.1033,-4.1051,-4.1227,-4.1561,-4.0961,-4.0002,-3.8683,-3.8905,-3.9067,-3.8978,-3.8421,-3.7767,-3.6847,-3.6359,-3.5849,-3.5345,-3.5374,-3.5345,-3.5102,-3.5195,-3.5316,-3.5419,-3.5509,-3.5453,-3.5241,-3.5241,-3.5055,0.0,0.0,0.0,0.0,0.0,0.0,-2.3653,0.0,-2.3506,-2.5033,-2.5981,-2.6771,-2.749,-2.8298,-2.9396,-3.1119,-3.1255,-3.1489,-3.2396,-3.2403,-3.2599,-3.3336,-3.3441,-3.3829,-3.4818,-3.4942,-3.496,-3.496,-3.4978,-3.4924,-3.4725,-3.4688,-3.4688,-3.4688,-3.539,-3.5776,-3.5776,-3.6531,-3.6917,-3.6917,-3.6917,-3.6917,-3.6917,-3.6917,-3.6917,-3.6952,-3.6952,-3.697,-3.6987,-3.6987,-3.6987,-3.6987,-3.6987,-3.6987,-3.6987,-3.6987,-3.6987,-3.6987,-3.6987,-3.6987,-3.6987,-3.6987,-3.6987,-3.6987,-3.6987,-3.697,-3.6987,-3.6987,-3.6987,-3.6891,-3.6585,-3.7005,-3.7733,-3.8556,-3.8963,-3.9193,-3.9193,-3.9193,-3.921,-3.9305,-3.9263,-3.9508,-4.0305,-3.9814,-3.9423,-3.977,-3.9973,-4.0393,-4.1394,-3.9531,-3.7313,-3.5094,-3.589,-3.6983,-3.8099,-3.6731,-3.5893,-3.6135,-3.4857,-3.4101,-3.4101,-3.4349,-3.4497,-3.4497,-3.4739,-3.4756,-3.4497,-3.4739,-3.4899,-3.4899,-3.4899,-3.4739,-1.4391,0.0,0.0,0.0,0.0,0.0,0.0,0.0,-2.2575,-2.3541,-2.4383,-2.5156,-2.5893,-2.67,-2.7561,-2.8599,-2.9681,-3.0475,-3.0768,-3.0771,-3.1019,-3.1739,-3.1844,-3.2176,-3.3037,-3.36,-3.3899,-3.3917,-3.4463,-3.4761,-3.4688,-3.4688,-3.4688,-3.4688,-3.4898,-3.5004,-3.5004,-3.5214,-3.532,-3.532,-3.532,-3.532,-3.532,-3.532,-3.5618,-3.6145,-3.6145,-3.6461,-3.6987,-3.6987,-3.6987,-3.6987,-3.6987,-3.6987,-3.6987,-3.6987,-3.6987,-3.6987,-3.6987,-3.6987,-3.6987,-3.6987,-3.6987,-3.6987,-3.6987,-3.6829,-3.6626,-3.6626,-3.6426,-3.6165,-3.6097,-3.6208,-3.644,-3.6663,-3.6758,-3.6844,-3.6844,-3.6844,-3.7318,-3.8993,-3.8921,-3.8708,-3.9181,-3.8866,-3.8618,-3.8734,-3.8751,-3.89,-3.9193,-3.6582,-3.4574,-3.4365,-3.5103,-3.5759,-3.6042,-3.5626,-3.5181,-3.4709,-3.4298,-3.4101,-3.4101,-3.4151,-3.4201,-3.4201,-3.43,-3.43,-3.4201,-3.4497,-3.4497,-3.43,-3.43,-3.43,-1.4717,0.0,0.0,0.0,0.0,0.0,-1.9995,-2.0609,-2.1329,0.0,-2.326,-2.4032,-2.4787,-2.5577,-2.6244,-2.6665,-2.7526,-2.8614,-2.993,-3.0106,-3.0264,-3.0685,-3.0738,-3.0931,-3.1388,-3.2125,-3.2546,-3.2529,-3.3283,-3.374,-3.374,-3.374,-3.374,-3.374,-3.4038,-3.4196,-3.4196,-3.453,-3.4688,-3.4688,-3.4688,-3.4688,-3.4688,-3.4688,-3.4934,-3.5337,-3.5337,-3.5601,-3.6022,-3.6022,-3.6408,-3.6987,-3.6987,-3.6987,-3.6987,-3.6987,-3.6987,-3.6987,-3.6987,-3.6987,-3.6987,-3.6987,-3.6987,-3.697,-3.6811,-3.665,-3.6461,-3.6301,-3.5968,-3.5705,-3.5705,-3.5705,-3.5705,-3.5705,-3.582,-3.5847,-3.5759,-3.5627,-3.5987,-3.7551,-3.7568,-3.7466,-3.7998,-3.7552,-3.7223,-3.7407,-3.7377,-3.7216,-3.6925,-3.4806,-3.3404,-3.3761,-3.4274,-3.4662,-3.4732,-3.4526,-3.4246,-3.3931,-3.3848,-3.3745,-3.3745,-3.3848,-3.3949,-3.3949,-3.405,-3.405,-3.3949,-3.4201,-3.425,-3.4101,-3.4,-3.3949,0.0,0.0,0.0,0.0,0.0,0.0,-2.024,-2.01,-2.0082,0.0,-2.2235,-2.2979,-2.3776,-2.4576,-2.5121,-2.505,-2.5243,-2.642,-2.9316,-2.972,-2.9772,-2.9948,-2.9983,-3.0001,-3.0106,-3.0685,-3.1072,-3.1072,-3.1739,-3.2177,-3.2265,-3.2265,-3.23,-3.2406,-3.3038,-3.3371,-3.3371,-3.4091,-3.4424,-3.4424,-3.4424,-3.4424,-3.4424,-3.4424,-3.4477,-3.4565,-3.4565,-3.4618,-3.4688,-3.4688,-3.5495,-3.6724,-3.6724,-3.6777,-3.6847,-3.6847,-3.69,-3.6987,-3.6987,-3.6987,-3.693,-3.693,-3.6891,-3.6811,-3.6527,-3.6402,-3.6318,-3.5924,-3.5571,-3.5333,-3.5333,-3.5333,-3.5287,-3.5287,-3.5526,-3.5627,-3.5386,-3.5128,-3.5068,-3.5599,-3.5715,-3.5936,-3.6678,-3.6022,-3.5467,-3.5887,-3.5808,-3.5497,-3.4888,-3.3919,-3.3283,-3.3315,-3.3502,-3.3745,-3.4,-3.3555,-3.3398,-3.3658,-3.345,-3.3309,-3.3309,-3.3555,-3.3658,-3.3658,-3.3899,-3.3899,-3.3658,-3.3899,-3.4,-3.4,-3.3745,-3.3658,-1.8064,0.0,0.0,0.0,-1.9436,0.0,-1.8951,-1.9227,-1.9742,0.0,-2.0153,-2.0591,-2.1351,-2.261,-2.3365,-2.2751,-2.419,-2.584,-2.7122,-2.7297,-2.7754,-2.9,-2.9141,-2.9386,-3.0053,-3.0229,-3.0317,-3.0317,-3.0457,-3.0808,-3.1388,-3.1423,-3.1721,-3.2371,-3.2529,-3.2616,-3.2616,-3.2774,-3.2845,-3.2845,-3.2845,-3.2845,-3.2845,-3.2845,-3.3161,-3.3722,-3.3722,-3.4091,-3.4688,-3.4688,-3.4863,-3.5144,-3.5144,-3.5513,-3.6039,-3.6039,-3.6443,-3.6987,-3.6987,-3.6811,-3.6585,-3.6585,-3.6367,-3.6079,-3.6037,-3.5837,-3.556,-3.5195,-3.5071,-3.4977,-3.4977,-3.4835,-3.4691,-3.4691,-3.4561,-3.4415,-3.4366,-3.4317,-3.4333,-3.4415,-3.4464,-3.4594,-3.4998,-3.4676,-3.4415,-3.4529,-3.4479,-3.4395,-3.4272,-3.3697,-3.3284,-3.3287,-3.3366,-3.3398,-3.345,-3.3346,-3.3309,-3.3346,-3.3361,-3.3309,-3.3309,-3.3346,-3.3398,-3.3398,-3.345,-3.345,-3.3398,-3.345,-3.345,-3.345,-3.3398,-3.3398,-1.9415,-1.9946,-2.0613,-1.984,-1.9963,0.0,0.0,-1.8958,-1.9269,-1.9829,-1.9752,-1.9944,-2.1171,-2.161,-2.1849,-2.1978,-2.2961,-2.3962,-2.4769,-2.5524,-2.6297,-2.7069,-2.7157,-2.7473,-2.828,-2.8684,-2.9246,-3.0053,-3.0106,-3.0264,-3.0633,-3.065,-3.1001,-3.1774,-3.1791,-3.1984,-3.2406,-3.2406,-3.2406,-3.2406,-3.2406,-3.2406,-3.2388,-3.2232,-3.2336,-3.2684,-3.2539,-3.2728,-3.311,-3.311,-3.311,-3.3217,-3.4261,-3.4916,-3.5249,-3.5063,-3.5269,-3.5562,-3.5461,-3.552,-3.5707,-3.5707,-3.5805,-3.5864,-3.5705,-3.5299,-3.4866,-3.4594,-3.4497,-3.4497,-3.4497,-3.4399,-3.43,-3.43,-3.4201,-3.405,-3.3949,-3.3899,-3.3848,-3.3761,-3.3694,-3.3848,-3.4267,-3.4084,-3.3899,-3.3899,-3.3797,-3.369,-3.3718,-3.3487,-3.3303,-3.3293,-3.3309,-3.3309,-3.3309,-3.3309,-3.3309,-3.3309,-3.3309,-3.3309,-3.3309,-3.3309,-3.3309,-3.3309,-3.3309,-3.3309,-3.3309,-3.3309,-3.3309,-3.3309,-3.3309,-3.3119,-2.0697,-2.0785,-2.1176,-2.0877,-2.0473,-1.9969,0.0,0.0,0.0,-1.9779,-1.9509,-1.9559,0.0,0.0,0.0,-2.1155,0.0,0.0,0.0,-2.3769,0.0,-2.5156,-2.5314,-2.5665,-2.6314,-2.6771,-2.7631,-2.9088,-2.9193,-2.9334,-2.9632,-2.979,-3.0211,-3.0949,-3.0984,-3.1336,-3.2091,-3.2091,-3.2144,-3.2249,-3.2249,-3.2249,-3.2214,-3.1965,-3.1821,-3.1821,-3.1579,-3.1504,-3.1504,-3.1504,-3.1504,-3.1661,-3.341,-3.4172,-3.4257,-3.3994,-3.4004,-3.4086,-3.3842,-3.4072,-3.4525,-3.4466,-3.4873,-3.5256,-3.4885,-3.4488,-3.4203,-3.3989,-3.3906,-3.3922,-3.4068,-3.405,-3.4,-3.4,-3.4,-3.3899,-3.3658,-3.3607,-3.3555,-3.3346,-3.3309,-3.345,-3.3848,-3.3745,-3.3607,-3.3607,-3.345,-3.3309,-3.3309,-3.3309,-3.3309,-3.3309,-3.3309,-3.3309,-3.3309,-3.3309,-3.3309,-3.3309,-3.3309,-3.3309,-3.3309,-3.3309,-3.3309,-3.3309,-3.3166,-3.3103,-3.3103,-3.2961,-3.2977,-3.3103,-3.3103,-3.2724,-2.2768,-2.2786,-2.2522,-2.1158,-2.1281,-2.112,-1.8714,0.0,-1.9043,-1.82,0.0,-1.8215,0.0,0.0,0.0,0.0,0.0,0.0,-2.0236,-2.1399,-2.2874,-2.4269,-2.4998,-2.5437,-2.5542,-2.5015,-2.5015,-2.5875,-2.5928,-2.6542,-2.7894,-2.8649,-2.9404,-3.0211,-3.0229,-3.0482,-3.0994,-3.0994,-3.1182,-3.1596,-3.1596,-3.1596,-3.1596,-3.1542,-3.1559,-3.1542,-3.1504,-3.1504,-3.1504,-3.1504,-3.1504,-3.1521,-3.1785,-3.2286,-3.2814,-3.2814,-3.322,-3.3819,-3.3564,-3.3305,-3.3088,-3.2862,-3.3077,-3.3273,-3.2574,-3.2787,-3.3259,-3.321,-3.321,-3.3356,-3.3939,-3.3899,-3.3761,-3.3761,-3.3555,-3.3398,-3.3346,-3.3361,-3.3361,-3.3309,-3.3309,-3.3309,-3.3398,-3.3361,-3.3361,-3.3361,-3.3309,-3.3309,-3.3309,-3.3309,-3.3309,-3.3309,-3.3309,-3.3309,-3.3309,-3.3309,-3.3309,-3.3309,-3.3309,-3.3309,-3.3309,-3.3309,-3.3309,-3.3309,-3.2692,-3.2428,-3.2428,-3.176,-3.1776,-3.2428,-3.2428,-3.2013,-2.3095,-2.3095,-2.2856,-2.175,-2.1295,-2.0686,-1.9018,-1.8618,-1.8545,-1.842,0.0,0.0,0.0,0.0,0.0,0.0,-1.9545,0.0,0.0,0.0,-2.1412,-2.2171,-2.2546,-2.3084,-2.3997,-2.4208,-2.4594,-2.5349,-2.4998,-2.5419,-2.6981,-2.7385,-2.8062,-2.9129,-2.9164,-2.9431,-2.9902,-2.9919,-3.0226,-3.0871,-3.0871,-3.1093,-3.1504,-3.1291,-3.1213,-3.1213,-3.0998,-3.0918,-3.0918,-3.0918,-3.0838,-3.0757,-3.0757,-3.1127,-3.1715,-3.15,-3.158,-3.1725,-3.1414,-3.1479,-3.179,-3.2109,-3.2329,-3.2352,-3.1918,-3.1983,-3.2176,-3.203,-3.1997,-3.2061,-3.2348,-3.2328,-3.2339,-3.2803,-3.2796,-3.2819,-3.3214,-3.3309,-3.3309,-3.3309,-3.3309,-3.3309,-3.3309,-3.3309,-3.3309,-3.3309,-3.3309,-3.3309,-3.3309,-3.3309,-3.3309,-3.3309,-3.3309,-3.3309,-3.3309,-3.3309,-3.3309,-3.3309,-3.3309,-3.3309,-3.3309,-3.2914,-3.2708,-3.2708,-3.2013,-3.165,-3.165,-3.1365,-3.116,-3.1065,-3.1476,-3.1286,-2.3095,-2.3095,-2.2874,-2.1908,-2.1074,-2.0195,-1.9064,-1.8512,-1.833,-1.8706,-1.8473,0.0,0.0,0.0,0.0,0.0,0.0,-1.9229,0.0,-1.9568,0.0,-2.0381,-2.064,-2.1246,-2.2364,-2.2803,-2.3393,-2.4287,-2.3867,-2.4209,-2.5691,-2.6196,-2.6809,-2.7696,-2.7887,-2.8236,-2.8691,-2.8691,-2.9045,-2.9677,-2.9677,-2.9964,-3.047,-3.0396,-3.0392,-3.0392,-3.0344,-3.03,-3.03,-3.03,-3.0215,-3.0103,-3.0103,-3.0326,-3.0625,-3.046,-3.0293,-3.014,-2.9793,-3.0016,-3.0502,-3.1017,-3.1323,-3.1452,-3.1023,-3.1055,-3.1166,-3.0972,-3.0939,-3.097,-3.116,-3.1223,-3.1349,-3.1855,-3.2124,-3.2408,-3.2914,-3.3166,-3.3309,-3.3309,-3.3309,-3.3309,-3.3309,-3.3309,-3.3309,-3.3309,-3.3309,-3.3309,-3.3309,-3.3309,-3.3208,-3.2955,-3.314,-3.324,-3.3134,-3.324,-3.323,-3.304,-3.2835,-3.2724,-3.2724,-3.225,-3.1981,-3.1981,-3.1286,-3.0939,-3.0939,-3.0733,-3.0385,-2.9911,-3.0607,-3.0559,-2.3095,-2.3095,-2.2751,-2.1228,-2.0673,-2.0073,-1.8408,-1.8409,-1.8732,-1.8543,-1.9064,-1.9561,-1.9578,0.0,0.0,0.0,0.0,0.0,0.0,0.0,0.0,0.0,-2.0258,-2.0824,-2.0877,-2.024,-2.0363,-2.1621,-2.1707,-2.2289,-2.3613,-2.512,-2.5848,-2.5707,-2.6386,-2.6873,-2.7172,-2.7172,-2.7416,-2.7875,-2.7875,-2.7891,-2.794,-2.8598,-2.8864,-2.8897,-2.9562,-2.9793,-2.9793,-2.9793,-2.9793,-2.9793,-2.9793,-2.9722,-2.956,-2.9766,-2.9793,-2.981,-2.9605,-2.9366,-2.9169,-2.9185,-2.9659,-3.0133,-2.9406,-2.9674,-3.0259,-3.0212,-3.0212,-3.037,-3.1049,-3.1223,-3.1223,-3.1239,-3.1776,-3.2333,-3.2349,-3.2819,-3.3309,-3.3309,-3.3309,-3.3309,-3.3309,-3.3309,-3.3309,-3.3309,-3.3309,-3.3309,-3.3309,-3.3309,-3.2955,-3.2037,-3.2786,-3.3134,-3.2656,-3.3065,-3.3008,-3.2396,-3.1665,-3.1286,-3.1286,-3.1255,-3.1255,-3.1255,-3.0559,-3.0212,-3.0212,-2.9532,-2.9138,-2.9122,-2.988,-2.9832,-2.3095,-2.3095,-2.2874,-2.1838,-2.0964,-2.0072,-1.899,-1.866,-1.8568,-1.8407,-1.9009,-1.953,-1.9311,0.0,0.0,0.0,0.0,0.0,0.0,0.0,0.0,0.0,0.0,0.0,-1.9539,-1.9333,-1.9703,-2.1036,-2.0688,-2.1254,-2.3177,-2.3769,-2.437,-2.5113,-2.5396,-2.5704,-2.6096,-2.6113,-2.645,-2.7048,-2.7048,-2.7347,-2.7818,-2.8021,-2.8135,-2.8135,-2.8378,-2.8735,-2.913,-2.913,-2.9318,-2.9589,-2.9589,-2.947,-2.9259,-2.9515,-2.9515,-2.9335,-2.9259,-2.9167,-2.9075,-2.9075,-2.9295,-2.9437,-2.9154,-2.9295,-2.9485,-2.9485,-2.9485,-2.9532,-2.9769,-2.9785,-2.9959,-3.0417,-3.0717,-3.1193,-3.2127,-3.2507,-3.2756,-3.3214,-3.3065,-3.2834,-3.2834,-3.2245,-3.2114,-3.3146,-3.3294,-3.3294,-3.3294,-3.2037,-3.0983,-3.0693,-3.1192,-3.1462,-3.1306,-3.1648,-3.1823,-3.1586,-3.1349,-3.1223,-3.1223,-3.0765,-3.0528,-3.0528,-2.9848,-2.9328,-2.906,-2.8826,-2.8574,-2.8319,-2.855,-2.8839,-2.3095,-2.3095,-2.2926,-2.2171,-2.1405,-2.0577,-1.9692,-1.9436,-1.9349,-1.9126,-1.9745,-2.0237,-1.9932,0.0,0.0,0.0,0.0,0.0,0.0,-1.6083,0.0,0.0,0.0,0.0,0.0,-1.8194,-1.8603,-1.9903,-1.9577,-2.0123,-2.1993,-2.259,-2.3176,-2.388,-2.4403,-2.4765,-2.4992,-2.5265,-2.5619,-2.6108,-2.6108,-2.6349,-2.6816,-2.7058,-2.7186,-2.7146,-2.7419,-2.7805,-2.8222,-2.8464,-2.8746,-2.9045,-2.9239,-2.9259,-2.9121,-2.9305,-2.9259,-2.9075,-2.9075,-2.9075,-2.9075,-2.9075,-2.9075,-2.9075,-2.9075,-2.9075,-2.9075,-2.9075,-2.9075,-2.9075,-2.9075,-2.9075,-2.9201,-2.9706,-2.9895,-3.0239,-3.1118,-3.1393,-3.1623,-3.2023,-3.1874,-3.1697,-3.1697,-3.1129,-3.1251,-3.3014,-3.3045,-3.2346,-3.1144,-2.9717,-2.8955,-2.9259,-2.9968,-3.0402,-3.0402,-3.0406,-3.0432,-3.0432,-3.0183,-3.0042,-3.0042,-2.9621,-2.9387,-2.9387,-2.8903,-2.8574,-2.8319,-2.8319,-2.811,-2.7765,-2.7765,-2.7997]}]]